Temperatur und Luftfeuchte

Nummer Datum Zeit Sensor Temp Celsius Gef├╝hlte Temp Luftfeuchte in %
9718 2019-06-16 15:11:43 ESP12E-S1 23.80 23.83 61.00
9717 2019-06-16 14:43:24 ESP12E-S1 24.30 24.39 61.30
9716 2019-06-16 14:15:01 ESP12E-S1 22.10 22.19 69.80
9715 2019-06-16 13:46:36 ESP12E-S1 22.00 22.17 73.40
9714 2019-06-16 13:18:29 ESP12E-S1 23.10 23.25 68.50
9713 2019-06-16 12:50:16 ESP12E-S1 23.40 23.64 70.70
9712 2019-06-16 12:21:39 ESP12E-S1 21.30 21.61 81.40
9711 2019-06-16 11:53:23 ESP12E-S1 21.50 21.79 80.00
9710 2019-06-16 11:24:58 ESP12E-S1 19.90 20.23 87.60
9709 2019-06-16 10:56:31 ESP12E-S1 18.70 19.06 93.10
9708 2019-06-16 10:28:12 ESP12E-S1 18.40 18.76 94.30
9707 2019-06-16 09:59:49 ESP12E-S1 17.90 18.25 95.90
9706 2019-06-16 09:31:27 ESP12E-S1 17.30 17.57 95.00
9705 2019-06-16 09:03:07 ESP12E-S1 16.90 17.10 94.00
9704 2019-06-16 08:34:55 ESP12E-S1 16.60 16.80 95.00
9703 2019-06-16 08:06:36 ESP12E-S1 16.60 16.80 95.00
9702 2019-06-16 07:38:18 ESP12E-S1 16.60 16.78 94.50
9701 2019-06-16 07:10:02 ESP12E-S1 16.60 16.80 95.00
9700 2019-06-16 06:41:44 ESP12E-S1 16.80 17.00 94.20
9699 2019-06-16 06:13:28 ESP12E-S1 17.20 17.38 92.00
9698 2019-06-16 05:45:12 ESP12E-S1 17.50 17.64 89.60
9697 2019-06-16 05:16:55 ESP12E-S1 17.90 17.95 84.30
9696 2019-06-16 04:48:39 ESP12E-S1 18.10 18.03 79.10
9695 2019-06-16 04:20:23 ESP12E-S1 18.60 18.35 70.40
9694 2019-06-16 03:52:07 ESP12E-S1 18.70 18.42 68.70
9693 2019-06-16 03:23:49 ESP12E-S1 18.80 18.50 67.70
9692 2019-06-16 02:55:32 ESP12E-S1 18.80 18.50 67.60
9691 2019-06-16 02:27:17 ESP12E-S1 18.90 18.58 66.40
9690 2019-06-16 01:59:00 ESP12E-S1 18.90 18.56 65.70
9689 2019-06-16 01:30:43 ESP12E-S1 19.00 18.67 65.80
9688 2019-06-16 01:02:24 ESP12E-S1 19.00 18.65 65.00
9687 2019-06-16 00:34:07 ESP12E-S1 19.00 18.68 65.90
9686 2019-06-16 00:05:47 ESP12E-S1 18.80 18.53 68.80
9685 2019-06-15 23:37:33 ESP12E-S1 18.90 18.63 68.50
9684 2019-06-15 23:09:18 ESP12E-S1 19.40 19.15 67.30
9683 2019-06-15 22:41:03 ESP12E-S1 19.70 19.47 66.70
9682 2019-06-15 22:12:48 ESP12E-S1 20.20 19.93 63.50
9681 2019-06-15 21:44:45 ESP12E-S1 21.00 20.77 61.90
9680 2019-06-15 21:16:25 ESP12E-S1 21.50 21.31 61.60
9679 2019-06-15 20:48:09 ESP12E-S1 22.10 21.90 58.90
9678 2019-06-15 20:19:55 ESP12E-S1 22.70 22.51 57.00
9677 2019-06-15 19:51:40 ESP12E-S1 23.40 23.21 54.30
9676 2019-06-15 19:23:26 ESP12E-S1 23.80 23.69 55.60
9675 2019-06-15 18:55:10 ESP12E-S1 24.40 24.31 54.00
9674 2019-06-15 18:26:55 ESP12E-S1 24.90 24.88 55.00
9673 2019-06-15 17:58:38 ESP12E-S1 25.40 25.42 54.60
9672 2019-06-15 17:30:20 ESP12E-S1 25.50 25.56 55.60
9671 2019-06-15 17:02:00 ESP12E-S1 25.40 25.41 54.00
9670 2019-06-15 16:33:39 ESP12E-S1 25.00 25.06 57.50
9669 2019-06-15 16:05:31 ESP12E-S1 25.60 25.65 54.80
9668 2019-06-15 15:37:31 ESP12E-S1 27.10 27.69 52.80
9667 2019-06-15 15:08:54 ESP12E-S1 25.50 25.58 56.50
9666 2019-06-15 14:40:22 ESP12E-S1 23.70 23.69 60.00
9665 2019-06-15 14:12:14 ESP12E-S1 24.70 24.73 57.50
9664 2019-06-15 13:44:22 ESP12E-S1 27.10 27.71 53.10
9663 2019-06-15 13:15:56 ESP12E-S1 27.90 28.61 53.10
9662 2019-06-15 12:47:36 ESP12E-S1 24.80 24.95 61.70
9661 2019-06-15 12:19:22 ESP12E-S1 23.40 23.52 66.00
9660 2019-06-15 11:51:06 ESP12E-S1 23.00 23.15 68.60
9659 2019-06-15 11:22:47 ESP12E-S1 22.40 22.56 71.50
9658 2019-06-15 10:54:39 ESP12E-S1 22.50 22.74 74.10
9657 2019-06-15 10:26:13 ESP12E-S1 21.40 21.59 76.30
9656 2019-06-15 09:58:05 ESP12E-S1 20.90 21.27 85.20
9655 2019-06-15 09:29:43 ESP12E-S1 20.80 21.11 83.10
9654 2019-06-15 09:01:28 ESP12E-S1 19.70 20.05 89.10
9653 2019-06-15 08:33:00 ESP12E-S1 18.60 18.89 91.10
9652 2019-06-15 08:04:52 ESP12E-S1 18.20 18.47 91.80
9651 2019-06-15 07:36:25 ESP12E-S1 17.60 17.82 92.20
9650 2019-06-15 07:08:05 ESP12E-S1 17.20 17.39 92.60
9649 2019-06-15 06:39:46 ESP12E-S1 17.00 17.14 91.50
9648 2019-06-15 06:11:41 ESP12E-S1 17.00 17.12 90.60
9647 2019-06-15 05:43:19 ESP12E-S1 16.90 16.99 89.80
9646 2019-06-15 05:15:02 ESP12E-S1 17.00 16.99 85.70
9645 2019-06-15 04:46:45 ESP12E-S1 17.10 17.08 85.00
9644 2019-06-15 04:18:32 ESP12E-S1 17.20 17.20 85.10
9643 2019-06-15 03:50:16 ESP12E-S1 17.30 17.29 84.30
9642 2019-06-15 03:22:01 ESP12E-S1 17.70 17.68 82.70
9641 2019-06-15 02:53:45 ESP12E-S1 17.90 17.88 81.70
9640 2019-06-15 02:25:30 ESP12E-S1 18.10 18.06 80.30
9639 2019-06-15 01:57:12 ESP12E-S1 18.40 18.36 79.00
9638 2019-06-15 01:28:56 ESP12E-S1 18.50 18.52 80.90
9637 2019-06-15 01:00:50 ESP12E-S1 18.60 18.64 81.50
9636 2019-06-15 00:32:29 ESP12E-S1 18.70 18.83 84.60
9635 2019-06-15 00:04:23 ESP12E-S1 18.70 18.84 84.90
9634 2019-06-14 23:36:03 ESP12E-S1 18.80 18.95 84.90
9633 2019-06-14 23:07:46 ESP12E-S1 18.90 19.00 82.60
9632 2019-06-14 22:39:29 ESP12E-S1 19.20 19.26 80.00
9631 2019-06-14 22:11:16 ESP12E-S1 19.60 19.64 77.50
9630 2019-06-14 21:42:59 ESP12E-S1 20.00 20.03 75.50
9629 2019-06-14 21:14:44 ESP12E-S1 20.50 20.52 73.50
9628 2019-06-14 20:46:39 ESP12E-S1 20.90 20.90 71.00
9627 2019-06-14 20:18:19 ESP12E-S1 21.10 21.09 70.00
9626 2019-06-14 19:50:14 ESP12E-S1 21.50 21.42 65.50
9625 2019-06-14 19:21:54 ESP12E-S1 21.80 21.75 65.60
9624 2019-06-14 18:53:49 ESP12E-S1 22.30 22.16 60.40
9623 2019-06-14 18:25:38 ESP12E-S1 22.80 22.64 57.50
9622 2019-06-14 17:57:31 ESP12E-S1 23.30 23.22 58.60
9621 2019-06-14 17:29:10 ESP12E-S1 23.70 23.66 58.90
9620 2019-06-14 17:00:53 ESP12E-S1 24.00 24.06 61.40
9619 2019-06-14 16:32:38 ESP12E-S1 24.50 24.60 61.00
9618 2019-06-14 16:04:21 ESP12E-S1 25.00 25.10 59.00
9617 2019-06-14 15:36:04 ESP12E-S1 25.20 25.24 56.10
9616 2019-06-14 15:07:43 ESP12E-S1 25.10 25.15 56.90
9615 2019-06-14 14:39:25 ESP12E-S1 25.20 25.34 59.80
9614 2019-06-14 14:11:09 ESP12E-S1 25.60 25.72 57.80
9613 2019-06-14 13:42:52 ESP12E-S1 26.30 27.07 56.00
9612 2019-06-14 13:14:34 ESP12E-S1 25.80 25.87 55.00
9611 2019-06-14 12:46:12 ESP12E-S1 25.20 25.29 58.20
9610 2019-06-14 12:17:57 ESP12E-S1 25.30 25.40 58.20
9609 2019-06-14 11:49:18 ESP12E-S1 22.90 22.90 63.50
9608 2019-06-14 11:21:02 ESP12E-S1 22.40 22.39 64.80
9607 2019-06-14 10:52:39 ESP12E-S1 21.10 21.02 67.20
9606 2019-06-14 10:24:22 ESP12E-S1 21.00 20.98 69.80
9605 2019-06-14 09:56:05 ESP12E-S1 21.00 20.93 68.00
9604 2019-06-14 09:27:57 ESP12E-S1 20.80 20.80 71.60
9603 2019-06-14 08:59:25 ESP12E-S1 19.20 19.11 74.00
9602 2019-06-14 08:31:10 ESP12E-S1 18.20 17.93 70.90
9601 2019-06-14 08:02:45 ESP12E-S1 17.30 16.95 71.30
9600 2019-06-14 07:34:24 ESP12E-S1 16.80 16.33 68.90
9599 2019-06-14 07:06:06 ESP12E-S1 16.50 15.94 66.50
9598 2019-06-14 06:37:47 ESP12E-S1 16.30 15.75 67.50
9597 2019-06-14 06:09:31 ESP12E-S1 16.20 15.56 64.70
9596 2019-06-14 05:41:14 ESP12E-S1 16.10 15.37 61.60
9595 2019-06-14 05:12:58 ESP12E-S1 16.10 15.31 59.10
9594 2019-06-14 04:44:41 ESP12E-S1 16.10 15.30 58.60
9593 2019-06-14 04:16:23 ESP12E-S1 16.30 15.48 57.40
9592 2019-06-14 03:48:05 ESP12E-S1 16.20 15.33 55.60
9591 2019-06-14 03:19:46 ESP12E-S1 15.90 15.11 60.00
9590 2019-06-14 02:51:31 ESP12E-S1 16.20 15.42 59.20
9589 2019-06-14 02:23:14 ESP12E-S1 16.50 15.72 58.10
9588 2019-06-14 01:54:58 ESP12E-S1 16.80 16.02 56.90
9587 2019-06-14 01:26:41 ESP12E-S1 17.10 16.30 54.90
9586 2019-06-14 00:58:24 ESP12E-S1 17.10 16.28 54.10
9585 2019-06-14 00:30:07 ESP12E-S1 17.20 16.37 53.40
9584 2019-06-14 00:01:49 ESP12E-S1 17.30 16.50 54.10
9583 2019-06-13 23:33:33 ESP12E-S1 17.50 16.68 52.70
9582 2019-06-13 23:05:19 ESP12E-S1 18.00 17.19 51.30
9581 2019-06-13 22:37:04 ESP12E-S1 18.50 17.75 51.40
9580 2019-06-13 22:08:49 ESP12E-S1 19.00 18.26 49.90
9579 2019-06-13 21:40:42 ESP12E-S1 19.70 19.04 50.40
9578 2019-06-13 21:12:25 ESP12E-S1 20.30 19.61 47.00
9577 2019-06-13 20:44:11 ESP12E-S1 21.10 20.44 45.10
9576 2019-06-13 20:15:55 ESP12E-S1 21.70 21.10 44.80
9575 2019-06-13 19:47:40 ESP12E-S1 22.10 21.46 42.00
9574 2019-06-13 19:19:24 ESP12E-S1 22.60 22.00 41.70
9573 2019-06-13 18:51:09 ESP12E-S1 23.00 22.44 41.60
9572 2019-06-13 18:22:53 ESP12E-S1 23.50 22.99 41.60
9571 2019-06-13 17:54:39 ESP12E-S1 24.40 24.02 43.00
9570 2019-06-13 17:26:21 ESP12E-S1 24.40 24.07 44.80
9569 2019-06-13 16:58:07 ESP12E-S1 25.00 24.66 42.20
9568 2019-06-13 16:29:44 ESP12E-S1 24.90 24.71 48.60
9567 2019-06-13 16:01:35 ESP12E-S1 25.50 25.32 46.60
9566 2019-06-13 15:33:23 ESP12E-S1 27.30 27.41 45.40
9565 2019-06-13 15:05:18 ESP12E-S1 28.00 28.13 46.20
9564 2019-06-13 14:36:38 ESP12E-S1 27.10 27.30 46.50
9563 2019-06-13 14:08:27 ESP12E-S1 26.30 26.64 46.30
9562 2019-06-13 13:40:04 ESP12E-S1 28.90 29.03 45.50
9561 2019-06-13 13:11:55 ESP12E-S1 29.60 29.82 45.10
9560 2019-06-13 12:43:09 ESP12E-S1 26.00 25.96 50.10
9559 2019-06-13 12:14:48 ESP12E-S1 24.60 24.47 52.00
9558 2019-06-13 11:46:23 ESP12E-S1 23.80 23.68 55.40
9557 2019-06-13 11:18:05 ESP12E-S1 23.10 22.96 57.10
9556 2019-06-13 10:49:36 ESP12E-S1 21.70 21.58 63.30
9555 2019-06-13 10:21:06 ESP12E-S1 20.10 19.99 69.90
9554 2019-06-13 09:52:38 ESP12E-S1 18.40 18.19 72.70
9553 2019-06-13 09:24:09 ESP12E-S1 17.00 16.88 81.30
9552 2019-06-13 08:55:41 ESP12E-S1 15.60 15.45 85.50
9551 2019-06-13 08:27:37 ESP12E-S1 15.20 15.16 91.30
9550 2019-06-13 07:59:10 ESP12E-S1 14.80 14.78 93.60
9549 2019-06-13 07:30:51 ESP12E-S1 14.40 14.38 95.30
9548 2019-06-13 07:02:31 ESP12E-S1 14.00 13.98 96.60
9547 2019-06-13 06:34:12 ESP12E-S1 13.80 13.75 96.40
9546 2019-06-13 06:05:54 ESP12E-S1 13.60 13.52 96.00
9545 2019-06-13 05:37:39 ESP12E-S1 13.90 13.84 95.60
9544 2019-06-13 05:09:23 ESP12E-S1 14.00 13.94 95.30
9543 2019-06-13 04:41:04 ESP12E-S1 14.00 13.93 94.60
9542 2019-06-13 04:12:47 ESP12E-S1 14.00 13.92 94.40
9541 2019-06-13 03:44:28 ESP12E-S1 13.90 13.80 94.10
9540 2019-06-13 03:16:10 ESP12E-S1 13.60 13.46 93.60
9539 2019-06-13 02:47:54 ESP12E-S1 13.60 13.42 91.90
9538 2019-06-13 02:19:36 ESP12E-S1 13.90 13.72 90.90
9537 2019-06-13 01:51:20 ESP12E-S1 14.10 13.95 91.20
9536 2019-06-13 01:23:03 ESP12E-S1 14.20 14.06 91.40
9535 2019-06-13 00:54:47 ESP12E-S1 14.40 14.27 91.10
9534 2019-06-13 00:26:32 ESP12E-S1 14.60 14.49 90.80
9533 2019-06-12 23:58:14 ESP12E-S1 14.90 14.80 90.10
9532 2019-06-12 23:29:59 ESP12E-S1 15.00 14.86 88.30
9531 2019-06-12 23:01:45 ESP12E-S1 15.40 15.24 85.80
9530 2019-06-12 22:33:28 ESP12E-S1 15.70 15.52 84.00
9529 2019-06-12 22:05:13 ESP12E-S1 16.20 16.02 82.00
9528 2019-06-12 21:36:58 ESP12E-S1 16.60 16.33 77.20
9527 2019-06-12 21:08:44 ESP12E-S1 17.40 17.11 73.50
9526 2019-06-12 20:40:27 ESP12E-S1 18.10 17.67 65.10
9525 2019-06-12 20:12:11 ESP12E-S1 18.40 17.95 63.40
9524 2019-06-12 19:43:54 ESP12E-S1 18.70 18.29 63.60
9523 2019-06-12 19:15:37 ESP12E-S1 19.00 18.61 63.20
9522 2019-06-12 18:47:26 ESP12E-S1 19.60 19.21 61.00
9521 2019-06-12 18:19:07 ESP12E-S1 19.60 19.22 61.40
9520 2019-06-12 17:50:52 ESP12E-S1 20.20 19.96 64.70
9519 2019-06-12 17:22:35 ESP12E-S1 19.90 19.69 66.80
9518 2019-06-12 16:54:17 ESP12E-S1 20.40 20.31 69.50
9517 2019-06-12 16:26:00 ESP12E-S1 20.40 20.32 69.80
9516 2019-06-12 15:57:45 ESP12E-S1 20.60 20.52 69.30
9515 2019-06-12 15:29:36 ESP12E-S1 21.80 21.88 70.80
9514 2019-06-12 15:01:16 ESP12E-S1 21.60 21.75 74.00
9513 2019-06-12 14:32:44 ESP12E-S1 20.80 21.11 83.40
9512 2019-06-12 14:04:31 ESP12E-S1 20.10 20.48 88.80
9511 2019-06-12 13:36:01 ESP12E-S1 16.60 16.84 96.80
9510 2019-06-12 13:07:38 ESP12E-S1 15.80 16.00 98.30
9509 2019-06-12 12:39:21 ESP12E-S1 15.40 15.57 98.50
9508 2019-06-12 12:11:03 ESP12E-S1 15.40 15.57 98.50
9507 2019-06-12 11:42:47 ESP12E-S1 15.80 16.04 99.90
9506 2019-06-12 11:14:32 ESP12E-S1 16.30 16.59 99.90
9505 2019-06-12 10:46:18 ESP12E-S1 16.90 17.25 99.90
9504 2019-06-12 10:18:02 ESP12E-S1 17.10 17.47 99.90
9503 2019-06-12 09:49:44 ESP12E-S1 17.20 17.58 99.90
9502 2019-06-12 09:21:28 ESP12E-S1 17.30 17.67 99.00
9501 2019-06-12 08:53:08 ESP12E-S1 17.10 17.46 99.30
9500 2019-06-12 08:24:50 ESP12E-S1 17.00 17.35 99.20
9499 2019-06-12 07:56:32 ESP12E-S1 16.90 17.24 99.40
9498 2019-06-12 07:28:14 ESP12E-S1 16.80 17.13 99.50
9497 2019-06-12 06:59:55 ESP12E-S1 16.80 17.14 99.80
9496 2019-06-12 06:31:37 ESP12E-S1 16.60 16.92 99.60
9495 2019-06-12 06:03:19 ESP12E-S1 16.70 17.01 99.00
9494 2019-06-12 05:35:02 ESP12E-S1 16.90 17.22 98.70
9493 2019-06-12 05:06:45 ESP12E-S1 17.00 17.32 98.20
9492 2019-06-12 04:38:26 ESP12E-S1 17.10 17.43 98.20
9491 2019-06-12 04:10:10 ESP12E-S1 17.00 17.30 97.50
9490 2019-06-12 03:41:53 ESP12E-S1 17.00 17.30 97.40
9489 2019-06-12 03:13:36 ESP12E-S1 17.00 17.27 96.30
9488 2019-06-12 02:45:18 ESP12E-S1 16.90 17.15 96.00
9487 2019-06-12 02:17:00 ESP12E-S1 16.90 17.10 94.00
9486 2019-06-12 01:48:41 ESP12E-S1 16.90 17.08 93.20
9485 2019-06-12 01:20:25 ESP12E-S1 17.00 17.14 91.50
9484 2019-06-12 00:52:08 ESP12E-S1 17.10 17.25 91.40
9483 2019-06-12 00:23:51 ESP12E-S1 17.10 17.26 91.70
9482 2019-06-11 23:55:35 ESP12E-S1 17.40 17.58 91.40
9481 2019-06-11 23:27:20 ESP12E-S1 17.70 17.90 90.80
9480 2019-06-11 22:59:03 ESP12E-S1 18.10 18.33 90.70
9479 2019-06-11 22:30:47 ESP12E-S1 18.20 18.44 90.50
9478 2019-06-11 22:02:31 ESP12E-S1 18.50 18.71 88.40
9477 2019-06-11 21:34:17 ESP12E-S1 18.90 19.20 90.30
9476 2019-06-11 21:06:02 ESP12E-S1 19.30 19.65 90.40
9475 2019-06-11 20:37:47 ESP12E-S1 19.60 19.82 84.50
9474 2019-06-11 20:09:31 ESP12E-S1 20.00 20.08 77.70
9473 2019-06-11 19:41:16 ESP12E-S1 20.50 20.71 80.50
9472 2019-06-11 19:12:57 ESP12E-S1 20.40 20.67 83.30
9471 2019-06-11 18:44:38 ESP12E-S1 20.10 20.41 85.80
9470 2019-06-11 18:16:17 ESP12E-S1 19.90 20.16 85.00
9469 2019-06-11 17:47:59 ESP12E-S1 19.80 20.00 82.90
9468 2019-06-11 17:19:42 ESP12E-S1 20.00 20.14 79.80
9467 2019-06-11 16:51:26 ESP12E-S1 20.20 20.32 78.30
9466 2019-06-11 16:23:10 ESP12E-S1 20.60 20.74 77.50
9465 2019-06-11 15:54:52 ESP12E-S1 20.50 20.66 78.70
9464 2019-06-11 15:26:36 ESP12E-S1 20.90 21.10 78.70
9463 2019-06-11 14:58:31 ESP12E-S1 22.30 22.67 79.80
9462 2019-06-11 14:29:55 ESP12E-S1 19.30 19.66 90.80
9461 2019-06-11 14:01:34 ESP12E-S1 18.60 18.88 90.60
9460 2019-06-11 13:33:14 ESP12E-S1 18.30 18.57 91.30
9459 2019-06-11 13:05:00 ESP12E-S1 18.70 18.98 90.10
9458 2019-06-11 12:36:39 ESP12E-S1 18.30 18.59 92.20
9457 2019-06-11 12:08:18 ESP12E-S1 17.90 18.16 92.50
9456 2019-06-11 11:40:09 ESP12E-S1 17.90 18.16 92.30
9455 2019-06-11 11:11:51 ESP12E-S1 18.10 18.34 91.00
9454 2019-06-11 10:43:43 ESP12E-S1 19.00 19.31 90.00
9453 2019-06-11 10:15:25 ESP12E-S1 19.10 19.42 90.10
9452 2019-06-11 09:47:03 ESP12E-S1 19.00 19.35 91.60
9451 2019-06-11 09:18:30 ESP12E-S1 17.50 17.79 95.20
9450 2019-06-11 08:50:09 ESP12E-S1 16.80 17.06 96.70
9449 2019-06-11 08:21:48 ESP12E-S1 16.20 16.42 97.40
9448 2019-06-11 07:53:30 ESP12E-S1 16.00 16.18 96.50
9447 2019-06-11 07:25:12 ESP12E-S1 15.80 15.98 97.30
9446 2019-06-11 06:56:53 ESP12E-S1 15.50 15.67 98.10
9445 2019-06-11 06:28:38 ESP12E-S1 15.50 15.64 97.20
9444 2019-06-11 06:00:22 ESP12E-S1 15.70 15.91 99.10
9443 2019-06-11 05:32:06 ESP12E-S1 15.90 16.15 99.90
9442 2019-06-11 05:03:49 ESP12E-S1 16.00 16.26 99.90
9441 2019-06-11 04:35:33 ESP12E-S1 16.10 16.37 99.90
9440 2019-06-11 04:07:16 ESP12E-S1 16.30 16.55 98.20
9439 2019-06-11 03:39:00 ESP12E-S1 16.50 16.75 97.60
9438 2019-06-11 03:10:44 ESP12E-S1 16.80 17.08 97.30
9437 2019-06-11 02:42:29 ESP12E-S1 16.90 17.15 95.80
9436 2019-06-11 02:14:12 ESP12E-S1 17.10 17.36 95.50
9435 2019-06-11 01:45:55 ESP12E-S1 17.40 17.68 95.30
9434 2019-06-11 01:17:38 ESP12E-S1 17.40 17.66 94.40
9433 2019-06-11 00:49:21 ESP12E-S1 17.50 17.75 93.80
9432 2019-06-11 00:21:04 ESP12E-S1 17.60 17.84 92.90
9431 2019-06-10 23:52:47 ESP12E-S1 17.70 17.96 93.10
9430 2019-06-10 23:24:33 ESP12E-S1 17.90 18.15 92.20
9429 2019-06-10 22:56:17 ESP12E-S1 18.30 18.55 90.70
9428 2019-06-10 22:28:02 ESP12E-S1 18.50 18.70 87.80
9427 2019-06-10 21:59:45 ESP12E-S1 18.80 18.97 85.50
9426 2019-06-10 21:31:29 ESP12E-S1 19.10 19.28 84.70
9425 2019-06-10 21:03:13 ESP12E-S1 19.50 19.68 83.30
9424 2019-06-10 20:34:59 ESP12E-S1 19.90 20.13 83.80
9423 2019-06-10 20:06:43 ESP12E-S1 20.30 20.53 82.00
9422 2019-06-10 19:38:28 ESP12E-S1 20.60 20.75 78.10
9421 2019-06-10 19:10:11 ESP12E-S1 20.80 21.01 79.50
9420 2019-06-10 18:41:54 ESP12E-S1 21.00 21.25 80.10
9419 2019-06-10 18:13:39 ESP12E-S1 21.30 21.54 78.50
9418 2019-06-10 17:45:23 ESP12E-S1 21.60 21.71 72.70
9417 2019-06-10 17:17:07 ESP12E-S1 22.10 22.33 75.10
9416 2019-06-10 16:48:52 ESP12E-S1 22.20 22.30 69.80
9415 2019-06-10 16:20:39 ESP12E-S1 22.90 22.87 62.10
9414 2019-06-10 15:52:36 ESP12E-S1 23.80 23.76 58.40
9413 2019-06-10 15:24:17 ESP12E-S1 24.20 24.18 57.70
9412 2019-06-10 14:56:06 ESP12E-S1 25.00 24.99 55.10
9411 2019-06-10 14:27:56 ESP12E-S1 26.80 27.33 51.80
9410 2019-06-10 13:59:23 ESP12E-S1 24.40 24.39 57.30
9409 2019-06-10 13:31:23 ESP12E-S1 27.60 28.34 54.00
9408 2019-06-10 13:02:48 ESP12E-S1 25.80 25.98 59.30
9407 2019-06-10 12:34:12 ESP12E-S1 22.90 22.95 65.10
9406 2019-06-10 12:05:50 ESP12E-S1 21.60 21.55 66.60
9405 2019-06-10 11:37:51 ESP12E-S1 23.80 23.86 62.10
9404 2019-06-10 11:09:36 ESP12E-S1 24.00 24.09 62.70
9403 2019-06-10 10:41:10 ESP12E-S1 22.90 23.07 69.70
9402 2019-06-10 10:12:42 ESP12E-S1 20.90 21.06 77.00
9401 2019-06-10 09:44:16 ESP12E-S1 19.80 20.01 83.30
9400 2019-06-10 09:15:52 ESP12E-S1 18.70 18.94 88.60
9399 2019-06-10 08:47:32 ESP12E-S1 18.20 18.41 89.40
9398 2019-06-10 08:19:15 ESP12E-S1 18.20 18.44 90.40
9397 2019-06-10 07:50:55 ESP12E-S1 17.90 18.14 91.60
9396 2019-06-10 07:22:37 ESP12E-S1 17.60 17.82 92.20
9395 2019-06-10 06:54:19 ESP12E-S1 17.30 17.51 92.70
9394 2019-06-10 06:26:00 ESP12E-S1 17.10 17.28 92.50
9393 2019-06-10 05:57:44 ESP12E-S1 17.20 17.37 91.80
9392 2019-06-10 05:29:27 ESP12E-S1 17.30 17.44 90.30
9391 2019-06-10 05:01:10 ESP12E-S1 17.50 17.55 86.00
9390 2019-06-10 04:32:55 ESP12E-S1 17.70 17.69 82.80
9389 2019-06-10 04:04:39 ESP12E-S1 17.90 17.85 80.70
9388 2019-06-10 03:36:23 ESP12E-S1 18.10 17.97 76.90
9387 2019-06-10 03:08:07 ESP12E-S1 18.30 18.09 73.00
9386 2019-06-10 02:39:53 ESP12E-S1 18.80 18.50 67.70
9385 2019-06-10 02:11:37 ESP12E-S1 19.20 18.82 63.00
9384 2019-06-10 01:43:20 ESP12E-S1 19.50 19.04 58.90
9383 2019-06-10 01:15:05 ESP12E-S1 19.70 19.21 56.80
9382 2019-06-10 00:46:48 ESP12E-S1 19.90 19.44 57.10
9381 2019-06-10 00:18:31 ESP12E-S1 20.20 19.75 56.30
9380 2019-06-09 23:50:14 ESP12E-S1 20.20 19.73 55.90
9379 2019-06-09 23:21:59 ESP12E-S1 20.40 19.88 53.00
9378 2019-06-09 22:53:44 ESP12E-S1 20.90 20.41 52.10
9377 2019-06-09 22:25:29 ESP12E-S1 21.30 20.86 52.60
9376 2019-06-09 21:57:15 ESP12E-S1 21.70 21.29 52.20
9375 2019-06-09 21:29:00 ESP12E-S1 22.10 21.69 50.90
9374 2019-06-09 21:00:45 ESP12E-S1 22.30 21.91 50.90
9373 2019-06-09 20:32:29 ESP12E-S1 22.70 22.35 50.80
9372 2019-06-09 20:04:14 ESP12E-S1 23.20 22.87 49.40
9371 2019-06-09 19:35:58 ESP12E-S1 23.50 23.16 48.20
9370 2019-06-09 19:07:43 ESP12E-S1 24.00 23.68 47.00
9369 2019-06-09 18:39:27 ESP12E-S1 24.30 24.02 47.40
9368 2019-06-09 18:11:11 ESP12E-S1 24.90 24.65 46.00
9367 2019-06-09 17:42:55 ESP12E-S1 25.50 25.28 44.80
9366 2019-06-09 17:14:37 ESP12E-S1 25.70 25.50 44.80
9365 2019-06-09 16:46:22 ESP12E-S1 26.30 26.53 43.60
9364 2019-06-09 16:18:05 ESP12E-S1 26.40 26.60 43.60
9363 2019-06-09 15:49:50 ESP12E-S1 27.00 27.00 42.70
9362 2019-06-09 15:21:39 ESP12E-S1 28.10 27.88 41.80
9361 2019-06-09 14:53:36 ESP12E-S1 30.70 30.21 37.50
9360 2019-06-09 14:25:14 ESP12E-S1 29.10 28.66 39.50
9359 2019-06-09 13:56:54 ESP12E-S1 29.60 29.17 39.30
9358 2019-06-09 13:28:40 ESP12E-S1 31.10 30.81 38.40
9357 2019-06-09 12:59:54 ESP12E-S1 28.20 27.88 40.50
9356 2019-06-09 12:31:27 ESP12E-S1 25.00 24.70 44.00
9355 2019-06-09 12:03:08 ESP12E-S1 24.40 24.12 47.00
9354 2019-06-09 11:34:42 ESP12E-S1 23.70 23.43 50.00
9353 2019-06-09 11:06:14 ESP12E-S1 22.30 21.82 47.30
9352 2019-06-09 10:37:49 ESP12E-S1 21.60 21.20 52.90
9351 2019-06-09 10:09:19 ESP12E-S1 19.80 19.31 56.40
9350 2019-06-09 09:40:52 ESP12E-S1 18.00 17.46 61.30
9349 2019-06-09 09:12:23 ESP12E-S1 16.30 15.74 67.30
9348 2019-06-09 08:43:56 ESP12E-S1 14.70 14.15 73.70
9347 2019-06-09 08:15:31 ESP12E-S1 13.50 12.91 76.60
9346 2019-06-09 07:47:09 ESP12E-S1 12.70 12.10 79.30
9345 2019-06-09 07:18:51 ESP12E-S1 12.30 11.85 86.90
9344 2019-06-09 06:50:32 ESP12E-S1 11.80 11.23 84.00
9343 2019-06-09 06:22:13 ESP12E-S1 11.60 10.95 81.60
9342 2019-06-09 05:53:57 ESP12E-S1 11.40 10.73 81.60
9341 2019-06-09 05:25:40 ESP12E-S1 11.40 10.68 79.90
9340 2019-06-09 04:57:26 ESP12E-S1 11.80 11.06 77.40
9339 2019-06-09 04:29:10 ESP12E-S1 12.20 11.46 75.90
9338 2019-06-09 04:00:57 ESP12E-S1 12.30 11.56 75.70
9337 2019-06-09 03:32:41 ESP12E-S1 12.60 11.86 74.40
9336 2019-06-09 03:04:26 ESP12E-S1 12.50 11.74 74.20
9335 2019-06-09 02:36:10 ESP12E-S1 12.50 11.71 72.80
9334 2019-06-09 02:07:53 ESP12E-S1 12.70 11.88 71.20
9333 2019-06-09 01:39:38 ESP12E-S1 12.90 12.07 69.90
9332 2019-06-09 01:11:23 ESP12E-S1 13.30 12.44 67.10
9331 2019-06-09 00:43:08 ESP12E-S1 13.40 12.51 65.80
9330 2019-06-09 00:14:53 ESP12E-S1 13.70 12.84 65.50
9329 2019-06-08 23:46:37 ESP12E-S1 13.90 13.02 64.30
9328 2019-06-08 23:18:23 ESP12E-S1 14.20 13.32 62.90
9327 2019-06-08 22:50:10 ESP12E-S1 14.60 13.73 62.00
9326 2019-06-08 22:21:56 ESP12E-S1 15.30 14.44 59.50
9325 2019-06-08 21:53:42 ESP12E-S1 15.90 15.01 55.90
9324 2019-06-08 21:25:28 ESP12E-S1 16.60 15.74 54.60
9323 2019-06-08 20:57:14 ESP12E-S1 17.30 16.43 51.40
9322 2019-06-08 20:29:00 ESP12E-S1 17.60 16.72 49.80
9321 2019-06-08 20:00:46 ESP12E-S1 18.00 17.13 48.70
9320 2019-06-08 19:32:31 ESP12E-S1 18.40 17.56 48.30
9319 2019-06-08 19:04:18 ESP12E-S1 19.10 18.31 47.50
9318 2019-06-08 18:36:03 ESP12E-S1 19.40 18.60 46.30
9317 2019-06-08 18:07:45 ESP12E-S1 19.50 18.73 46.90
9316 2019-06-08 17:39:29 ESP12E-S1 19.40 18.60 46.30
9315 2019-06-08 17:11:26 ESP12E-S1 20.10 19.38 46.50
9314 2019-06-08 16:43:05 ESP12E-S1 20.10 19.40 47.20
9313 2019-06-08 16:14:52 ESP12E-S1 20.70 20.02 45.90
9312 2019-06-08 15:46:46 ESP12E-S1 22.10 21.49 42.90
9311 2019-06-08 15:18:29 ESP12E-S1 22.40 21.88 45.50
9310 2019-06-08 14:49:58 ESP12E-S1 22.20 21.73 48.10
9309 2019-06-08 14:21:35 ESP12E-S1 20.90 20.31 48.60
9308 2019-06-08 13:52:58 ESP12E-S1 17.80 17.04 53.90
9307 2019-06-08 13:24:36 ESP12E-S1 17.50 16.78 56.40
9306 2019-06-08 12:56:23 ESP12E-S1 17.00 16.24 56.80
9305 2019-06-08 12:28:06 ESP12E-S1 16.50 15.68 56.50
9304 2019-06-08 11:59:51 ESP12E-S1 16.50 15.69 56.80
9303 2019-06-08 11:31:31 ESP12E-S1 15.50 14.66 59.70
9302 2019-06-08 11:03:12 ESP12E-S1 15.50 14.69 60.60
9301 2019-06-08 10:34:49 ESP12E-S1 14.20 13.27 60.90
9300 2019-06-08 10:06:35 ESP12E-S1 14.30 13.36 60.30
9299 2019-06-08 09:38:13 ESP12E-S1 13.80 12.87 62.50
9298 2019-06-08 09:09:58 ESP12E-S1 13.80 12.84 61.40
9297 2019-06-08 08:41:43 ESP12E-S1 14.10 13.15 60.50
9296 2019-06-08 08:13:29 ESP12E-S1 13.80 12.81 60.20
9295 2019-06-08 07:45:07 ESP12E-S1 13.40 12.48 64.40
9294 2019-06-08 07:16:49 ESP12E-S1 13.20 12.24 63.70
9293 2019-06-08 06:48:32 ESP12E-S1 13.00 12.10 67.00
9292 2019-06-08 06:20:15 ESP12E-S1 13.00 12.12 67.40
9291 2019-06-08 05:52:02 ESP12E-S1 13.20 12.40 70.00
9290 2019-06-08 05:23:46 ESP12E-S1 13.30 12.49 69.30
9289 2019-06-08 04:55:31 ESP12E-S1 13.50 12.74 70.10
9288 2019-06-08 04:27:16 ESP12E-S1 13.70 13.06 74.00
9287 2019-06-08 03:59:01 ESP12E-S1 13.80 13.20 75.10
9286 2019-06-08 03:30:45 ESP12E-S1 13.90 13.34 76.20
9285 2019-06-08 03:02:30 ESP12E-S1 14.00 13.46 76.80
9284 2019-06-08 02:34:15 ESP12E-S1 14.20 13.66 76.00
9283 2019-06-08 02:05:58 ESP12E-S1 14.10 13.58 77.20
9282 2019-06-08 01:37:41 ESP12E-S1 14.10 13.57 76.90
9281 2019-06-08 01:09:30 ESP12E-S1 14.00 13.60 82.20
9280 2019-06-08 00:41:16 ESP12E-S1 14.30 14.01 85.30
9279 2019-06-08 00:13:02 ESP12E-S1 14.70 14.43 84.30
9278 2019-06-07 23:44:45 ESP12E-S1 14.60 14.32 84.50
9277 2019-06-07 23:16:29 ESP12E-S1 14.80 14.45 81.10
9276 2019-06-07 22:48:12 ESP12E-S1 15.00 14.61 78.80
9275 2019-06-07 22:19:54 ESP12E-S1 15.20 14.59 69.40
9274 2019-06-07 21:51:45 ESP12E-S1 15.50 14.89 68.30
9273 2019-06-07 21:23:30 ESP12E-S1 16.00 15.43 68.10
9272 2019-06-07 20:55:19 ESP12E-S1 17.00 16.53 67.80
9271 2019-06-07 20:27:15 ESP12E-S1 18.60 18.16 63.00
9270 2019-06-07 19:59:01 ESP12E-S1 19.70 19.40 64.20
9269 2019-06-07 19:31:02 ESP12E-S1 22.50 22.52 65.60
9268 2019-06-07 19:02:53 ESP12E-S1 23.50 23.68 67.90
9267 2019-06-07 18:34:39 ESP12E-S1 24.60 24.71 60.90
9266 2019-06-07 18:06:28 ESP12E-S1 25.10 25.21 59.10
9265 2019-06-07 17:38:17 ESP12E-S1 26.20 26.84 52.80
9264 2019-06-07 17:10:05 ESP12E-S1 27.20 27.62 50.10
9263 2019-06-07 16:41:48 ESP12E-S1 27.30 27.63 48.80
9262 2019-06-07 16:13:35 ESP12E-S1 28.00 28.45 50.00
9261 2019-06-07 15:45:29 ESP12E-S1 29.30 29.83 48.20
9260 2019-06-07 15:17:11 ESP12E-S1 29.50 30.04 47.80
9259 2019-06-07 14:48:59 ESP12E-S1 31.20 32.46 47.50
9258 2019-06-07 14:20:54 ESP12E-S1 30.30 31.00 46.90
9257 2019-06-07 13:52:37 ESP12E-S1 32.20 33.66 45.40
9256 2019-06-07 13:24:01 ESP12E-S1 30.80 31.99 48.40
9255 2019-06-07 12:55:13 ESP12E-S1 27.10 27.78 54.10
9254 2019-06-07 12:26:46 ESP12E-S1 23.90 23.89 59.10
9253 2019-06-07 11:58:26 ESP12E-S1 23.00 22.96 61.60
9252 2019-06-07 11:29:59 ESP12E-S1 21.50 21.45 66.70
9251 2019-06-07 11:01:28 ESP12E-S1 19.60 19.52 73.10
9250 2019-06-07 10:32:53 ESP12E-S1 17.30 17.12 77.80
9249 2019-06-07 10:04:28 ESP12E-S1 16.10 16.00 85.70
9248 2019-06-07 09:36:10 ESP12E-S1 15.80 15.71 87.00
9247 2019-06-07 09:07:46 ESP12E-S1 14.90 14.94 95.60
9246 2019-06-07 08:39:25 ESP12E-S1 14.10 13.94 90.80
9245 2019-06-07 08:11:03 ESP12E-S1 13.40 13.20 92.10
9244 2019-06-07 07:42:43 ESP12E-S1 13.00 12.80 93.80
9243 2019-06-07 07:14:26 ESP12E-S1 12.60 12.33 92.30
9242 2019-06-07 06:46:08 ESP12E-S1 12.40 12.10 92.20
9241 2019-06-07 06:17:50 ESP12E-S1 12.20 11.89 92.40
9240 2019-06-07 05:49:35 ESP12E-S1 12.30 12.04 93.90
9239 2019-06-07 05:21:19 ESP12E-S1 12.30 12.00 92.50
9238 2019-06-07 04:53:04 ESP12E-S1 12.20 11.82 89.70
9237 2019-06-07 04:24:48 ESP12E-S1 12.50 12.16 90.00
9236 2019-06-07 03:56:33 ESP12E-S1 12.80 12.50 90.50
9235 2019-06-07 03:28:18 ESP12E-S1 13.10 12.84 90.90
9234 2019-06-07 03:00:04 ESP12E-S1 13.60 13.40 91.20
9233 2019-06-07 02:31:50 ESP12E-S1 13.80 13.64 92.10
9232 2019-06-07 02:03:34 ESP12E-S1 13.90 13.74 91.70
9231 2019-06-07 01:35:18 ESP12E-S1 14.00 13.83 90.80
9230 2019-06-07 01:07:03 ESP12E-S1 14.00 13.82 90.50
9229 2019-06-07 00:38:44 ESP12E-S1 14.00 13.83 91.00
9228 2019-06-07 00:10:27 ESP12E-S1 14.00 13.81 90.20
9227 2019-06-06 23:42:12 ESP12E-S1 14.10 13.84 87.20
9226 2019-06-06 23:13:56 ESP12E-S1 14.10 13.88 88.80
9225 2019-06-06 22:45:39 ESP12E-S1 14.10 13.80 85.40
9224 2019-06-06 22:17:23 ESP12E-S1 14.10 13.66 80.40
9223 2019-06-06 21:49:10 ESP12E-S1 14.70 14.25 77.70
9222 2019-06-06 21:20:58 ESP12E-S1 15.30 14.92 78.10
9221 2019-06-06 20:52:43 ESP12E-S1 16.00 15.57 73.30
9220 2019-06-06 20:24:26 ESP12E-S1 16.30 15.89 72.80
9219 2019-06-06 19:56:10 ESP12E-S1 16.40 16.02 73.80
9218 2019-06-06 19:27:53 ESP12E-S1 16.40 16.00 72.90
9217 2019-06-06 18:59:39 ESP12E-S1 16.80 16.36 69.90
9216 2019-06-06 18:31:24 ESP12E-S1 17.20 16.56 60.50
9215 2019-06-06 18:03:11 ESP12E-S1 17.60 16.89 56.30
9214 2019-06-06 17:34:54 ESP12E-S1 17.70 17.00 56.50
9213 2019-06-06 17:06:35 ESP12E-S1 17.70 17.03 57.70
9212 2019-06-06 16:38:18 ESP12E-S1 17.50 16.83 58.20
9211 2019-06-06 16:10:03 ESP12E-S1 17.80 17.11 56.30
9210 2019-06-06 15:41:53 ESP12E-S1 18.90 18.29 55.50
9209 2019-06-06 15:13:23 ESP12E-S1 17.40 16.73 58.70
9208 2019-06-06 14:45:05 ESP12E-S1 17.10 16.39 58.40
9207 2019-06-06 14:16:49 ESP12E-S1 17.20 16.50 58.20
9206 2019-06-06 13:48:35 ESP12E-S1 17.80 17.13 57.30
9205 2019-06-06 13:20:17 ESP12E-S1 18.20 17.57 57.40
9204 2019-06-06 12:51:58 ESP12E-S1 17.20 16.51 58.60
9203 2019-06-06 12:23:45 ESP12E-S1 17.70 17.14 61.90
9202 2019-06-06 11:55:17 ESP12E-S1 16.10 15.48 65.80
9201 2019-06-06 11:26:57 ESP12E-S1 15.90 15.31 67.50
9200 2019-06-06 10:58:40 ESP12E-S1 15.80 15.23 68.90
9199 2019-06-06 10:30:28 ESP12E-S1 16.60 16.08 67.60
9198 2019-06-06 10:02:09 ESP12E-S1 16.60 16.11 68.90
9197 2019-06-06 09:33:47 ESP12E-S1 16.00 15.59 74.20
9196 2019-06-06 09:05:33 ESP12E-S1 16.20 15.84 75.40
9195 2019-06-06 08:37:17 ESP12E-S1 16.40 16.13 78.00
9194 2019-06-06 08:09:01 ESP12E-S1 16.80 16.54 76.80
9193 2019-06-06 07:40:45 ESP12E-S1 17.10 16.91 78.30
9192 2019-06-06 07:12:28 ESP12E-S1 17.40 17.37 83.30
9191 2019-06-06 06:44:14 ESP12E-S1 18.10 18.11 82.30
9190 2019-06-06 06:16:05 ESP12E-S1 19.20 19.32 82.10
9189 2019-06-06 02:22:20 ESP12E-S1 22.80 22.50 52.30
9188 2019-06-06 01:54:07 ESP12E-S1 23.50 23.24 51.20
9187 2019-06-06 01:25:54 ESP12E-S1 24.10 23.94 52.80
9186 2019-06-06 00:57:46 ESP12E-S1 24.30 24.16 52.70
9185 2019-06-06 00:29:26 ESP12E-S1 24.60 24.47 51.90
9184 2019-06-06 00:01:10 ESP12E-S1 24.80 24.67 51.20
9183 2019-06-05 23:32:54 ESP12E-S1 25.10 24.98 50.50
9182 2019-06-05 23:04:38 ESP12E-S1 25.50 25.42 50.50
9181 2019-06-05 22:36:20 ESP12E-S1 25.80 25.71 48.80
9180 2019-06-05 22:08:04 ESP12E-S1 26.10 26.03 48.30
9179 2019-06-05 21:39:48 ESP12E-S1 26.40 26.82 48.60
9178 2019-06-05 21:11:32 ESP12E-S1 26.80 27.19 49.20
9177 2019-06-05 20:43:17 ESP12E-S1 27.40 27.39 43.70
9176 2019-06-05 20:15:01 ESP12E-S1 27.90 27.80 43.20
9175 2019-06-05 19:46:46 ESP12E-S1 28.30 28.23 43.80
9174 2019-06-05 19:18:31 ESP12E-S1 28.80 28.77 44.00
9173 2019-06-05 18:50:15 ESP12E-S1 29.30 29.52 45.70
9172 2019-06-05 18:21:59 ESP12E-S1 29.70 30.14 46.60
9171 2019-06-05 17:53:43 ESP12E-S1 30.20 31.14 48.70
9170 2019-06-05 17:25:28 ESP12E-S1 30.70 31.45 46.10
9169 2019-06-05 16:57:15 ESP12E-S1 31.40 32.15 44.20
9168 2019-06-05 16:29:00 ESP12E-S1 32.00 32.94 43.50
9167 2019-06-05 16:00:45 ESP12E-S1 32.40 32.69 39.10
9166 2019-06-05 15:32:41 ESP12E-S1 34.60 35.21 35.10
9165 2019-06-05 15:04:36 ESP12E-S1 35.70 37.50 36.70
9164 2019-06-05 14:35:57 ESP12E-S1 35.10 36.20 35.80
9163 2019-06-05 14:07:58 ESP12E-S1 36.70 39.30 36.50
9162 2019-06-05 13:39:33 ESP12E-S1 37.10 42.35 42.20
9161 2019-06-05 13:10:40 ESP12E-S1 32.90 36.17 50.30
9160 2019-06-05 12:42:08 ESP12E-S1 29.90 30.92 50.10
9159 2019-06-05 12:13:41 ESP12E-S1 28.40 29.96 59.20
9158 2019-06-05 11:45:14 ESP12E-S1 27.20 28.44 61.30
9157 2019-06-05 11:17:01 ESP12E-S1 27.00 28.32 63.20
9156 2019-06-05 10:48:16 ESP12E-S1 24.10 24.43 71.50
9155 2019-06-05 10:19:42 ESP12E-S1 22.90 23.18 74.20
9154 2019-06-05 09:51:17 ESP12E-S1 22.80 22.97 70.10
9153 2019-06-05 09:23:02 ESP12E-S1 22.50 22.69 72.10
9152 2019-06-05 08:54:56 ESP12E-S1 22.60 22.73 69.50
9151 2019-06-05 08:26:41 ESP12E-S1 22.50 22.50 65.00
9150 2019-06-05 07:58:24 ESP12E-S1 21.50 21.42 65.50
9149 2019-06-05 07:30:20 ESP12E-S1 21.20 21.17 68.60
9148 2019-06-05 07:02:09 ESP12E-S1 20.90 20.82 67.90
9147 2019-06-05 06:34:00 ESP12E-S1 20.40 20.22 66.20
9146 2019-06-05 06:05:39 ESP12E-S1 20.70 20.49 63.70
9145 2019-06-05 05:37:21 ESP12E-S1 20.70 20.44 62.00
9144 2019-06-05 05:09:03 ESP12E-S1 20.40 20.14 62.80
9143 2019-06-05 04:40:46 ESP12E-S1 20.70 20.39 59.80
9142 2019-06-05 04:12:31 ESP12E-S1 21.10 20.83 60.00
9141 2019-06-05 03:44:15 ESP12E-S1 21.40 21.09 57.20
9140 2019-06-05 03:16:00 ESP12E-S1 21.90 21.67 58.40
9139 2019-06-05 02:47:44 ESP12E-S1 22.00 21.79 58.60
9138 2019-06-05 02:19:30 ESP12E-S1 22.40 22.28 60.70
9137 2019-06-05 01:51:14 ESP12E-S1 23.20 23.03 55.90
9136 2019-06-05 01:22:59 ESP12E-S1 23.70 23.49 52.40
9135 2019-06-05 00:54:45 ESP12E-S1 24.00 23.85 53.30
9134 2019-06-04 23:58:19 ESP12E-S1 24.10 24.07 57.70
9133 2019-06-04 23:30:06 ESP12E-S1 25.20 25.16 52.90
9132 2019-06-04 23:01:54 ESP12E-S1 25.70 25.62 49.60
9131 2019-06-04 22:33:38 ESP12E-S1 26.00 25.97 50.20
9130 2019-06-04 22:05:23 ESP12E-S1 26.40 26.89 50.10
9129 2019-06-04 21:37:07 ESP12E-S1 26.90 27.33 50.10
9128 2019-06-04 21:08:59 ESP12E-S1 27.60 27.87 48.10
9127 2019-06-04 20:40:46 ESP12E-S1 28.10 28.30 47.10
9126 2019-06-04 20:12:30 ESP12E-S1 28.60 28.86 47.20
9125 2019-06-04 19:44:15 ESP12E-S1 29.20 29.30 44.80
9124 2019-06-04 19:16:00 ESP12E-S1 29.70 29.62 42.40
9123 2019-06-04 18:47:45 ESP12E-S1 30.30 30.18 41.10
9122 2019-06-04 18:19:36 ESP12E-S1 30.80 30.94 42.00
9121 2019-06-04 17:51:19 ESP12E-S1 31.10 31.09 40.30
9120 2019-06-04 17:23:02 ESP12E-S1 31.50 31.76 41.10
9119 2019-06-04 16:54:48 ESP12E-S1 31.80 32.57 43.20
9118 2019-06-04 16:26:34 ESP12E-S1 32.40 33.47 43.00
9117 2019-06-04 15:58:24 ESP12E-S1 33.50 35.12 42.20
9116 2019-06-04 15:30:09 ESP12E-S1 34.30 36.14 40.70
9115 2019-06-04 15:02:06 ESP12E-S1 35.80 38.95 40.60
9114 2019-06-04 14:33:31 ESP12E-S1 35.60 38.72 41.10
9113 2019-06-04 14:05:28 ESP12E-S1 37.00 42.47 43.00
9112 2019-06-04 13:37:00 ESP12E-S1 36.50 42.38 45.50
9111 2019-06-04 13:08:22 ESP12E-S1 34.60 39.23 48.60
9110 2019-06-04 12:39:41 ESP12E-S1 30.60 32.87 54.70
9109 2019-06-04 12:11:20 ESP12E-S1 29.50 30.89 53.80
9108 2019-06-04 11:42:58 ESP12E-S1 28.50 29.75 56.30
9107 2019-06-04 11:14:29 ESP12E-S1 27.00 27.91 57.60
9106 2019-06-04 10:46:04 ESP12E-S1 25.70 26.00 64.30
9105 2019-06-04 10:17:32 ESP12E-S1 24.00 24.28 70.00
9104 2019-06-04 09:49:06 ESP12E-S1 22.60 22.89 75.50
9103 2019-06-04 09:20:37 ESP12E-S1 21.10 21.35 79.80
9102 2019-06-04 08:52:11 ESP12E-S1 19.80 20.05 85.00
9101 2019-06-04 08:23:48 ESP12E-S1 18.90 19.19 89.80
9100 2019-06-04 07:55:26 ESP12E-S1 18.20 18.52 93.60
9099 2019-06-04 07:27:06 ESP12E-S1 17.60 17.85 93.40
9098 2019-06-04 06:58:46 ESP12E-S1 17.20 17.42 93.70
9097 2019-06-04 06:30:28 ESP12E-S1 16.80 16.93 91.90
9096 2019-06-04 06:02:10 ESP12E-S1 16.70 16.78 90.20
9095 2019-06-04 05:33:58 ESP12E-S1 16.90 17.00 90.00
9094 2019-06-04 05:05:42 ESP12E-S1 17.40 17.45 86.50
9093 2019-06-04 04:37:25 ESP12E-S1 17.40 17.34 82.20
9092 2019-06-04 04:09:06 ESP12E-S1 17.40 17.39 84.10
9091 2019-06-04 03:40:50 ESP12E-S1 17.70 17.75 85.30
9090 2019-06-04 03:12:34 ESP12E-S1 17.80 17.89 86.30
9089 2019-06-04 02:44:17 ESP12E-S1 17.90 17.98 85.50
9088 2019-06-04 02:16:03 ESP12E-S1 18.30 18.38 84.20
9087 2019-06-04 01:47:47 ESP12E-S1 18.60 18.68 83.00
9086 2019-06-04 01:19:30 ESP12E-S1 18.70 18.75 81.20
9085 2019-06-04 00:51:15 ESP12E-S1 18.90 18.92 79.30
9084 2019-06-04 00:23:00 ESP12E-S1 19.40 19.39 76.50
9083 2019-06-03 23:54:44 ESP12E-S1 19.60 19.56 74.40
9082 2019-06-03 23:26:29 ESP12E-S1 19.90 19.83 72.00
9081 2019-06-03 22:58:13 ESP12E-S1 20.40 20.34 70.50
9080 2019-06-03 22:29:58 ESP12E-S1 20.90 20.90 71.00
9079 2019-06-03 22:01:54 ESP12E-S1 21.50 21.51 69.20
9078 2019-06-03 21:33:36 ESP12E-S1 22.00 22.00 66.70
9077 2019-06-03 21:05:21 ESP12E-S1 22.50 22.37 60.00
9076 2019-06-03 20:37:06 ESP12E-S1 23.20 23.03 55.60
9075 2019-06-03 20:08:51 ESP12E-S1 23.70 23.66 58.60
9074 2019-06-03 19:40:38 ESP12E-S1 24.20 24.23 59.40
9073 2019-06-03 19:12:24 ESP12E-S1 24.90 24.87 54.60
9072 2019-06-03 18:44:08 ESP12E-S1 25.40 25.43 54.90
9071 2019-06-03 18:15:49 ESP12E-S1 25.20 25.16 53.00
9070 2019-06-03 17:47:31 ESP12E-S1 25.10 25.07 53.70
9069 2019-06-03 17:19:09 ESP12E-S1 24.70 24.73 57.60
9068 2019-06-03 16:50:48 ESP12E-S1 24.00 24.16 65.20
9067 2019-06-03 16:22:35 ESP12E-S1 24.30 24.33 59.30
9066 2019-06-03 15:54:21 ESP12E-S1 25.20 25.11 51.20
9065 2019-06-03 15:26:12 ESP12E-S1 26.60 26.83 45.40
9064 2019-06-03 14:58:11 ESP12E-S1 28.90 28.66 41.70
9063 2019-06-03 14:30:17 ESP12E-S1 32.60 33.35 40.90
9062 2019-06-03 14:02:09 ESP12E-S1 36.20 39.26 39.20
9061 2019-06-03 13:33:49 ESP12E-S1 37.40 41.58 38.80
9060 2019-06-03 13:05:08 ESP12E-S1 34.00 36.12 42.60
9059 2019-06-03 12:36:35 ESP12E-S1 32.40 33.68 44.00
9058 2019-06-03 12:08:15 ESP12E-S1 31.50 32.57 45.60
9057 2019-06-03 11:39:53 ESP12E-S1 30.90 31.79 46.40
9056 2019-06-03 11:11:27 ESP12E-S1 29.50 30.07 48.10
9055 2019-06-03 10:43:00 ESP12E-S1 28.00 28.48 50.40
9054 2019-06-03 10:14:29 ESP12E-S1 26.20 26.91 54.70
9053 2019-06-03 09:46:02 ESP12E-S1 24.70 24.74 57.90
9052 2019-06-03 09:17:34 ESP12E-S1 23.40 23.35 59.50
9051 2019-06-03 08:49:07 ESP12E-S1 22.10 21.93 59.80
9050 2019-06-03 08:20:47 ESP12E-S1 21.40 21.16 60.00
9049 2019-06-03 07:52:32 ESP12E-S1 20.70 20.47 63.00
9048 2019-06-03 07:24:11 ESP12E-S1 20.40 20.23 66.60
9047 2019-06-03 06:55:52 ESP12E-S1 20.10 19.94 68.00
9046 2019-06-03 06:27:34 ESP12E-S1 19.90 19.62 64.20
9045 2019-06-03 05:59:17 ESP12E-S1 19.90 19.58 62.60
9044 2019-06-03 05:31:00 ESP12E-S1 20.00 19.65 61.20
9043 2019-06-03 05:02:43 ESP12E-S1 20.20 19.83 59.60
9042 2019-06-03 04:34:27 ESP12E-S1 20.50 20.14 58.60
9041 2019-06-03 04:06:11 ESP12E-S1 20.80 20.44 57.60
9040 2019-06-03 03:37:55 ESP12E-S1 21.10 20.75 57.00
9039 2019-06-03 03:09:39 ESP12E-S1 21.30 20.96 56.60
9038 2019-06-03 02:41:23 ESP12E-S1 21.60 21.27 55.90
9037 2019-06-03 02:13:07 ESP12E-S1 21.80 21.48 55.30
9036 2019-06-03 01:44:52 ESP12E-S1 22.20 21.88 53.80
9035 2019-06-03 01:16:35 ESP12E-S1 22.50 22.16 51.80
9034 2019-06-03 00:48:19 ESP12E-S1 22.80 22.46 50.70
9033 2019-06-03 00:20:04 ESP12E-S1 23.20 22.91 51.20
9032 2019-06-02 23:51:48 ESP12E-S1 23.50 23.23 50.80
9031 2019-06-02 23:23:34 ESP12E-S1 23.90 23.64 49.40
9030 2019-06-02 22:55:19 ESP12E-S1 24.40 24.14 47.80
9029 2019-06-02 22:27:05 ESP12E-S1 24.90 24.65 46.10
9028 2019-06-02 21:58:52 ESP12E-S1 25.40 25.17 45.00
9027 2019-06-02 21:30:38 ESP12E-S1 25.90 25.70 44.20
9026 2019-06-02 21:02:25 ESP12E-S1 26.80 26.94 44.60
9025 2019-06-02 20:34:11 ESP12E-S1 27.60 27.33 40.10
9024 2019-06-02 20:05:58 ESP12E-S1 28.30 27.79 38.00
9023 2019-06-02 20:05:58 ESP12E-S1 29.00 28.30 36.30
9022 2019-06-02 19:09:39 ESP12E-S1 29.60 28.76 34.90
9021 2019-06-02 18:41:24 ESP12E-S1 30.20 29.15 32.60
9020 2019-06-02 18:13:09 ESP12E-S1 30.50 29.36 31.50
9019 2019-06-02 17:44:54 ESP12E-S1 31.00 29.69 29.50
9018 2019-06-02 17:16:44 ESP12E-S1 31.60 30.37 30.00
9017 2019-06-02 16:48:38 ESP12E-S1 32.10 30.72 28.10
9016 2019-06-02 16:20:24 ESP12E-S1 32.80 31.85 30.70
9015 2019-06-02 15:52:21 ESP12E-S1 34.40 33.57 28.60
9014 2019-06-02 15:24:06 ESP12E-S1 35.40 34.83 28.00
9013 2019-06-02 14:56:10 ESP12E-S1 37.80 38.71 28.80
9012 2019-06-02 14:27:43 ESP12E-S1 37.30 38.16 29.70
9011 2019-06-02 13:59:36 ESP12E-S1 38.70 41.26 31.50
9010 2019-06-02 13:31:08 ESP12E-S1 38.40 41.80 34.30
9009 2019-06-02 13:02:28 ESP12E-S1 35.50 37.23 37.00
9008 2019-06-02 12:33:50 ESP12E-S1 31.50 31.53 39.70
9007 2019-06-02 12:05:29 ESP12E-S1 30.60 31.32 46.20
9006 2019-06-02 11:37:07 ESP12E-S1 29.60 30.46 49.90
9005 2019-06-02 11:08:40 ESP12E-S1 28.10 28.81 52.60
9004 2019-06-02 10:40:11 ESP12E-S1 26.40 27.14 55.40
9003 2019-06-02 10:11:39 ESP12E-S1 24.60 24.66 59.20
9002 2019-06-02 09:43:25 ESP12E-S1 23.20 23.14 60.10
9001 2019-06-02 09:14:55 ESP12E-S1 22.10 22.11 66.70
9000 2019-06-02 08:46:28 ESP12E-S1 20.60 20.75 77.80
8999 2019-06-02 08:18:05 ESP12E-S1 19.60 19.64 77.60
8998 2019-06-02 07:49:43 ESP12E-S1 18.90 18.84 76.20
8997 2019-06-02 07:21:23 ESP12E-S1 18.40 18.33 77.80
8996 2019-06-02 06:53:05 ESP12E-S1 18.20 18.11 77.80
8995 2019-06-02 06:24:48 ESP12E-S1 18.10 17.92 74.80
8994 2019-06-02 05:56:31 ESP12E-S1 18.30 18.07 72.00
8993 2019-06-02 05:28:14 ESP12E-S1 18.30 18.01 69.70
8992 2019-06-02 04:59:57 ESP12E-S1 18.40 18.08 68.50
8991 2019-06-02 04:31:41 ESP12E-S1 18.60 18.26 66.80
8990 2019-06-02 04:03:25 ESP12E-S1 18.90 18.53 64.60
8989 2019-06-02 03:35:10 ESP12E-S1 19.20 18.83 63.20
8988 2019-06-02 03:06:55 ESP12E-S1 19.40 19.04 62.80
8987 2019-06-02 02:38:37 ESP12E-S1 19.50 19.13 62.40
8986 2019-06-02 02:10:22 ESP12E-S1 19.70 19.35 62.10
8985 2019-06-02 01:42:07 ESP12E-S1 20.00 19.65 61.10
8984 2019-06-02 01:13:53 ESP12E-S1 20.20 19.83 59.50
8983 2019-06-02 00:45:41 ESP12E-S1 20.70 20.36 58.90
8982 2019-06-02 00:17:25 ESP12E-S1 21.00 20.68 58.50
8981 2019-06-01 23:49:10 ESP12E-S1 21.30 20.99 57.50
8980 2019-06-01 23:20:55 ESP12E-S1 21.70 21.40 56.60
8979 2019-06-01 22:52:40 ESP12E-S1 22.20 21.93 55.60
8978 2019-06-01 22:24:24 ESP12E-S1 22.50 22.24 54.90
8977 2019-06-01 21:56:09 ESP12E-S1 23.00 22.77 54.20
8976 2019-06-01 21:27:56 ESP12E-S1 23.70 23.53 53.90
8975 2019-06-01 20:59:42 ESP12E-S1 24.70 24.61 53.00
8974 2019-06-01 20:31:29 ESP12E-S1 25.70 25.60 49.00
8973 2019-06-01 20:03:14 ESP12E-S1 26.30 26.64 46.30
8972 2019-06-01 19:35:00 ESP12E-S1 26.80 26.99 45.40
8971 2019-06-01 19:06:46 ESP12E-S1 27.30 27.31 43.90
8970 2019-06-01 18:38:29 ESP12E-S1 27.80 27.68 42.80
8969 2019-06-01 18:10:13 ESP12E-S1 28.20 27.96 41.60
8968 2019-06-01 17:41:59 ESP12E-S1 28.80 28.55 41.70
8967 2019-06-01 17:13:43 ESP12E-S1 29.20 29.01 42.00
8966 2019-06-01 16:45:29 ESP12E-S1 30.00 29.64 39.60
8965 2019-06-01 16:17:15 ESP12E-S1 30.30 30.15 40.90
8964 2019-06-01 15:49:11 ESP12E-S1 32.00 32.26 39.90
8963 2019-06-01 15:20:48 ESP12E-S1 32.30 32.94 41.20
8962 2019-06-01 14:52:52 ESP12E-S1 34.40 36.24 40.40
8961 2019-06-01 14:24:32 ESP12E-S1 34.20 35.44 38.70
8960 2019-06-01 13:56:21 ESP12E-S1 35.70 38.22 39.00
8959 2019-06-01 13:27:51 ESP12E-S1 35.40 38.56 41.80
8958 2019-06-01 12:59:08 ESP12E-S1 32.10 33.32 44.60
8957 2019-06-01 12:30:30 ESP12E-S1 27.60 28.34 54.00
8956 2019-06-01 12:02:13 ESP12E-S1 26.60 27.37 56.00
8955 2019-06-01 11:33:55 ESP12E-S1 27.40 28.46 58.30
8954 2019-06-01 11:05:31 ESP12E-S1 25.80 26.85 64.40
8953 2019-06-01 10:37:02 ESP12E-S1 24.10 24.40 70.20
8952 2019-06-01 10:08:30 ESP12E-S1 22.30 22.71 81.40
8951 2019-06-01 09:40:04 ESP12E-S1 21.00 21.42 86.80
8950 2019-06-01 09:11:36 ESP12E-S1 19.60 20.00 91.20
8949 2019-06-01 08:43:14 ESP12E-S1 18.20 18.49 92.50
8948 2019-06-01 08:14:48 ESP12E-S1 17.20 17.37 91.80
8947 2019-06-01 07:46:26 ESP12E-S1 16.50 16.61 92.20
8946 2019-06-01 07:18:08 ESP12E-S1 16.10 16.19 92.80
8945 2019-06-01 06:49:49 ESP12E-S1 15.80 15.84 91.90
8944 2019-06-01 06:21:32 ESP12E-S1 15.80 15.81 91.10
8943 2019-06-01 05:53:16 ESP12E-S1 16.00 16.01 90.20
8942 2019-06-01 05:25:00 ESP12E-S1 16.10 16.09 88.90
8941 2019-06-01 04:56:44 ESP12E-S1 16.20 16.15 87.20
8940 2019-06-01 04:28:27 ESP12E-S1 16.30 16.23 86.10
8939 2019-06-01 04:00:10 ESP12E-S1 16.30 16.20 84.70
8938 2019-06-01 03:31:58 ESP12E-S1 16.60 16.44 81.40
8937 2019-06-01 03:03:41 ESP12E-S1 16.80 16.64 80.50
8936 2019-06-01 02:35:26 ESP12E-S1 17.00 16.82 78.90
8935 2019-06-01 02:07:11 ESP12E-S1 17.20 17.00 77.70
8934 2019-06-01 01:38:56 ESP12E-S1 17.40 17.19 76.20
8933 2019-06-01 01:10:41 ESP12E-S1 17.70 17.47 74.60
8932 2019-06-01 00:42:25 ESP12E-S1 18.00 17.74 72.20
8931 2019-06-01 00:14:10 ESP12E-S1 18.30 18.02 70.30
8930 2019-05-31 23:45:54 ESP12E-S1 18.60 18.29 68.10
8929 2019-05-31 23:17:41 ESP12E-S1 19.00 18.67 65.60
8928 2019-05-31 22:49:28 ESP12E-S1 19.50 19.18 64.20
8927 2019-05-31 22:21:14 ESP12E-S1 19.90 19.59 63.10
8926 2019-05-31 21:53:00 ESP12E-S1 20.40 20.12 62.30
8925 2019-05-31 21:24:54 ESP12E-S1 21.20 20.97 61.00
8924 2019-05-31 20:56:39 ESP12E-S1 22.10 21.91 59.20
8923 2019-05-31 20:28:27 ESP12E-S1 23.00 22.83 56.40
8922 2019-05-31 20:00:12 ESP12E-S1 23.40 23.21 54.10
8921 2019-05-31 19:31:55 ESP12E-S1 23.80 23.63 53.30
8920 2019-05-31 19:03:39 ESP12E-S1 24.10 23.99 54.40
8919 2019-05-31 18:35:21 ESP12E-S1 24.00 23.90 55.50
8918 2019-05-31 18:07:05 ESP12E-S1 24.30 24.18 53.30
8917 2019-05-31 17:38:50 ESP12E-S1 24.70 24.63 53.70
8916 2019-05-31 17:10:38 ESP12E-S1 25.50 25.43 50.90
8915 2019-05-31 16:42:25 ESP12E-S1 26.40 26.99 52.40
8914 2019-05-31 16:14:02 ESP12E-S1 26.40 27.02 53.00
8913 2019-05-31 15:45:39 ESP12E-S1 25.60 25.61 53.30
8912 2019-05-31 15:17:19 ESP12E-S1 25.20 25.19 54.00
8911 2019-05-31 14:48:59 ESP12E-S1 25.20 25.24 56.00
8910 2019-05-31 14:20:45 ESP12E-S1 25.00 24.99 55.00
8909 2019-05-31 13:52:39 ESP12E-S1 26.40 27.07 54.00
8908 2019-05-31 13:23:42 ESP12E-S1 24.50 24.52 58.00
8907 2019-05-31 12:55:32 ESP12E-S1 24.00 23.93 56.40
8906 2019-05-31 12:27:18 ESP12E-S1 24.60 24.72 61.60
8905 2019-05-31 11:59:10 ESP12E-S1 24.50 24.57 60.00
8904 2019-05-31 11:30:44 ESP12E-S1 22.40 22.42 65.90
8903 2019-05-31 11:02:25 ESP12E-S1 21.40 21.36 67.60
8902 2019-05-31 10:34:11 ESP12E-S1 21.10 21.12 71.20
8901 2019-05-31 10:05:54 ESP12E-S1 20.80 20.79 71.20
8900 2019-05-31 09:37:29 ESP12E-S1 19.80 19.86 77.50
8899 2019-05-31 09:08:59 ESP12E-S1 18.50 18.50 80.10
8898 2019-05-31 08:40:34 ESP12E-S1 17.20 17.27 87.90
8897 2019-05-31 08:12:11 ESP12E-S1 16.30 16.38 91.80
8896 2019-05-31 07:43:51 ESP12E-S1 15.90 15.99 93.80
8895 2019-05-31 07:15:31 ESP12E-S1 15.50 15.61 95.80
8894 2019-05-31 06:47:14 ESP12E-S1 15.40 15.49 95.60
8893 2019-05-31 06:18:56 ESP12E-S1 15.30 15.39 95.90
8892 2019-05-31 05:50:38 ESP12E-S1 15.10 15.17 95.90
8891 2019-05-31 05:22:22 ESP12E-S1 15.10 15.14 94.90
8890 2019-05-31 04:54:07 ESP12E-S1 15.40 15.48 95.00
8889 2019-05-31 04:25:52 ESP12E-S1 15.50 15.57 94.40
8888 2019-05-31 03:57:37 ESP12E-S1 15.70 15.77 93.80
8887 2019-05-31 03:29:18 ESP12E-S1 15.90 15.97 92.70
8886 2019-05-31 03:01:02 ESP12E-S1 16.10 16.17 92.20
8885 2019-05-31 02:32:46 ESP12E-S1 16.10 16.18 92.30
8884 2019-05-31 02:04:30 ESP12E-S1 16.30 16.38 91.70
8883 2019-05-31 01:36:14 ESP12E-S1 16.50 16.58 90.90
8882 2019-05-31 01:07:59 ESP12E-S1 16.70 16.74 88.80
8881 2019-05-31 00:39:41 ESP12E-S1 16.80 16.86 89.00
8880 2019-05-31 00:11:25 ESP12E-S1 16.90 16.95 88.10
8879 2019-05-30 23:43:09 ESP12E-S1 17.20 17.19 85.00
8878 2019-05-30 23:14:52 ESP12E-S1 17.40 17.37 83.30
8877 2019-05-30 22:46:36 ESP12E-S1 17.60 17.51 80.40
8876 2019-05-30 22:18:19 ESP12E-S1 17.80 17.68 78.30
8875 2019-05-30 21:50:02 ESP12E-S1 18.00 17.85 76.40
8874 2019-05-30 21:21:50 ESP12E-S1 18.30 18.14 74.70
8873 2019-05-30 20:53:35 ESP12E-S1 18.70 18.44 69.50
8872 2019-05-30 20:25:20 ESP12E-S1 19.20 18.91 66.30
8871 2019-05-30 19:57:05 ESP12E-S1 19.70 19.37 62.90
8870 2019-05-30 19:28:49 ESP12E-S1 19.90 19.54 61.20
8869 2019-05-30 19:00:39 ESP12E-S1 20.40 20.04 59.30
8868 2019-05-30 18:32:24 ESP12E-S1 20.50 20.13 58.20
8867 2019-05-30 18:04:07 ESP12E-S1 20.80 20.42 57.00
8866 2019-05-30 17:35:48 ESP12E-S1 20.60 20.19 56.60
8865 2019-05-30 17:07:40 ESP12E-S1 21.20 20.82 55.20
8864 2019-05-30 16:39:25 ESP12E-S1 21.90 21.54 53.40
8863 2019-05-30 16:11:09 ESP12E-S1 22.20 21.87 53.50
8862 2019-05-30 15:42:54 ESP12E-S1 22.60 22.31 53.40
8861 2019-05-30 15:14:28 ESP12E-S1 22.10 21.78 54.20
8860 2019-05-30 14:46:13 ESP12E-S1 20.90 20.40 52.00
8859 2019-05-30 14:17:54 ESP12E-S1 19.90 19.39 55.20
8858 2019-05-30 13:49:34 ESP12E-S1 20.10 19.58 54.30
8857 2019-05-30 13:21:18 ESP12E-S1 20.20 19.75 56.40
8856 2019-05-30 12:52:59 ESP12E-S1 19.30 18.80 58.10
8855 2019-05-30 12:24:39 ESP12E-S1 18.90 18.47 62.40
8854 2019-05-30 11:56:17 ESP12E-S1 18.40 17.94 63.00
8853 2019-05-30 11:28:00 ESP12E-S1 18.20 17.78 65.20
8852 2019-05-30 10:59:42 ESP12E-S1 18.10 17.68 65.70
8851 2019-05-30 10:31:27 ESP12E-S1 17.80 17.46 69.80
8850 2019-05-30 10:03:03 ESP12E-S1 16.90 16.49 70.80
8849 2019-05-30 09:34:42 ESP12E-S1 16.00 15.63 75.60
8848 2019-05-30 09:06:19 ESP12E-S1 15.30 14.98 80.30
8847 2019-05-30 08:37:59 ESP12E-S1 14.50 14.07 79.00
8846 2019-05-30 08:09:37 ESP12E-S1 13.70 13.28 82.70
8845 2019-05-30 07:41:18 ESP12E-S1 13.20 12.83 86.30
8844 2019-05-30 07:12:57 ESP12E-S1 12.50 12.17 90.40
8843 2019-05-30 06:44:37 ESP12E-S1 11.90 11.50 90.10
8842 2019-05-30 06:16:20 ESP12E-S1 11.50 11.03 89.20
8841 2019-05-30 05:48:05 ESP12E-S1 11.60 11.09 87.20
8840 2019-05-30 05:19:50 ESP12E-S1 11.80 11.28 85.90
8839 2019-05-30 04:51:34 ESP12E-S1 11.90 11.37 85.10
8838 2019-05-30 04:23:19 ESP12E-S1 12.20 11.68 84.30
8837 2019-05-30 03:55:05 ESP12E-S1 12.60 12.07 82.70
8836 2019-05-30 03:26:49 ESP12E-S1 12.80 12.29 82.50
8835 2019-05-30 02:58:32 ESP12E-S1 12.80 12.20 79.00
8834 2019-05-30 02:30:17 ESP12E-S1 12.80 12.17 77.90
8833 2019-05-30 02:02:00 ESP12E-S1 12.80 12.14 76.80
8832 2019-05-30 01:33:44 ESP12E-S1 12.80 12.09 74.80
8831 2019-05-30 01:05:30 ESP12E-S1 13.10 12.36 72.50
8830 2019-05-30 00:37:16 ESP12E-S1 13.30 12.52 70.30
8829 2019-05-30 00:09:01 ESP12E-S1 13.60 12.78 67.70
8828 2019-05-29 23:40:47 ESP12E-S1 14.30 13.45 63.70
8827 2019-05-29 23:12:33 ESP12E-S1 14.40 13.49 61.00
8826 2019-05-29 22:44:19 ESP12E-S1 15.10 14.20 58.60
8825 2019-05-29 22:16:00 ESP12E-S1 14.40 13.42 58.40
8824 2019-05-29 21:47:47 ESP12E-S1 15.00 14.04 56.80
8823 2019-05-29 21:19:35 ESP12E-S1 15.90 14.98 55.00
8822 2019-05-29 20:51:25 ESP12E-S1 16.90 15.95 50.00
8821 2019-05-29 20:23:12 ESP12E-S1 17.80 16.89 48.00
8820 2019-05-29 19:54:58 ESP12E-S1 18.20 17.27 45.70
8819 2019-05-29 19:26:42 ESP12E-S1 18.70 17.81 45.40
8818 2019-05-29 18:58:26 ESP12E-S1 19.10 18.20 43.40
8817 2019-05-29 18:30:12 ESP12E-S1 19.50 18.65 43.90
8816 2019-05-29 18:02:01 ESP12E-S1 20.40 19.62 43.20
8815 2019-05-29 17:33:51 ESP12E-S1 20.90 20.19 43.80
8814 2019-05-29 17:05:37 ESP12E-S1 21.00 20.28 43.00
8813 2019-05-29 16:37:21 ESP12E-S1 22.00 21.44 45.20
8812 2019-05-29 16:09:04 ESP12E-S1 21.60 20.95 43.50
8811 2019-05-29 15:40:47 ESP12E-S1 21.00 20.29 43.30
8810 2019-05-29 15:12:49 ESP12E-S1 23.20 22.70 43.00
8809 2019-05-29 14:44:06 ESP12E-S1 22.90 22.42 45.10
8808 2019-05-29 14:16:08 ESP12E-S1 23.30 22.86 45.10
8807 2019-05-29 13:47:10 ESP12E-S1 21.20 20.62 47.70
8806 2019-05-29 13:19:29 ESP12E-S1 24.90 24.55 42.20
8805 2019-05-29 12:50:47 ESP12E-S1 22.10 21.61 47.70
8804 2019-05-29 12:22:13 ESP12E-S1 19.50 18.85 51.50
8803 2019-05-29 11:53:38 ESP12E-S1 17.80 17.05 54.30
8802 2019-05-29 11:25:29 ESP12E-S1 18.60 17.93 54.30
8801 2019-05-29 10:57:15 ESP12E-S1 19.70 19.20 56.30
8800 2019-05-29 10:28:32 ESP12E-S1 16.80 16.13 61.00
8799 2019-05-29 10:00:05 ESP12E-S1 15.70 15.00 64.20
8798 2019-05-29 09:31:46 ESP12E-S1 15.00 14.20 62.80
8797 2019-05-29 09:03:21 ESP12E-S1 14.60 13.80 64.60
8796 2019-05-29 08:34:59 ESP12E-S1 13.40 12.66 71.30
8795 2019-05-29 08:06:37 ESP12E-S1 13.00 12.29 74.20
8794 2019-05-29 07:38:19 ESP12E-S1 12.50 11.75 74.30
8793 2019-05-29 07:10:01 ESP12E-S1 12.40 11.69 76.50
8792 2019-05-29 06:41:42 ESP12E-S1 11.80 11.11 79.60
8791 2019-05-29 06:13:25 ESP12E-S1 11.80 11.13 80.20
8790 2019-05-29 05:45:08 ESP12E-S1 11.80 11.14 80.50
8789 2019-05-29 05:16:53 ESP12E-S1 12.00 11.39 81.80
8788 2019-05-29 04:48:37 ESP12E-S1 12.10 11.47 80.50
8787 2019-05-29 04:20:20 ESP12E-S1 12.10 11.53 82.90
8786 2019-05-29 03:52:04 ESP12E-S1 12.30 11.79 84.60
8785 2019-05-29 03:23:48 ESP12E-S1 12.40 11.91 84.70
8784 2019-05-29 02:55:32 ESP12E-S1 12.50 12.07 86.60
8783 2019-05-29 02:27:16 ESP12E-S1 12.50 12.06 86.40
8782 2019-05-29 01:58:58 ESP12E-S1 12.40 11.91 84.80
8781 2019-05-29 01:30:43 ESP12E-S1 12.50 12.03 85.10
8780 2019-05-29 01:02:28 ESP12E-S1 12.80 12.33 84.20
8779 2019-05-29 00:34:13 ESP12E-S1 13.10 12.57 80.50
8778 2019-05-29 00:05:57 ESP12E-S1 13.40 12.85 78.70
8777 2019-05-28 23:37:42 ESP12E-S1 13.80 13.26 77.40
8776 2019-05-28 23:09:31 ESP12E-S1 13.90 13.36 77.10
8775 2019-05-28 22:41:15 ESP12E-S1 14.10 13.55 75.90
8774 2019-05-28 22:13:00 ESP12E-S1 14.40 13.83 74.10
8773 2019-05-28 21:44:45 ESP12E-S1 14.70 14.11 72.00
8772 2019-05-28 21:16:31 ESP12E-S1 15.10 14.46 68.80
8771 2019-05-28 20:48:17 ESP12E-S1 15.50 14.92 69.50
8770 2019-05-28 20:20:03 ESP12E-S1 16.00 15.42 67.60
8769 2019-05-28 19:51:50 ESP12E-S1 16.50 15.95 66.80
8768 2019-05-28 19:23:35 ESP12E-S1 16.80 16.26 66.10
8767 2019-05-28 18:55:19 ESP12E-S1 17.20 16.60 62.30
8766 2019-05-28 18:27:05 ESP12E-S1 17.60 17.04 62.10
8765 2019-05-28 17:58:48 ESP12E-S1 17.70 17.06 58.90
8764 2019-05-28 17:30:32 ESP12E-S1 18.00 17.45 61.20
8763 2019-05-28 17:02:14 ESP12E-S1 18.00 17.47 61.70
8762 2019-05-28 16:33:57 ESP12E-S1 17.90 17.40 63.30
8761 2019-05-28 16:05:45 ESP12E-S1 18.20 17.76 64.40
8760 2019-05-28 15:37:31 ESP12E-S1 19.50 19.41 73.00
8759 2019-05-28 15:09:12 ESP12E-S1 19.00 18.86 73.10
8758 2019-05-28 14:41:02 ESP12E-S1 19.10 19.09 77.40
8757 2019-05-28 14:12:58 ESP12E-S1 21.70 21.47 59.30
8756 2019-05-28 13:44:23 ESP12E-S1 18.90 18.74 72.60
8755 2019-05-28 13:15:55 ESP12E-S1 17.60 17.45 77.80
8754 2019-05-28 12:47:46 ESP12E-S1 19.40 19.32 73.60
8753 2019-05-28 12:19:23 ESP12E-S1 17.80 17.85 84.80
8752 2019-05-28 11:50:55 ESP12E-S1 15.90 15.91 90.40
8751 2019-05-28 11:22:37 ESP12E-S1 15.60 15.49 87.20
8750 2019-05-28 10:54:14 ESP12E-S1 14.80 14.77 93.30
8749 2019-05-28 10:25:54 ESP12E-S1 14.10 14.03 94.30
8748 2019-05-28 09:57:35 ESP12E-S1 13.70 13.73 99.60
8747 2019-05-28 09:29:18 ESP12E-S1 13.40 13.40 99.90
8746 2019-05-28 09:01:00 ESP12E-S1 13.20 13.18 99.80
8745 2019-05-28 08:32:43 ESP12E-S1 13.30 13.28 99.30
8744 2019-05-28 08:04:28 ESP12E-S1 13.40 13.38 99.00
8743 2019-05-28 07:36:09 ESP12E-S1 13.40 13.38 99.10
8742 2019-05-28 07:07:54 ESP12E-S1 13.40 13.35 98.00
8741 2019-05-28 06:39:37 ESP12E-S1 13.40 13.32 96.60
8740 2019-05-28 06:11:20 ESP12E-S1 13.50 13.35 93.50
8739 2019-05-28 05:43:09 ESP12E-S1 13.40 13.21 92.50
8738 2019-05-28 05:14:51 ESP12E-S1 13.30 13.12 93.30
8737 2019-05-28 04:46:35 ESP12E-S1 13.30 13.14 94.10
8736 2019-05-28 04:18:18 ESP12E-S1 13.30 13.19 96.00
8735 2019-05-28 03:50:02 ESP12E-S1 13.30 13.20 96.30
8734 2019-05-28 03:21:46 ESP12E-S1 13.30 13.19 95.90
8733 2019-05-28 02:53:30 ESP12E-S1 13.40 13.28 95.00
8732 2019-05-28 02:25:14 ESP12E-S1 13.40 13.26 94.30
8731 2019-05-28 01:56:58 ESP12E-S1 13.20 13.01 93.30
8730 2019-05-28 01:28:41 ESP12E-S1 13.20 12.99 92.60
8729 2019-05-28 01:00:25 ESP12E-S1 13.40 13.21 92.60
8728 2019-05-28 00:32:08 ESP12E-S1 13.50 13.31 92.00
8727 2019-05-28 00:03:53 ESP12E-S1 13.60 13.42 91.90
8726 2019-05-27 23:35:38 ESP12E-S1 13.90 13.74 91.70
8725 2019-05-27 23:07:25 ESP12E-S1 14.30 14.19 92.10
8724 2019-05-27 22:39:09 ESP12E-S1 14.80 14.70 90.70
8723 2019-05-27 22:10:56 ESP12E-S1 15.10 15.04 90.80
8722 2019-05-27 21:42:40 ESP12E-S1 15.40 15.37 91.10
8721 2019-05-27 21:14:28 ESP12E-S1 16.00 16.04 91.30
8720 2019-05-27 20:46:14 ESP12E-S1 16.60 16.61 88.00
8719 2019-05-27 20:17:58 ESP12E-S1 17.00 17.12 90.40
8718 2019-05-27 19:49:43 ESP12E-S1 17.20 17.29 88.60
8717 2019-05-27 19:21:27 ESP12E-S1 17.30 17.32 85.40
8716 2019-05-27 18:53:11 ESP12E-S1 17.60 17.75 89.30
8715 2019-05-27 18:24:59 ESP12E-S1 18.30 18.20 77.10
8714 2019-05-27 17:56:47 ESP12E-S1 19.50 19.61 80.50
8713 2019-05-27 17:28:27 ESP12E-S1 19.30 19.46 83.40
8712 2019-05-27 17:00:09 ESP12E-S1 19.00 19.26 88.30
8711 2019-05-27 16:31:47 ESP12E-S1 18.20 18.43 90.20
8710 2019-05-27 16:03:31 ESP12E-S1 18.30 18.54 90.10
8709 2019-05-27 15:35:20 ESP12E-S1 19.30 19.48 84.20
8708 2019-05-27 15:06:58 ESP12E-S1 19.00 19.28 88.90
8707 2019-05-27 14:38:34 ESP12E-S1 18.20 18.46 91.20
8706 2019-05-27 14:10:21 ESP12E-S1 18.30 18.60 92.30
8705 2019-05-27 13:42:01 ESP12E-S1 17.20 17.46 95.30
8704 2019-05-27 13:13:47 ESP12E-S1 17.20 17.47 95.40
8703 2019-05-27 12:45:27 ESP12E-S1 17.00 17.24 95.30
8702 2019-05-27 12:17:21 ESP12E-S1 16.80 16.96 92.80
8701 2019-05-27 11:48:58 ESP12E-S1 16.60 16.69 91.10
8700 2019-05-27 11:20:43 ESP12E-S1 16.70 16.79 90.60
8699 2019-05-27 10:52:27 ESP12E-S1 17.00 17.04 87.50
8698 2019-05-27 10:24:22 ESP12E-S1 16.80 16.90 90.40
8697 2019-05-27 09:55:54 ESP12E-S1 16.10 16.17 92.20
8696 2019-05-27 09:27:36 ESP12E-S1 15.90 15.97 92.80
8695 2019-05-27 08:59:16 ESP12E-S1 15.50 15.55 93.60
8694 2019-05-27 08:30:57 ESP12E-S1 15.40 15.44 93.50
8693 2019-05-27 08:02:40 ESP12E-S1 15.20 15.21 93.20
8692 2019-05-27 07:34:23 ESP12E-S1 15.30 15.24 90.20
8691 2019-05-27 07:06:11 ESP12E-S1 15.30 15.03 82.00
8690 2019-05-27 06:37:53 ESP12E-S1 15.30 15.01 81.30
8689 2019-05-27 06:09:33 ESP12E-S1 15.00 14.66 80.60
8688 2019-05-27 05:41:18 ESP12E-S1 14.80 14.39 78.80
8687 2019-05-27 05:13:02 ESP12E-S1 15.10 14.65 75.90
8686 2019-05-27 04:44:46 ESP12E-S1 15.40 14.90 73.10
8685 2019-05-27 04:16:30 ESP12E-S1 15.60 15.07 71.20
8684 2019-05-27 03:48:15 ESP12E-S1 15.80 15.24 69.20
8683 2019-05-27 03:20:00 ESP12E-S1 16.20 15.60 66.20
8682 2019-05-27 02:51:45 ESP12E-S1 16.70 16.08 63.20
8681 2019-05-27 02:23:31 ESP12E-S1 17.00 16.37 61.70
8680 2019-05-27 01:55:14 ESP12E-S1 17.30 16.64 59.40
8679 2019-05-27 01:26:58 ESP12E-S1 17.30 16.61 58.40
8678 2019-05-27 00:58:40 ESP12E-S1 17.30 16.58 57.20
8677 2019-05-27 00:30:22 ESP12E-S1 17.20 16.46 57.00
8676 2019-05-27 00:02:05 ESP12E-S1 17.30 16.56 56.50
8675 2019-05-26 23:33:51 ESP12E-S1 17.60 16.88 56.00
8674 2019-05-26 23:05:36 ESP12E-S1 18.10 17.40 55.10
8673 2019-05-26 22:37:22 ESP12E-S1 18.70 18.00 52.80
8672 2019-05-26 22:09:09 ESP12E-S1 19.30 18.61 50.90
8671 2019-05-26 21:40:52 ESP12E-S1 19.80 19.12 49.20
8670 2019-05-26 21:12:39 ESP12E-S1 20.20 19.54 48.50
8669 2019-05-26 20:44:25 ESP12E-S1 20.80 20.19 47.90
8668 2019-05-26 20:16:11 ESP12E-S1 21.50 20.91 46.30
8667 2019-05-26 19:47:54 ESP12E-S1 21.70 21.06 43.50
8666 2019-05-26 19:19:39 ESP12E-S1 22.10 21.44 41.20
8665 2019-05-26 18:51:31 ESP12E-S1 22.70 22.06 39.80
8664 2019-05-26 18:23:14 ESP12E-S1 23.20 22.62 40.10
8663 2019-05-26 17:55:01 ESP12E-S1 23.70 23.09 36.80
8662 2019-05-26 17:26:46 ESP12E-S1 24.20 23.64 36.90
8661 2019-05-26 16:58:33 ESP12E-S1 24.60 24.07 36.60
8660 2019-05-26 16:30:16 ESP12E-S1 24.90 24.44 38.00
8659 2019-05-26 16:01:59 ESP12E-S1 25.00 24.57 39.00
8658 2019-05-26 15:33:41 ESP12E-S1 25.00 24.54 37.60
8657 2019-05-26 15:05:28 ESP12E-S1 25.30 24.91 39.20
8656 2019-05-26 14:37:06 ESP12E-S1 26.50 26.53 40.30
8655 2019-05-26 14:09:01 ESP12E-S1 26.70 26.66 40.30
8654 2019-05-26 13:40:54 ESP12E-S1 27.20 27.03 40.40
8653 2019-05-26 13:12:33 ESP12E-S1 27.60 27.38 40.90
8652 2019-05-26 12:43:49 ESP12E-S1 24.20 23.90 46.80
8651 2019-05-26 12:15:33 ESP12E-S1 22.80 22.40 48.30
8650 2019-05-26 11:47:08 ESP12E-S1 21.70 21.26 51.10
8649 2019-05-26 11:18:38 ESP12E-S1 19.90 19.38 55.10
8648 2019-05-26 10:50:19 ESP12E-S1 19.60 19.08 56.00
8647 2019-05-26 10:21:59 ESP12E-S1 19.00 18.46 57.70
8646 2019-05-26 09:53:38 ESP12E-S1 18.30 17.70 58.10
8645 2019-05-26 09:25:15 ESP12E-S1 17.40 16.75 59.70
8644 2019-05-26 08:56:53 ESP12E-S1 16.40 15.74 62.80
8643 2019-05-26 08:28:29 ESP12E-S1 15.00 14.39 70.40
8642 2019-05-26 08:00:08 ESP12E-S1 14.30 13.73 74.50
8641 2019-05-26 07:31:49 ESP12E-S1 13.80 13.24 76.80
8640 2019-05-26 07:03:32 ESP12E-S1 13.40 12.80 76.80
8639 2019-05-26 06:35:15 ESP12E-S1 12.90 12.21 75.30
8638 2019-05-26 06:06:59 ESP12E-S1 12.80 12.04 73.00
8637 2019-05-26 05:38:44 ESP12E-S1 13.10 12.32 71.00
8636 2019-05-26 05:10:29 ESP12E-S1 13.30 12.50 69.40
8635 2019-05-26 04:42:13 ESP12E-S1 13.40 12.59 68.90
8634 2019-05-26 04:14:01 ESP12E-S1 13.80 12.99 67.30
8633 2019-05-26 03:45:45 ESP12E-S1 13.90 13.06 65.50
8632 2019-05-26 03:17:32 ESP12E-S1 14.10 13.21 62.80
8631 2019-05-26 02:49:16 ESP12E-S1 14.30 13.39 61.40
8630 2019-05-26 02:21:01 ESP12E-S1 14.50 13.57 60.10
8629 2019-05-26 01:52:50 ESP12E-S1 15.20 14.31 58.80
8628 2019-05-26 01:24:35 ESP12E-S1 15.60 14.71 57.40
8627 2019-05-26 00:56:22 ESP12E-S1 16.00 15.13 56.40
8626 2019-05-26 00:28:08 ESP12E-S1 16.60 15.75 55.00
8625 2019-05-25 23:59:53 ESP12E-S1 17.10 16.24 52.60
8624 2019-05-25 23:31:38 ESP12E-S1 17.70 16.88 51.90
8623 2019-05-25 23:03:23 ESP12E-S1 18.20 17.39 50.30
8622 2019-05-25 22:35:11 ESP12E-S1 18.40 17.63 51.20
8621 2019-05-25 22:06:59 ESP12E-S1 18.70 17.92 49.60
8620 2019-05-25 21:38:43 ESP12E-S1 19.20 18.43 48.20
8619 2019-05-25 21:10:30 ESP12E-S1 19.90 19.18 47.10
8618 2019-05-25 20:42:15 ESP12E-S1 20.50 19.74 43.40
8617 2019-05-25 20:14:09 ESP12E-S1 21.30 20.58 42.10
8616 2019-05-25 19:45:48 ESP12E-S1 21.50 20.81 42.30
8615 2019-05-25 19:17:34 ESP12E-S1 21.70 21.01 41.60
8614 2019-05-25 18:49:18 ESP12E-S1 22.40 21.77 41.20
8613 2019-05-25 18:21:02 ESP12E-S1 22.80 22.21 41.00
8612 2019-05-25 17:52:46 ESP12E-S1 23.30 22.75 40.80
8611 2019-05-25 17:24:30 ESP12E-S1 23.70 23.17 40.00
8610 2019-05-25 16:56:14 ESP12E-S1 24.10 23.62 40.40
8609 2019-05-25 16:27:59 ESP12E-S1 24.60 24.20 41.60
8608 2019-05-25 15:59:47 ESP12E-S1 25.30 24.90 38.90
8607 2019-05-25 15:31:29 ESP12E-S1 26.20 25.85 37.40
8606 2019-05-25 15:03:15 ESP12E-S1 25.90 25.47 35.50
8605 2019-05-25 14:34:48 ESP12E-S1 25.30 24.92 39.80
8604 2019-05-25 14:06:38 ESP12E-S1 25.10 24.67 38.50
8603 2019-05-25 13:38:21 ESP12E-S1 24.80 24.35 38.90
8602 2019-05-25 13:10:14 ESP12E-S1 26.00 25.65 38.00
8601 2019-05-25 12:42:07 ESP12E-S1 25.00 24.68 43.10
8600 2019-05-25 12:13:51 ESP12E-S1 23.60 23.07 40.50
8599 2019-05-25 11:45:46 ESP12E-S1 23.50 22.95 39.90
8598 2019-05-25 11:17:19 ESP12E-S1 23.70 23.20 41.30
8597 2019-05-25 10:49:10 ESP12E-S1 22.10 21.53 44.70
8596 2019-05-25 10:20:29 ESP12E-S1 20.10 19.43 48.50
8595 2019-05-25 09:52:24 ESP12E-S1 19.00 18.37 54.20
8594 2019-05-25 09:23:56 ESP12E-S1 18.40 17.82 58.20
8593 2019-05-25 08:55:28 ESP12E-S1 17.00 16.38 62.40
8592 2019-05-25 08:27:06 ESP12E-S1 15.80 15.24 69.30
8591 2019-05-25 07:58:48 ESP12E-S1 15.80 15.21 68.10
8590 2019-05-25 07:30:28 ESP12E-S1 15.40 14.94 74.60
8589 2019-05-25 07:02:27 ESP12E-S1 15.00 14.63 79.50
8588 2019-05-25 06:34:13 ESP12E-S1 14.80 14.45 81.10
8587 2019-05-25 06:05:53 ESP12E-S1 15.00 14.64 79.80
8586 2019-05-25 05:37:36 ESP12E-S1 15.10 14.85 83.60
8585 2019-05-25 05:09:40 ESP12E-S1 15.40 15.21 84.80
8584 2019-05-25 04:41:37 ESP12E-S1 15.70 15.48 82.60
8583 2019-05-25 04:13:14 ESP12E-S1 16.30 15.98 76.30
8582 2019-05-25 03:45:16 ESP12E-S1 16.50 16.11 73.00
8581 2019-05-25 03:16:51 ESP12E-S1 16.40 16.04 74.40
8580 2019-05-25 02:48:36 ESP12E-S1 16.80 16.45 73.20
8579 2019-05-25 02:20:22 ESP12E-S1 17.40 16.90 65.20
8578 2019-05-25 01:52:05 ESP12E-S1 17.80 17.18 59.20
8577 2019-05-25 01:23:53 ESP12E-S1 18.20 17.55 56.60
8576 2019-05-25 00:55:55 ESP12E-S1 18.60 17.87 51.90
8575 2019-05-25 00:27:40 ESP12E-S1 18.70 17.94 50.40
8574 2019-05-24 23:59:40 ESP12E-S1 18.70 17.93 49.90
8573 2019-05-24 23:31:28 ESP12E-S1 18.90 18.13 49.10
8572 2019-05-24 23:03:33 ESP12E-S1 19.00 18.22 48.30
8571 2019-05-24 22:35:04 ESP12E-S1 19.00 18.21 48.00
8570 2019-05-24 22:06:48 ESP12E-S1 19.00 18.24 49.20
8569 2019-05-24 21:39:00 ESP12E-S1 19.30 18.55 48.40
8568 2019-05-24 21:10:55 ESP12E-S1 20.20 19.58 49.90
8567 2019-05-24 20:42:35 ESP12E-S1 21.40 20.91 50.30
8566 2019-05-24 20:14:22 ESP12E-S1 22.30 21.84 48.20
8565 2019-05-24 19:46:13 ESP12E-S1 22.60 22.14 46.80
8564 2019-05-24 19:17:55 ESP12E-S1 22.90 22.40 44.30
8563 2019-05-24 18:49:41 ESP12E-S1 23.50 23.04 43.40
8562 2019-05-24 18:21:27 ESP12E-S1 23.80 23.36 43.20
8561 2019-05-24 17:53:09 ESP12E-S1 24.10 23.64 41.20
8560 2019-05-24 17:24:52 ESP12E-S1 24.50 24.10 42.00
8559 2019-05-24 16:28:31 ESP12E-S1 25.50 25.20 42.10
8558 2019-05-24 16:00:11 ESP12E-S1 25.10 24.74 41.30
8557 2019-05-24 15:32:19 ESP12E-S1 25.20 24.84 40.90
8556 2019-05-24 15:04:02 ESP12E-S1 26.60 26.55 39.30
8555 2019-05-24 14:35:50 ESP12E-S1 27.40 27.09 38.60
8554 2019-05-24 14:07:40 ESP12E-S1 28.90 28.41 38.90
8553 2019-05-24 13:39:51 ESP12E-S1 29.90 29.53 39.60
8552 2019-05-24 13:11:40 ESP12E-S1 29.70 29.42 40.70
8551 2019-05-24 12:42:52 ESP12E-S1 26.00 25.82 44.50
8550 2019-05-24 12:14:31 ESP12E-S1 24.90 24.63 45.40
8549 2019-05-24 11:46:10 ESP12E-S1 24.50 24.28 48.80
8548 2019-05-24 11:17:42 ESP12E-S1 22.70 22.35 50.80
8547 2019-05-24 10:49:16 ESP12E-S1 21.50 21.17 56.20
8546 2019-05-24 10:20:46 ESP12E-S1 19.70 19.38 63.40
8545 2019-05-24 09:52:17 ESP12E-S1 18.10 17.80 70.10
8544 2019-05-24 09:24:06 ESP12E-S1 16.60 16.42 80.50
8543 2019-05-24 08:55:54 ESP12E-S1 15.80 15.56 81.40
8542 2019-05-24 08:27:44 ESP12E-S1 14.90 14.60 82.50
8541 2019-05-24 07:59:36 ESP12E-S1 14.20 13.88 84.30
8540 2019-05-24 07:31:35 ESP12E-S1 14.00 13.67 84.80
8539 2019-05-24 07:03:24 ESP12E-S1 13.50 13.23 89.20
8538 2019-05-24 06:34:59 ESP12E-S1 13.40 13.05 86.40
8537 2019-05-24 06:06:42 ESP12E-S1 13.40 12.97 83.20
8536 2019-05-24 05:38:25 ESP12E-S1 13.40 12.86 79.20
8535 2019-05-24 05:10:09 ESP12E-S1 13.60 12.99 75.60
8534 2019-05-24 04:41:53 ESP12E-S1 13.60 13.00 76.00
8533 2019-05-24 04:13:37 ESP12E-S1 13.50 12.87 75.30
8532 2019-05-24 03:45:20 ESP12E-S1 13.60 12.94 73.80
8531 2019-05-24 03:17:15 ESP12E-S1 13.80 13.12 72.00
8530 2019-05-24 02:49:06 ESP12E-S1 13.90 13.21 71.30
8529 2019-05-24 02:20:47 ESP12E-S1 14.00 13.31 70.90
8528 2019-05-24 01:52:43 ESP12E-S1 14.30 13.58 68.80
8527 2019-05-24 01:24:43 ESP12E-S1 14.60 13.85 66.50
8526 2019-05-24 00:56:29 ESP12E-S1 14.80 14.02 64.40
8525 2019-05-24 00:28:10 ESP12E-S1 15.00 14.24 64.50
8524 2019-05-23 23:59:54 ESP12E-S1 15.20 14.39 61.80
8523 2019-05-23 23:31:37 ESP12E-S1 15.30 14.50 61.70
8522 2019-05-23 23:03:22 ESP12E-S1 15.70 14.96 62.60
8521 2019-05-23 22:35:09 ESP12E-S1 16.10 15.33 60.00
8520 2019-05-23 22:06:54 ESP12E-S1 16.60 15.87 59.40
8519 2019-05-23 21:38:52 ESP12E-S1 17.20 16.52 59.00
8518 2019-05-23 21:10:36 ESP12E-S1 18.00 17.36 57.60
8517 2019-05-23 20:42:24 ESP12E-S1 19.10 18.44 52.70
8516 2019-05-23 20:14:09 ESP12E-S1 19.70 19.04 50.30
8515 2019-05-23 19:45:55 ESP12E-S1 20.10 19.44 49.00
8514 2019-05-23 19:18:01 ESP12E-S1 20.80 20.15 46.70
8513 2019-05-23 18:49:38 ESP12E-S1 21.30 20.72 47.30
8512 2019-05-23 18:21:19 ESP12E-S1 21.30 20.73 47.50
8511 2019-05-23 17:53:02 ESP12E-S1 21.30 20.67 45.30
8510 2019-05-23 17:25:07 ESP12E-S1 22.00 21.43 45.00
8509 2019-05-23 16:56:46 ESP12E-S1 22.70 22.22 45.70
8508 2019-05-23 16:28:28 ESP12E-S1 22.50 21.98 44.90
8507 2019-05-23 16:00:13 ESP12E-S1 22.30 21.76 44.80
8506 2019-05-23 15:31:56 ESP12E-S1 22.60 22.15 47.20
8505 2019-05-23 15:04:05 ESP12E-S1 23.70 23.34 46.40
8504 2019-05-23 14:36:02 ESP12E-S1 23.20 22.81 47.40
8503 2019-05-23 14:08:02 ESP12E-S1 24.20 23.90 46.80
8502 2019-05-23 13:39:49 ESP12E-S1 26.60 26.78 44.30
8501 2019-05-23 13:11:27 ESP12E-S1 26.90 27.14 46.80
8500 2019-05-23 12:43:09 ESP12E-S1 23.50 23.21 49.90
8499 2019-05-23 12:14:49 ESP12E-S1 22.20 21.87 53.40
8498 2019-05-23 11:46:42 ESP12E-S1 21.50 21.20 57.20
8497 2019-05-23 11:18:31 ESP12E-S1 20.50 20.19 60.60
8496 2019-05-23 10:49:57 ESP12E-S1 19.00 18.73 67.80
8495 2019-05-23 10:21:27 ESP12E-S1 17.30 17.06 75.70
8494 2019-05-23 09:53:00 ESP12E-S1 16.00 15.74 79.80
8493 2019-05-23 09:24:34 ESP12E-S1 14.70 14.39 83.00
8492 2019-05-23 08:56:19 ESP12E-S1 13.40 13.15 90.10
8491 2019-05-23 08:27:52 ESP12E-S1 12.30 12.01 92.70
8490 2019-05-23 07:59:30 ESP12E-S1 11.60 11.30 95.10
8489 2019-05-23 07:31:12 ESP12E-S1 11.20 10.91 97.10
8488 2019-05-23 07:02:52 ESP12E-S1 10.80 10.45 96.30
8487 2019-05-23 06:34:34 ESP12E-S1 10.60 10.21 95.70
8486 2019-05-23 06:06:37 ESP12E-S1 10.50 10.08 94.70
8485 2019-05-23 05:38:32 ESP12E-S1 10.50 10.06 94.00
8484 2019-05-23 05:10:19 ESP12E-S1 10.40 9.94 93.80
8483 2019-05-23 04:42:11 ESP12E-S1 10.50 10.05 93.50
8482 2019-05-23 04:13:51 ESP12E-S1 10.80 10.35 92.60
8481 2019-05-23 03:45:36 ESP12E-S1 11.00 10.56 92.10
8480 2019-05-23 03:17:40 ESP12E-S1 11.10 10.66 91.60
8479 2019-05-23 02:49:15 ESP12E-S1 11.20 10.76 91.50
8478 2019-05-23 02:20:59 ESP12E-S1 11.30 10.86 91.00
8477 2019-05-23 01:52:42 ESP12E-S1 11.30 10.85 90.40
8476 2019-05-23 01:24:31 ESP12E-S1 11.50 11.05 89.70
8475 2019-05-23 00:56:14 ESP12E-S1 11.70 11.25 89.00
8474 2019-05-23 00:27:56 ESP12E-S1 11.80 11.35 88.60
8473 2019-05-22 23:59:42 ESP12E-S1 11.90 11.42 87.20
8472 2019-05-22 23:31:44 ESP12E-S1 12.10 11.62 86.30
8471 2019-05-22 23:03:40 ESP12E-S1 12.30 11.83 86.00
8470 2019-05-22 22:35:17 ESP12E-S1 12.60 12.11 84.00
8469 2019-05-22 22:07:20 ESP12E-S1 12.90 12.44 83.90
8468 2019-05-22 21:39:19 ESP12E-S1 13.40 12.98 83.50
8467 2019-05-22 21:11:25 ESP12E-S1 14.10 13.68 80.90
8466 2019-05-22 20:43:00 ESP12E-S1 15.00 14.57 77.00
8465 2019-05-22 20:14:46 ESP12E-S1 15.50 14.93 70.00
8464 2019-05-22 19:46:57 ESP12E-S1 16.00 15.40 66.70
8463 2019-05-22 19:18:57 ESP12E-S1 16.40 15.82 66.00
8462 2019-05-22 18:50:50 ESP12E-S1 16.80 16.21 64.10
8461 2019-05-22 18:22:27 ESP12E-S1 17.10 16.60 66.40
8460 2019-05-22 17:54:21 ESP12E-S1 17.20 16.74 67.60
8459 2019-05-22 17:26:02 ESP12E-S1 17.20 16.76 68.20
8458 2019-05-22 16:57:43 ESP12E-S1 17.20 16.83 71.00
8457 2019-05-22 16:29:27 ESP12E-S1 17.20 16.77 68.90
8456 2019-05-22 16:01:08 ESP12E-S1 17.20 16.87 72.40
8455 2019-05-22 15:32:47 ESP12E-S1 17.50 17.10 68.70
8454 2019-05-22 15:04:27 ESP12E-S1 16.50 16.21 76.80
8453 2019-05-22 14:36:04 ESP12E-S1 15.60 15.30 79.90
8452 2019-05-22 14:07:36 ESP12E-S1 14.10 13.91 89.90
8451 2019-05-22 13:39:33 ESP12E-S1 12.90 12.66 92.30
8450 2019-05-22 13:11:08 ESP12E-S1 12.80 12.55 92.30
8449 2019-05-22 12:42:50 ESP12E-S1 12.40 12.15 94.00
8448 2019-05-22 12:14:33 ESP12E-S1 12.40 12.17 94.80
8447 2019-05-22 11:46:18 ESP12E-S1 12.50 12.25 93.60
8446 2019-05-22 11:18:02 ESP12E-S1 12.40 12.17 94.70
8445 2019-05-22 10:49:43 ESP12E-S1 12.20 12.01 96.90
8444 2019-05-22 10:21:39 ESP12E-S1 12.40 12.25 97.70
8443 2019-05-22 09:53:28 ESP12E-S1 12.10 11.95 99.10
8442 2019-05-22 09:25:17 ESP12E-S1 11.80 11.64 99.90
8441 2019-05-22 08:56:57 ESP12E-S1 11.60 11.42 99.90
8440 2019-05-22 08:28:50 ESP12E-S1 11.40 11.20 99.90
8439 2019-05-22 08:00:29 ESP12E-S1 11.40 11.20 99.90
8438 2019-05-22 07:32:12 ESP12E-S1 11.40 11.20 99.90
8437 2019-05-22 07:03:54 ESP12E-S1 11.40 11.20 99.90
8436 2019-05-22 06:35:38 ESP12E-S1 11.40 11.20 99.90
8435 2019-05-22 06:07:22 ESP12E-S1 11.50 11.31 99.90
8434 2019-05-22 05:39:04 ESP12E-S1 11.50 11.31 99.90
8433 2019-05-22 05:10:48 ESP12E-S1 11.60 11.42 99.90
8432 2019-05-22 04:42:29 ESP12E-S1 11.60 11.42 99.90
8431 2019-05-22 04:14:14 ESP12E-S1 11.60 11.42 99.90
8430 2019-05-22 03:45:56 ESP12E-S1 11.70 11.53 99.90
8429 2019-05-22 03:17:39 ESP12E-S1 11.70 11.53 99.90
8428 2019-05-22 02:49:22 ESP12E-S1 11.70 11.53 99.90
8427 2019-05-22 02:21:05 ESP12E-S1 11.70 11.53 99.90
8426 2019-05-22 01:52:49 ESP12E-S1 11.70 11.53 99.90
8425 2019-05-22 01:24:34 ESP12E-S1 11.80 11.64 99.90
8424 2019-05-22 00:56:17 ESP12E-S1 11.90 11.75 99.90
8423 2019-05-22 00:28:14 ESP12E-S1 11.90 11.75 99.90
8422 2019-05-22 00:00:04 ESP12E-S1 11.90 11.75 99.90
8421 2019-05-21 23:32:10 ESP12E-S1 11.90 11.75 99.90
8420 2019-05-21 23:03:54 ESP12E-S1 12.00 11.86 99.90
8419 2019-05-21 22:35:45 ESP12E-S1 12.00 11.86 99.90
8418 2019-05-21 22:07:38 ESP12E-S1 12.10 11.97 99.90
8417 2019-05-21 21:39:18 ESP12E-S1 12.20 12.08 99.90
8416 2019-05-21 21:11:15 ESP12E-S1 12.30 12.19 99.90
8415 2019-05-21 20:43:03 ESP12E-S1 12.30 12.19 99.90
8414 2019-05-21 20:14:45 ESP12E-S1 12.40 12.30 99.90
8413 2019-05-21 19:46:28 ESP12E-S1 12.50 12.41 99.90
8412 2019-05-21 19:18:12 ESP12E-S1 12.60 12.52 99.90
8411 2019-05-21 18:49:58 ESP12E-S1 12.80 12.74 99.90
8410 2019-05-21 18:21:43 ESP12E-S1 13.00 12.96 99.90
8409 2019-05-21 17:53:53 ESP12E-S1 13.20 13.18 99.90
8408 2019-05-21 17:25:26 ESP12E-S1 13.50 13.50 99.30
8407 2019-05-21 16:57:09 ESP12E-S1 13.50 13.50 99.50
8406 2019-05-21 16:28:52 ESP12E-S1 13.60 13.60 99.10
8405 2019-05-21 16:00:37 ESP12E-S1 13.60 13.59 98.60
8404 2019-05-21 15:32:21 ESP12E-S1 13.80 13.80 98.10
8403 2019-05-21 15:04:09 ESP12E-S1 14.10 14.10 96.90
8402 2019-05-21 14:35:55 ESP12E-S1 14.50 14.52 96.30
8401 2019-05-21 14:07:51 ESP12E-S1 15.00 15.05 95.60
8400 2019-05-21 13:39:42 ESP12E-S1 14.90 14.97 96.50
8399 2019-05-21 13:11:21 ESP12E-S1 15.00 15.07 96.30
8398 2019-05-21 12:43:15 ESP12E-S1 15.00 15.09 97.10
8397 2019-05-21 12:15:12 ESP12E-S1 15.10 15.26 99.40
8396 2019-05-21 11:47:09 ESP12E-S1 14.30 14.39 99.90
8395 2019-05-21 11:18:38 ESP12E-S1 13.80 13.84 99.90
8394 2019-05-21 10:50:17 ESP12E-S1 13.20 13.18 99.90
8393 2019-05-21 10:21:57 ESP12E-S1 12.60 12.52 99.90
8392 2019-05-21 09:54:12 ESP12E-S1 12.70 12.63 99.90
8391 2019-05-21 09:25:39 ESP12E-S1 12.60 12.52 99.90
8390 2019-05-21 08:57:20 ESP12E-S1 12.30 12.19 99.90
8389 2019-05-21 08:29:02 ESP12E-S1 12.20 12.08 99.90
8388 2019-05-21 08:01:09 ESP12E-S1 12.20 12.08 99.90
8387 2019-05-21 07:33:03 ESP12E-S1 12.20 12.08 99.90
8386 2019-05-21 07:04:50 ESP12E-S1 12.30 12.19 99.90
8385 2019-05-21 06:36:29 ESP12E-S1 12.40 12.30 99.90
8384 2019-05-21 06:08:15 ESP12E-S1 12.50 12.41 99.90
8383 2019-05-21 05:40:00 ESP12E-S1 12.70 12.63 99.90
8382 2019-05-21 05:11:44 ESP12E-S1 12.80 12.74 99.90
8381 2019-05-21 04:43:28 ESP12E-S1 13.00 12.96 99.90
8380 2019-05-21 04:15:11 ESP12E-S1 13.00 12.96 99.90
8379 2019-05-21 03:46:55 ESP12E-S1 13.10 13.07 99.90
8378 2019-05-21 03:18:40 ESP12E-S1 13.20 13.18 99.90
8377 2019-05-21 02:50:23 ESP12E-S1 13.30 13.29 99.90
8376 2019-05-21 02:22:06 ESP12E-S1 13.30 13.29 99.90
8375 2019-05-21 01:54:01 ESP12E-S1 13.40 13.40 99.90
8374 2019-05-21 01:25:53 ESP12E-S1 13.50 13.51 99.90
8373 2019-05-21 00:57:32 ESP12E-S1 13.60 13.62 99.90
8372 2019-05-21 00:29:16 ESP12E-S1 13.80 13.84 99.70
8371 2019-05-21 00:00:59 ESP12E-S1 13.80 13.84 99.90
8370 2019-05-20 23:32:43 ESP12E-S1 13.90 13.93 98.80
8369 2019-05-20 23:04:26 ESP12E-S1 14.00 14.04 99.00
8368 2019-05-20 22:36:24 ESP12E-S1 14.10 14.13 98.30
8367 2019-05-20 22:08:03 ESP12E-S1 14.30 14.34 98.00
8366 2019-05-20 21:39:46 ESP12E-S1 14.40 14.43 97.10
8365 2019-05-20 21:11:30 ESP12E-S1 14.50 14.52 96.40
8364 2019-05-20 20:43:14 ESP12E-S1 14.70 14.70 94.70
8363 2019-05-20 20:14:57 ESP12E-S1 14.80 14.78 93.80
8362 2019-05-20 19:46:55 ESP12E-S1 15.20 15.21 93.10
8361 2019-05-20 19:18:56 ESP12E-S1 15.40 15.42 92.80
8360 2019-05-20 18:50:29 ESP12E-S1 15.40 15.42 92.80
8359 2019-05-20 18:22:13 ESP12E-S1 15.50 15.52 92.50
8358 2019-05-20 17:54:16 ESP12E-S1 15.50 15.53 93.00
8357 2019-05-20 17:26:11 ESP12E-S1 15.70 15.74 92.40
8356 2019-05-20 16:57:51 ESP12E-S1 15.90 15.95 91.90
8355 2019-05-20 16:29:36 ESP12E-S1 16.30 16.35 90.50
8354 2019-05-20 16:01:45 ESP12E-S1 16.50 16.57 90.50
8353 2019-05-20 15:33:39 ESP12E-S1 17.00 17.07 88.70
8352 2019-05-20 15:05:36 ESP12E-S1 17.40 17.45 86.50
8351 2019-05-20 14:37:33 ESP12E-S1 17.80 17.82 83.50
8350 2019-05-20 14:09:32 ESP12E-S1 18.40 18.38 79.90
8349 2019-05-20 13:41:29 ESP12E-S1 18.90 18.87 77.50
8348 2019-05-20 13:13:29 ESP12E-S1 19.80 19.78 74.40
8347 2019-05-20 12:45:19 ESP12E-S1 20.30 20.33 74.50
8346 2019-05-20 12:16:51 ESP12E-S1 18.70 18.66 78.10
8345 2019-05-20 11:48:31 ESP12E-S1 19.20 19.21 78.00
8344 2019-05-20 11:20:01 ESP12E-S1 17.50 17.53 85.30
8343 2019-05-20 10:51:38 ESP12E-S1 16.60 16.57 86.30
8342 2019-05-20 10:23:29 ESP12E-S1 17.10 17.10 85.50
8341 2019-05-20 09:55:18 ESP12E-S1 16.00 15.94 87.60
8340 2019-05-20 09:26:51 ESP12E-S1 15.30 15.24 90.30
8339 2019-05-20 08:58:30 ESP12E-S1 14.80 14.72 91.20
8338 2019-05-20 08:30:10 ESP12E-S1 14.30 14.19 92.00
8337 2019-05-20 08:01:55 ESP12E-S1 14.40 14.27 91.10
8336 2019-05-20 07:33:37 ESP12E-S1 14.50 14.37 90.70
8335 2019-05-20 07:05:17 ESP12E-S1 14.10 13.88 88.50
8334 2019-05-20 06:37:25 ESP12E-S1 13.90 13.68 89.50
8333 2019-05-20 06:09:16 ESP12E-S1 13.90 13.65 88.40
8332 2019-05-20 05:41:02 ESP12E-S1 13.80 13.50 86.60
8331 2019-05-20 05:12:42 ESP12E-S1 13.80 13.51 87.00
8330 2019-05-20 04:44:38 ESP12E-S1 14.00 13.72 86.60
8329 2019-05-20 04:16:20 ESP12E-S1 14.30 13.98 83.90
8328 2019-05-20 03:48:05 ESP12E-S1 14.70 14.34 80.80
8327 2019-05-20 03:19:48 ESP12E-S1 14.70 14.38 82.40
8326 2019-05-20 02:51:44 ESP12E-S1 14.50 14.25 85.90
8325 2019-05-20 02:23:25 ESP12E-S1 15.00 14.77 85.00
8324 2019-05-20 01:55:10 ESP12E-S1 15.30 15.08 84.00
8323 2019-05-20 01:26:53 ESP12E-S1 15.40 15.16 83.00
8322 2019-05-20 00:58:37 ESP12E-S1 15.70 15.42 80.30
8321 2019-05-20 00:30:39 ESP12E-S1 15.90 15.57 77.50
8320 2019-05-20 00:02:16 ESP12E-S1 15.90 15.63 79.90
8319 2019-05-19 23:34:00 ESP12E-S1 16.00 15.71 78.70
8318 2019-05-19 23:06:03 ESP12E-S1 15.90 15.64 80.20
8317 2019-05-19 22:37:42 ESP12E-S1 16.30 16.12 81.70
8316 2019-05-19 22:09:46 ESP12E-S1 16.80 16.64 80.50
8315 2019-05-19 21:41:22 ESP12E-S1 17.10 17.02 82.50
8314 2019-05-19 21:13:09 ESP12E-S1 17.80 17.73 80.40
8313 2019-05-19 20:45:14 ESP12E-S1 18.40 18.46 82.80
8312 2019-05-19 20:17:03 ESP12E-S1 19.10 19.26 84.20
8311 2019-05-19 19:49:10 ESP12E-S1 19.60 19.76 82.00
8310 2019-05-19 19:20:58 ESP12E-S1 19.30 19.23 74.50
8309 2019-05-19 18:52:58 ESP12E-S1 20.00 19.82 67.50
8308 2019-05-19 18:24:48 ESP12E-S1 22.30 22.03 55.40
8307 2019-05-19 17:56:39 ESP12E-S1 24.10 23.86 49.70
8306 2019-05-19 17:28:20 ESP12E-S1 24.30 24.09 49.80
8305 2019-05-19 17:00:06 ESP12E-S1 24.40 24.26 52.20
8304 2019-05-19 16:31:49 ESP12E-S1 24.40 24.20 50.10
8303 2019-05-19 16:03:33 ESP12E-S1 25.10 24.92 48.10
8302 2019-05-19 15:35:32 ESP12E-S1 25.20 25.13 51.90
8301 2019-05-19 15:07:03 ESP12E-S1 24.40 24.28 52.90
8300 2019-05-19 14:38:51 ESP12E-S1 25.60 25.55 51.10
8299 2019-05-19 14:10:16 ESP12E-S1 23.40 23.27 56.30
8298 2019-05-19 13:42:21 ESP12E-S1 23.50 23.40 57.20
8297 2019-05-19 13:13:57 ESP12E-S1 23.50 23.48 60.40
8296 2019-05-19 12:45:59 ESP12E-S1 24.20 24.27 60.90
8295 2019-05-19 12:17:44 ESP12E-S1 22.80 22.84 65.10
8294 2019-05-19 11:49:21 ESP12E-S1 22.20 22.21 66.50
8293 2019-05-19 11:20:55 ESP12E-S1 21.50 21.65 74.30
8292 2019-05-19 10:52:25 ESP12E-S1 19.40 19.63 85.40
8291 2019-05-19 10:23:55 ESP12E-S1 17.20 17.33 90.00
8290 2019-05-19 09:55:36 ESP12E-S1 16.90 17.03 91.20
8289 2019-05-19 09:27:18 ESP12E-S1 16.40 16.49 91.70
8288 2019-05-19 08:58:57 ESP12E-S1 15.70 15.75 92.70
8287 2019-05-19 08:30:36 ESP12E-S1 15.30 15.30 92.30
8286 2019-05-19 08:02:17 ESP12E-S1 14.80 14.79 94.10
8285 2019-05-19 07:34:17 ESP12E-S1 14.50 14.49 95.10
8284 2019-05-19 07:06:04 ESP12E-S1 14.40 14.34 93.70
8283 2019-05-19 06:37:42 ESP12E-S1 14.10 14.02 94.10
8282 2019-05-19 06:09:37 ESP12E-S1 14.00 13.89 93.30
8281 2019-05-19 05:41:17 ESP12E-S1 14.10 13.99 92.70
8280 2019-05-19 05:13:02 ESP12E-S1 14.30 14.17 91.50
8279 2019-05-19 04:44:58 ESP12E-S1 14.40 14.29 91.80
8278 2019-05-19 04:16:38 ESP12E-S1 14.50 14.39 91.30
8277 2019-05-19 03:48:33 ESP12E-S1 14.70 14.57 89.70
8276 2019-05-19 03:20:13 ESP12E-S1 14.90 14.80 90.10
8275 2019-05-19 02:51:56 ESP12E-S1 15.10 14.98 88.50
8274 2019-05-19 02:24:00 ESP12E-S1 15.00 14.94 91.30
8273 2019-05-19 01:55:55 ESP12E-S1 15.20 15.17 91.80
8272 2019-05-19 01:27:34 ESP12E-S1 15.60 15.61 91.70
8271 2019-05-19 00:59:19 ESP12E-S1 16.00 16.01 90.20
8270 2019-05-19 00:31:14 ESP12E-S1 16.10 15.94 83.10
8269 2019-05-19 00:02:53 ESP12E-S1 16.00 15.84 83.60
8268 2019-05-18 23:34:49 ESP12E-S1 16.30 16.17 83.70
8267 2019-05-18 23:06:31 ESP12E-S1 16.80 16.71 83.20
8266 2019-05-18 22:38:31 ESP12E-S1 17.40 17.10 72.80
8265 2019-05-18 22:10:17 ESP12E-S1 18.20 17.65 60.30
8264 2019-05-18 21:42:21 ESP12E-S1 18.70 18.17 59.00
8263 2019-05-18 21:14:02 ESP12E-S1 19.60 19.07 55.60
8262 2019-05-18 20:45:48 ESP12E-S1 20.20 19.71 55.10
8261 2019-05-18 20:17:34 ESP12E-S1 20.90 20.42 52.50
8260 2019-05-18 19:49:19 ESP12E-S1 21.50 20.93 47.00
8259 2019-05-18 19:21:23 ESP12E-S1 22.10 21.57 46.20
8258 2019-05-18 18:53:01 ESP12E-S1 22.30 21.85 48.60
8257 2019-05-18 18:24:45 ESP12E-S1 22.70 22.27 47.50
8256 2019-05-18 17:56:31 ESP12E-S1 23.20 22.78 46.30
8255 2019-05-18 17:28:38 ESP12E-S1 24.00 23.63 45.00
8254 2019-05-18 17:00:37 ESP12E-S1 24.90 24.51 40.90
8253 2019-05-18 16:32:11 ESP12E-S1 25.30 25.02 43.50
8252 2019-05-18 16:03:54 ESP12E-S1 25.50 25.26 44.30
8251 2019-05-18 15:35:39 ESP12E-S1 26.30 26.10 42.50
8250 2019-05-18 15:07:19 ESP12E-S1 26.10 25.92 44.40
8249 2019-05-18 14:39:23 ESP12E-S1 26.70 26.74 42.00
8248 2019-05-18 14:10:57 ESP12E-S1 27.20 27.12 41.90
8247 2019-05-18 13:42:39 ESP12E-S1 26.90 27.00 44.10
8246 2019-05-18 13:14:23 ESP12E-S1 26.20 25.98 42.30
8245 2019-05-18 12:45:46 ESP12E-S1 24.30 24.10 50.50
8244 2019-05-18 12:17:23 ESP12E-S1 22.40 22.05 51.90
8243 2019-05-18 11:49:03 ESP12E-S1 22.00 21.69 54.90
8242 2019-05-18 11:20:28 ESP12E-S1 19.80 19.47 62.50
8241 2019-05-18 10:52:25 ESP12E-S1 18.00 17.72 71.60
8240 2019-05-18 10:24:02 ESP12E-S1 16.60 16.38 79.00
8239 2019-05-18 09:55:58 ESP12E-S1 16.00 15.77 80.90
8238 2019-05-18 09:28:05 ESP12E-S1 15.70 15.50 83.40
8237 2019-05-18 08:59:33 ESP12E-S1 14.50 14.21 84.60
8236 2019-05-18 08:31:04 ESP12E-S1 13.40 13.17 90.80
8235 2019-05-18 08:02:45 ESP12E-S1 12.90 12.62 91.00
8234 2019-05-18 07:34:24 ESP12E-S1 12.60 12.31 91.70
8233 2019-05-18 07:06:06 ESP12E-S1 12.00 11.66 92.20
8232 2019-05-18 06:37:59 ESP12E-S1 11.60 11.20 91.40
8231 2019-05-18 06:09:39 ESP12E-S1 11.70 11.30 91.00
8230 2019-05-18 05:41:42 ESP12E-S1 11.80 11.39 90.30
8229 2019-05-18 05:13:17 ESP12E-S1 12.10 11.71 89.90
8228 2019-05-18 04:45:14 ESP12E-S1 12.30 11.88 87.70
8227 2019-05-18 04:16:54 ESP12E-S1 12.50 12.04 85.60
8226 2019-05-18 03:48:41 ESP12E-S1 12.80 12.32 83.60
8225 2019-05-18 03:20:27 ESP12E-S1 13.00 12.47 80.90
8224 2019-05-18 02:52:31 ESP12E-S1 13.40 12.87 79.30
8223 2019-05-18 02:24:06 ESP12E-S1 13.50 12.96 78.60
8222 2019-05-18 01:56:04 ESP12E-S1 13.60 13.05 78.10
8221 2019-05-18 01:27:45 ESP12E-S1 13.90 13.35 76.60
8220 2019-05-18 00:59:28 ESP12E-S1 14.10 13.50 74.00
8219 2019-05-18 00:31:11 ESP12E-S1 14.40 13.76 71.50
8218 2019-05-18 00:02:57 ESP12E-S1 14.70 14.00 67.80
8217 2019-05-17 23:34:40 ESP12E-S1 14.90 14.17 65.90
8216 2019-05-17 23:06:23 ESP12E-S1 15.10 14.35 64.60
8215 2019-05-17 22:38:26 ESP12E-S1 15.20 14.45 64.10
8214 2019-05-17 22:10:01 ESP12E-S1 15.30 14.52 62.70
8213 2019-05-17 21:42:03 ESP12E-S1 15.30 14.51 62.40
8212 2019-05-17 21:13:43 ESP12E-S1 15.50 14.72 61.90
8211 2019-05-17 20:45:26 ESP12E-S1 16.00 15.24 60.60
8210 2019-05-17 20:17:13 ESP12E-S1 16.40 15.65 59.70
8209 2019-05-17 19:49:18 ESP12E-S1 17.10 16.39 58.20
8208 2019-05-17 19:20:55 ESP12E-S1 17.60 16.90 56.90
8207 2019-05-17 18:52:42 ESP12E-S1 18.10 17.43 56.10
8206 2019-05-17 18:24:36 ESP12E-S1 18.40 17.73 55.00
8205 2019-05-17 17:56:36 ESP12E-S1 18.50 17.86 55.90
8204 2019-05-17 17:28:14 ESP12E-S1 18.90 18.28 55.10
8203 2019-05-17 17:00:18 ESP12E-S1 19.20 18.61 55.10
8202 2019-05-17 16:31:51 ESP12E-S1 19.30 18.75 56.10
8201 2019-05-17 16:03:30 ESP12E-S1 19.00 18.44 56.80
8200 2019-05-17 15:35:18 ESP12E-S1 19.50 18.94 55.00
8199 2019-05-17 15:06:59 ESP12E-S1 19.90 19.40 55.70
8198 2019-05-17 14:38:35 ESP12E-S1 19.40 18.94 59.10
8197 2019-05-17 14:10:08 ESP12E-S1 16.70 16.17 66.90
8196 2019-05-17 13:41:50 ESP12E-S1 16.30 15.87 72.20
8195 2019-05-17 13:13:37 ESP12E-S1 16.80 16.36 69.70
8194 2019-05-17 12:45:25 ESP12E-S1 17.30 17.02 74.00
8193 2019-05-17 12:17:09 ESP12E-S1 15.00 14.67 81.10
8192 2019-05-17 11:48:58 ESP12E-S1 13.40 13.06 86.80
8191 2019-05-17 11:20:23 ESP12E-S1 12.40 12.03 89.40
8190 2019-05-17 10:52:17 ESP12E-S1 11.10 10.70 93.10
8189 2019-05-17 10:23:49 ESP12E-S1 10.30 9.84 94.10
8188 2019-05-17 09:55:33 ESP12E-S1 10.10 9.63 94.20
8187 2019-05-17 09:27:37 ESP12E-S1 10.20 9.69 92.50
8186 2019-05-17 08:59:12 ESP12E-S1 10.30 9.83 93.50
8185 2019-05-17 08:30:55 ESP12E-S1 10.00 9.50 93.60
8184 2019-05-17 08:02:58 ESP12E-S1 9.80 9.28 93.70
8183 2019-05-17 07:34:34 ESP12E-S1 9.70 9.17 93.80
8182 2019-05-17 07:06:17 ESP12E-S1 9.60 9.05 93.20
8181 2019-05-17 06:38:20 ESP12E-S1 9.50 8.94 93.40
8180 2019-05-17 06:09:57 ESP12E-S1 9.50 8.93 92.80
8179 2019-05-17 05:41:40 ESP12E-S1 9.60 9.03 92.50
8178 2019-05-17 05:13:24 ESP12E-S1 9.60 9.03 92.30
8177 2019-05-17 04:45:19 ESP12E-S1 9.70 9.12 91.80
8176 2019-05-17 04:17:19 ESP12E-S1 9.80 9.22 91.20
8175 2019-05-17 03:48:55 ESP12E-S1 9.80 9.19 90.00
8174 2019-05-17 03:20:39 ESP12E-S1 9.90 9.31 90.40
8173 2019-05-17 02:52:22 ESP12E-S1 10.00 9.37 88.80
8172 2019-05-17 02:24:10 ESP12E-S1 10.10 9.47 88.40
8171 2019-05-17 01:56:06 ESP12E-S1 10.20 9.55 87.20
8170 2019-05-17 01:27:58 ESP12E-S1 10.30 9.62 85.70
8169 2019-05-17 00:59:38 ESP12E-S1 10.30 9.52 81.70
8168 2019-05-17 00:31:21 ESP12E-S1 10.30 9.51 81.20
8167 2019-05-17 00:03:18 ESP12E-S1 10.40 9.56 78.90
8166 2019-05-16 23:35:17 ESP12E-S1 10.50 9.62 77.30
8165 2019-05-16 23:07:06 ESP12E-S1 10.60 9.70 75.90
8164 2019-05-16 22:38:58 ESP12E-S1 10.80 9.88 74.60
8163 2019-05-16 22:10:52 ESP12E-S1 11.10 10.15 72.20
8162 2019-05-16 21:42:46 ESP12E-S1 11.40 10.35 67.10
8161 2019-05-16 21:14:39 ESP12E-S1 11.90 10.73 60.50
8160 2019-05-16 20:46:32 ESP12E-S1 12.10 10.86 57.40
8159 2019-05-16 20:18:25 ESP12E-S1 12.50 11.29 56.90
8158 2019-05-16 19:50:08 ESP12E-S1 13.10 11.91 55.20
8157 2019-05-16 19:22:08 ESP12E-S1 13.60 12.40 53.20
8156 2019-05-16 18:54:03 ESP12E-S1 14.20 13.01 51.20
8155 2019-05-16 18:25:57 ESP12E-S1 14.90 13.74 49.50
8154 2019-05-16 17:57:37 ESP12E-S1 15.20 14.06 49.20
8153 2019-05-16 17:29:34 ESP12E-S1 15.60 14.48 48.40
8152 2019-05-16 17:01:29 ESP12E-S1 16.10 15.01 47.50
8151 2019-05-16 16:33:12 ESP12E-S1 16.80 15.73 45.60
8150 2019-05-16 16:04:55 ESP12E-S1 16.90 15.82 45.00
8149 2019-05-16 15:36:54 ESP12E-S1 17.90 16.91 44.60
8148 2019-05-16 15:08:38 ESP12E-S1 18.80 17.85 42.80
8147 2019-05-16 14:40:23 ESP12E-S1 19.40 18.47 41.30
8146 2019-05-16 14:12:10 ESP12E-S1 20.20 19.35 41.30
8145 2019-05-16 13:44:10 ESP12E-S1 21.00 20.19 39.60
8144 2019-05-16 13:15:46 ESP12E-S1 20.60 19.74 39.40
8143 2019-05-16 12:47:13 ESP12E-S1 19.60 18.70 41.60
8142 2019-05-16 12:19:05 ESP12E-S1 16.80 15.63 41.90
8141 2019-05-16 11:50:49 ESP12E-S1 17.80 16.67 39.70
8140 2019-05-16 11:22:17 ESP12E-S1 16.80 15.58 40.00
8139 2019-05-16 10:53:57 ESP12E-S1 16.10 14.79 39.20
8138 2019-05-16 10:25:40 ESP12E-S1 14.80 13.39 40.50
8137 2019-05-16 09:57:14 ESP12E-S1 13.50 12.00 41.90
8136 2019-05-16 09:28:45 ESP12E-S1 12.20 10.57 41.80
8135 2019-05-16 09:00:45 ESP12E-S1 11.70 10.03 42.20
8134 2019-05-16 08:32:17 ESP12E-S1 11.20 9.56 45.30
8133 2019-05-16 08:03:58 ESP12E-S1 11.00 9.28 43.10
8132 2019-05-16 07:35:38 ESP12E-S1 10.60 8.87 44.20
8131 2019-05-16 07:07:32 ESP12E-S1 10.40 8.65 44.20
8130 2019-05-16 06:39:12 ESP12E-S1 10.30 8.53 43.70
8129 2019-05-16 06:10:54 ESP12E-S1 10.20 8.43 44.20
8128 2019-05-16 05:42:38 ESP12E-S1 10.30 8.57 45.30
8127 2019-05-16 05:14:42 ESP12E-S1 10.30 8.60 46.60
8126 2019-05-16 04:46:38 ESP12E-S1 10.20 8.51 47.10
8125 2019-05-16 04:18:35 ESP12E-S1 10.50 8.79 45.30
8124 2019-05-16 03:50:13 ESP12E-S1 10.90 9.19 43.80
8123 2019-05-16 03:22:17 ESP12E-S1 11.10 9.40 43.60
8122 2019-05-16 02:53:53 ESP12E-S1 11.30 9.62 43.40
8121 2019-05-16 02:25:38 ESP12E-S1 11.40 9.72 43.20
8120 2019-05-16 01:57:57 ESP12E-S1 11.50 9.82 42.70
8119 2019-05-16 01:29:21 ESP12E-S1 11.60 9.90 41.70
8118 2019-05-16 01:01:16 ESP12E-S1 11.70 10.01 41.70
8117 2019-05-16 00:32:58 ESP12E-S1 12.00 10.31 40.50
8116 2019-05-16 00:04:43 ESP12E-S1 12.30 10.61 39.10
8115 2019-05-15 23:36:40 ESP12E-S1 12.50 10.82 38.80
8114 2019-05-15 23:08:19 ESP12E-S1 12.70 11.03 38.30
8113 2019-05-15 22:40:04 ESP12E-S1 12.70 11.01 37.60
8112 2019-05-15 22:11:52 ESP12E-S1 12.90 11.20 36.70
8111 2019-05-15 21:43:36 ESP12E-S1 13.30 11.60 35.20
8110 2019-05-15 21:15:34 ESP12E-S1 13.80 12.09 32.80
8109 2019-05-15 20:47:17 ESP12E-S1 14.40 12.72 31.40
8108 2019-05-15 20:19:03 ESP12E-S1 14.80 13.13 30.60
8107 2019-05-15 19:50:49 ESP12E-S1 15.50 13.88 29.80
8106 2019-05-15 19:22:39 ESP12E-S1 16.40 14.85 28.80
8105 2019-05-15 18:54:27 ESP12E-S1 17.40 15.94 28.70
8104 2019-05-15 18:26:14 ESP12E-S1 18.20 16.84 29.30
8103 2019-05-15 17:57:58 ESP12E-S1 18.80 17.49 28.80
8102 2019-05-15 17:29:37 ESP12E-S1 18.60 17.25 28.20
8101 2019-05-15 17:01:43 ESP12E-S1 18.80 17.51 29.60
8100 2019-05-15 16:33:39 ESP12E-S1 19.20 17.94 29.30
8099 2019-05-15 16:05:18 ESP12E-S1 19.90 18.72 29.80
8098 2019-05-15 15:37:25 ESP12E-S1 20.70 19.59 29.10
8097 2019-05-15 15:09:00 ESP12E-S1 21.20 20.10 27.80
8096 2019-05-15 14:40:57 ESP12E-S1 22.00 21.01 28.80
8095 2019-05-15 14:12:54 ESP12E-S1 22.20 21.28 30.80
8094 2019-05-15 13:44:35 ESP12E-S1 22.30 21.32 28.30
8093 2019-05-15 13:16:16 ESP12E-S1 21.50 20.44 28.00
8092 2019-05-15 12:47:39 ESP12E-S1 19.80 18.60 29.30
8091 2019-05-15 12:19:25 ESP12E-S1 18.60 17.38 33.00
8090 2019-05-15 11:51:05 ESP12E-S1 18.10 16.83 33.10
8089 2019-05-15 11:22:43 ESP12E-S1 17.20 15.84 33.10
8088 2019-05-15 10:54:16 ESP12E-S1 15.60 14.09 33.50
8087 2019-05-15 10:25:39 ESP12E-S1 13.50 11.90 37.90
8086 2019-05-15 09:57:23 ESP12E-S1 11.90 10.18 39.60
8085 2019-05-15 09:28:59 ESP12E-S1 11.00 9.23 41.30
8084 2019-05-15 09:00:31 ESP12E-S1 10.00 8.12 40.80
8083 2019-05-15 08:32:32 ESP12E-S1 8.80 6.86 43.00
8082 2019-05-15 08:03:59 ESP12E-S1 8.20 6.22 44.00
8081 2019-05-15 07:35:53 ESP12E-S1 7.70 5.72 45.80
8080 2019-05-15 07:07:30 ESP12E-S1 7.10 5.13 48.50
8079 2019-05-15 06:39:48 ESP12E-S1 6.80 4.83 49.70
8078 2019-05-15 06:11:12 ESP12E-S1 6.70 4.75 50.60
8077 2019-05-15 05:42:56 ESP12E-S1 6.80 4.86 50.70
8076 2019-05-15 05:14:40 ESP12E-S1 7.00 5.07 50.50
8075 2019-05-15 04:46:37 ESP12E-S1 7.30 5.40 50.20
8074 2019-05-15 04:18:18 ESP12E-S1 7.60 5.75 51.00
8073 2019-05-15 03:50:38 ESP12E-S1 7.80 5.98 51.40
8072 2019-05-15 03:22:03 ESP12E-S1 7.90 6.08 51.20
8071 2019-05-15 02:53:49 ESP12E-S1 8.10 6.35 52.90
8070 2019-05-15 02:25:34 ESP12E-S1 8.20 6.45 52.70
8069 2019-05-15 01:57:19 ESP12E-S1 8.50 6.76 52.00
8068 2019-05-15 01:29:05 ESP12E-S1 8.90 7.16 50.30
8067 2019-05-15 01:00:50 ESP12E-S1 9.30 7.58 49.50
8066 2019-05-15 00:32:46 ESP12E-S1 9.60 7.92 49.80
8065 2019-05-15 00:04:41 ESP12E-S1 9.90 8.23 49.20
8064 2019-05-14 23:36:22 ESP12E-S1 10.30 8.61 47.00
8063 2019-05-14 23:08:09 ESP12E-S1 10.80 9.11 45.00
8062 2019-05-14 22:39:56 ESP12E-S1 11.20 9.51 43.40
8061 2019-05-14 22:11:41 ESP12E-S1 11.80 10.09 40.50
8060 2019-05-14 21:43:28 ESP12E-S1 12.40 10.70 38.50
8059 2019-05-14 21:15:25 ESP12E-S1 12.70 11.02 38.10
8058 2019-05-14 20:47:09 ESP12E-S1 13.30 11.65 36.80
8057 2019-05-14 20:18:57 ESP12E-S1 14.10 12.50 35.70
8056 2019-05-14 19:50:44 ESP12E-S1 14.90 13.36 34.90
8055 2019-05-14 19:22:30 ESP12E-S1 15.50 13.97 33.10
8054 2019-05-14 18:54:17 ESP12E-S1 16.00 14.55 34.40
8053 2019-05-14 18:26:16 ESP12E-S1 16.50 15.09 33.80
8052 2019-05-14 17:57:58 ESP12E-S1 17.20 15.80 31.60
8051 2019-05-14 17:29:43 ESP12E-S1 17.30 15.91 31.40
8050 2019-05-14 17:01:28 ESP12E-S1 18.10 16.81 32.20
8049 2019-05-14 16:33:36 ESP12E-S1 18.10 16.81 32.50
8048 2019-05-14 16:05:11 ESP12E-S1 18.10 16.80 31.90
8047 2019-05-14 15:37:13 ESP12E-S1 18.90 17.65 30.70
8046 2019-05-14 15:09:08 ESP12E-S1 19.60 18.43 31.20
8045 2019-05-14 14:40:45 ESP12E-S1 20.60 19.51 30.30
8044 2019-05-14 14:12:56 ESP12E-S1 22.10 21.15 29.90
8043 2019-05-14 13:44:42 ESP12E-S1 21.60 20.64 31.60
8042 2019-05-14 13:16:12 ESP12E-S1 21.90 20.95 30.90
8041 2019-05-14 12:47:53 ESP12E-S1 19.00 17.85 34.40
8040 2019-05-14 12:19:30 ESP12E-S1 16.90 15.61 36.90
8039 2019-05-14 11:51:09 ESP12E-S1 16.90 15.59 36.20
8038 2019-05-14 11:23:03 ESP12E-S1 18.10 16.90 35.90
8037 2019-05-14 10:54:39 ESP12E-S1 17.10 15.82 36.70
8036 2019-05-14 10:26:04 ESP12E-S1 15.10 13.67 38.60
8035 2019-05-14 09:57:36 ESP12E-S1 13.50 11.97 40.80
8034 2019-05-14 09:29:18 ESP12E-S1 12.40 10.78 41.40
8033 2019-05-14 09:00:51 ESP12E-S1 11.30 9.57 41.50
8032 2019-05-14 08:32:26 ESP12E-S1 10.10 8.25 41.40
8031 2019-05-14 08:04:17 ESP12E-S1 9.50 7.65 43.80
8030 2019-05-14 07:35:55 ESP12E-S1 9.10 7.25 45.20
8029 2019-05-14 07:07:38 ESP12E-S1 8.80 6.94 46.00
8028 2019-05-14 06:39:32 ESP12E-S1 8.70 6.83 46.30
8027 2019-05-14 06:11:33 ESP12E-S1 8.70 6.87 47.50
8026 2019-05-14 05:43:09 ESP12E-S1 8.80 6.98 47.60
8025 2019-05-14 05:14:55 ESP12E-S1 9.00 7.18 46.90
8024 2019-05-14 04:46:39 ESP12E-S1 9.20 7.33 44.20
8023 2019-05-14 04:18:24 ESP12E-S1 9.20 7.33 44.30
8022 2019-05-14 03:50:09 ESP12E-S1 9.50 7.65 43.80
8021 2019-05-14 03:21:54 ESP12E-S1 9.80 7.95 42.80
8020 2019-05-14 02:53:41 ESP12E-S1 10.20 8.35 41.20
8019 2019-05-14 02:25:27 ESP12E-S1 10.40 8.53 39.80
8018 2019-05-14 01:57:32 ESP12E-S1 10.80 8.95 38.70
8017 2019-05-14 01:29:09 ESP12E-S1 11.10 9.24 37.50
8016 2019-05-14 01:00:54 ESP12E-S1 11.30 9.43 36.30
8015 2019-05-14 00:32:58 ESP12E-S1 11.60 9.78 36.80
8014 2019-05-14 00:04:40 ESP12E-S1 11.80 9.97 35.80
8013 2019-05-13 23:36:23 ESP12E-S1 12.00 10.18 35.30
8012 2019-05-13 23:08:07 ESP12E-S1 12.40 10.61 35.00
8011 2019-05-13 22:39:51 ESP12E-S1 12.60 10.80 33.90
8010 2019-05-13 22:11:37 ESP12E-S1 12.90 11.16 34.90
8009 2019-05-13 21:43:34 ESP12E-S1 13.30 11.59 34.60
8008 2019-05-13 21:15:16 ESP12E-S1 13.80 12.15 35.00
8007 2019-05-13 20:47:04 ESP12E-S1 14.50 12.90 34.40
8006 2019-05-13 20:19:10 ESP12E-S1 15.10 13.56 34.10
8005 2019-05-13 19:50:49 ESP12E-S1 15.90 14.41 33.00
8004 2019-05-13 19:22:36 ESP12E-S1 16.60 15.14 31.70
8003 2019-05-13 18:54:22 ESP12E-S1 17.50 16.12 31.30
8002 2019-05-13 18:26:08 ESP12E-S1 18.10 16.77 31.00
8001 2019-05-13 17:57:52 ESP12E-S1 18.40 17.10 30.90
8000 2019-05-13 17:29:37 ESP12E-S1 18.90 17.63 30.00
7999 2019-05-13 17:01:41 ESP12E-S1 19.50 18.31 30.90
7998 2019-05-13 16:33:21 ESP12E-S1 20.00 18.80 28.70
7997 2019-05-13 16:05:19 ESP12E-S1 20.70 19.57 28.60
7996 2019-05-13 15:37:24 ESP12E-S1 21.60 20.56 28.40
7995 2019-05-13 15:09:18 ESP12E-S1 22.10 21.09 27.80
7994 2019-05-13 14:41:29 ESP12E-S1 23.00 22.12 29.40
7993 2019-05-13 14:13:32 ESP12E-S1 23.70 22.85 27.80
7992 2019-05-13 13:44:59 ESP12E-S1 23.50 22.66 28.90
7991 2019-05-13 13:16:50 ESP12E-S1 22.80 21.85 27.30
7990 2019-05-13 12:48:08 ESP12E-S1 21.10 19.98 27.50
7989 2019-05-13 12:20:16 ESP12E-S1 19.40 18.15 28.80
7988 2019-05-13 11:51:47 ESP12E-S1 19.10 17.90 31.80
7987 2019-05-13 11:23:25 ESP12E-S1 18.10 16.84 33.50
7986 2019-05-13 10:55:00 ESP12E-S1 16.50 15.18 37.40
7985 2019-05-13 10:26:20 ESP12E-S1 14.40 12.86 36.80
7984 2019-05-13 09:57:51 ESP12E-S1 12.70 10.99 36.80
7983 2019-05-13 09:29:30 ESP12E-S1 11.50 9.78 41.20
7982 2019-05-13 09:01:12 ESP12E-S1 10.40 8.57 41.20
7981 2019-05-13 08:32:44 ESP12E-S1 9.10 7.16 41.90
7980 2019-05-13 08:04:24 ESP12E-S1 8.30 6.27 41.60
7979 2019-05-13 07:36:05 ESP12E-S1 7.90 5.88 43.40
7978 2019-05-13 07:07:47 ESP12E-S1 7.60 5.56 43.80
7977 2019-05-13 06:39:30 ESP12E-S1 7.60 5.59 44.90
7976 2019-05-13 06:11:13 ESP12E-S1 7.60 5.65 47.40
7975 2019-05-13 05:42:58 ESP12E-S1 7.60 5.67 48.00
7974 2019-05-13 05:14:43 ESP12E-S1 7.70 5.86 51.30
7973 2019-05-13 04:46:27 ESP12E-S1 7.80 6.01 52.60
7972 2019-05-13 04:18:32 ESP12E-S1 8.10 6.34 52.80
7971 2019-05-13 03:50:09 ESP12E-S1 8.30 6.57 52.90
7970 2019-05-13 03:22:13 ESP12E-S1 8.50 6.77 52.40
7969 2019-05-13 02:53:50 ESP12E-S1 8.80 7.11 52.60
7968 2019-05-13 02:25:35 ESP12E-S1 9.10 7.45 53.10
7967 2019-05-13 01:57:40 ESP12E-S1 9.30 7.67 52.90
7966 2019-05-13 01:29:18 ESP12E-S1 9.40 7.82 54.60
7965 2019-05-13 01:01:01 ESP12E-S1 9.60 8.05 54.80
7964 2019-05-13 00:32:48 ESP12E-S1 9.70 8.13 53.80
7963 2019-05-13 00:04:52 ESP12E-S1 9.90 8.33 52.90
7962 2019-05-12 23:36:28 ESP12E-S1 9.80 8.19 52.00
7961 2019-05-12 23:08:31 ESP12E-S1 9.60 8.00 53.20
7960 2019-05-12 22:40:09 ESP12E-S1 10.10 8.51 51.40
7959 2019-05-12 22:12:07 ESP12E-S1 10.70 9.13 49.80
7958 2019-05-12 21:44:01 ESP12E-S1 11.10 9.53 48.60
7957 2019-05-12 21:15:55 ESP12E-S1 11.40 9.89 49.60
7956 2019-05-12 20:47:42 ESP12E-S1 12.30 10.83 47.70
7955 2019-05-12 20:19:28 ESP12E-S1 13.00 11.51 44.40
7954 2019-05-12 19:51:17 ESP12E-S1 13.70 12.27 44.00
7953 2019-05-12 19:23:26 ESP12E-S1 14.70 13.33 42.40
7952 2019-05-12 18:55:27 ESP12E-S1 15.80 14.51 41.20
7951 2019-05-12 18:27:34 ESP12E-S1 16.60 15.40 41.70
7950 2019-05-12 17:59:07 ESP12E-S1 16.80 15.59 40.40
7949 2019-05-12 17:30:50 ESP12E-S1 17.40 16.23 39.80
7948 2019-05-12 17:02:54 ESP12E-S1 17.80 16.65 38.90
7947 2019-05-12 16:34:32 ESP12E-S1 18.10 17.02 40.30
7946 2019-05-12 16:06:20 ESP12E-S1 19.00 18.01 40.50
7945 2019-05-12 15:38:00 ESP12E-S1 18.30 17.25 40.80
7944 2019-05-12 15:09:45 ESP12E-S1 19.30 18.32 39.50
7943 2019-05-12 14:41:40 ESP12E-S1 20.40 19.55 40.50
7942 2019-05-12 14:13:24 ESP12E-S1 20.70 19.81 37.70
7941 2019-05-12 13:45:13 ESP12E-S1 21.30 20.49 38.30
7940 2019-05-12 13:16:41 ESP12E-S1 19.80 19.04 46.30
7939 2019-05-12 12:48:02 ESP12E-S1 18.50 17.67 48.50
7938 2019-05-12 12:19:41 ESP12E-S1 16.10 15.22 55.70
7937 2019-05-12 11:51:44 ESP12E-S1 17.60 16.84 54.40
7936 2019-05-12 11:23:19 ESP12E-S1 16.40 15.60 57.50
7935 2019-05-12 10:54:52 ESP12E-S1 14.70 13.91 64.40
7934 2019-05-12 10:26:33 ESP12E-S1 12.10 11.19 69.90
7933 2019-05-12 09:58:00 ESP12E-S1 10.90 10.03 76.00
7932 2019-05-12 09:29:51 ESP12E-S1 9.60 8.63 77.30
7931 2019-05-12 09:01:23 ESP12E-S1 8.80 7.88 82.10
7930 2019-05-12 08:33:10 ESP12E-S1 7.70 6.69 83.00
7929 2019-05-12 08:05:08 ESP12E-S1 7.10 6.09 85.30
7928 2019-05-12 07:36:40 ESP12E-S1 6.60 5.61 87.80
7927 2019-05-12 07:08:42 ESP12E-S1 6.10 5.12 90.30
7926 2019-05-12 06:40:17 ESP12E-S1 5.90 4.92 90.90
7925 2019-05-12 06:12:02 ESP12E-S1 6.10 5.13 90.60
7924 2019-05-12 05:43:47 ESP12E-S1 6.20 5.22 89.70
7923 2019-05-12 05:15:34 ESP12E-S1 6.50 5.53 88.90
7922 2019-05-12 04:47:40 ESP12E-S1 6.90 5.94 87.80
7921 2019-05-12 04:19:29 ESP12E-S1 7.00 6.01 86.40
7920 2019-05-12 03:51:10 ESP12E-S1 7.20 6.13 82.70
7919 2019-05-12 03:23:21 ESP12E-S1 7.30 6.33 86.10
7918 2019-05-12 02:55:14 ESP12E-S1 7.60 6.77 90.10
7917 2019-05-12 02:26:51 ESP12E-S1 7.70 6.89 90.60
7916 2019-05-12 01:58:36 ESP12E-S1 7.90 7.13 91.50
7915 2019-05-12 01:30:40 ESP12E-S1 8.00 7.31 93.90
7914 2019-05-12 01:02:16 ESP12E-S1 8.10 7.44 94.60
7913 2019-05-12 00:34:22 ESP12E-S1 8.30 7.64 94.10
7912 2019-05-12 00:05:59 ESP12E-S1 8.40 7.77 94.80
7911 2019-05-11 23:38:03 ESP12E-S1 8.60 7.98 94.30
7910 2019-05-11 23:10:08 ESP12E-S1 8.80 8.18 93.80
7909 2019-05-11 22:41:41 ESP12E-S1 9.10 8.52 94.10
7908 2019-05-11 22:13:27 ESP12E-S1 9.20 8.61 93.20
7907 2019-05-11 21:45:12 ESP12E-S1 9.50 8.96 93.90
7906 2019-05-11 21:17:08 ESP12E-S1 9.70 9.16 93.40
7905 2019-05-11 20:48:50 ESP12E-S1 9.90 9.38 93.40
7904 2019-05-11 20:20:37 ESP12E-S1 10.10 9.59 93.00
7903 2019-05-11 19:52:54 ESP12E-S1 10.40 9.93 93.20
7902 2019-05-11 19:24:43 ESP12E-S1 10.50 10.07 94.50
7901 2019-05-11 18:56:41 ESP12E-S1 10.60 10.20 95.00
7900 2019-05-11 18:28:30 ESP12E-S1 10.80 10.39 93.90
7899 2019-05-11 18:00:09 ESP12E-S1 10.90 10.48 93.30
7898 2019-05-11 17:31:55 ESP12E-S1 11.30 10.90 92.60
7897 2019-05-11 17:03:40 ESP12E-S1 11.70 11.33 92.00
7896 2019-05-11 16:35:24 ESP12E-S1 11.60 11.18 90.50
7895 2019-05-11 16:07:18 ESP12E-S1 11.70 11.31 91.20
7894 2019-05-11 15:39:00 ESP12E-S1 11.90 11.55 92.20
7893 2019-05-11 15:10:44 ESP12E-S1 12.10 11.74 91.00
7892 2019-05-11 14:42:47 ESP12E-S1 11.80 11.40 90.50
7891 2019-05-11 14:14:31 ESP12E-S1 12.30 11.98 91.60
7890 2019-05-11 13:46:14 ESP12E-S1 12.60 12.36 93.50
7889 2019-05-11 13:18:15 ESP12E-S1 12.20 11.97 95.70
7888 2019-05-11 12:49:47 ESP12E-S1 11.70 11.44 96.20
7887 2019-05-11 12:21:30 ESP12E-S1 11.50 11.24 97.10
7886 2019-05-11 11:53:13 ESP12E-S1 11.60 11.35 97.20
7885 2019-05-11 11:24:57 ESP12E-S1 11.60 11.37 97.70
7884 2019-05-11 10:57:02 ESP12E-S1 11.80 11.56 96.70
7883 2019-05-11 10:28:43 ESP12E-S1 11.40 11.13 96.90
7882 2019-05-11 10:00:23 ESP12E-S1 11.30 11.02 97.20
7881 2019-05-11 09:32:05 ESP12E-S1 11.10 10.80 96.90
7880 2019-05-11 09:03:47 ESP12E-S1 11.10 10.80 97.00
7879 2019-05-11 08:35:29 ESP12E-S1 11.00 10.68 96.50
7878 2019-05-11 08:07:12 ESP12E-S1 10.80 10.46 96.60
7877 2019-05-11 07:38:56 ESP12E-S1 10.80 10.47 96.90
7876 2019-05-11 07:10:58 ESP12E-S1 10.90 10.59 97.30
7875 2019-05-11 06:42:34 ESP12E-S1 10.90 10.57 96.70
7874 2019-05-11 06:14:16 ESP12E-S1 11.00 10.64 95.10
7873 2019-05-11 05:46:01 ESP12E-S1 11.00 10.65 95.70
7872 2019-05-11 05:18:05 ESP12E-S1 11.20 10.84 94.20
7871 2019-05-11 04:49:42 ESP12E-S1 11.30 10.96 94.90
7870 2019-05-11 04:21:26 ESP12E-S1 11.50 11.15 93.80
7869 2019-05-11 03:53:10 ESP12E-S1 11.60 11.26 93.80
7868 2019-05-11 03:24:55 ESP12E-S1 11.60 11.28 94.50
7867 2019-05-11 02:56:38 ESP12E-S1 11.70 11.41 95.10
7866 2019-05-11 02:28:24 ESP12E-S1 11.90 11.58 93.20
7865 2019-05-11 02:00:10 ESP12E-S1 12.20 11.75 87.20
7864 2019-05-11 01:31:55 ESP12E-S1 12.50 11.84 77.90
7863 2019-05-11 01:03:40 ESP12E-S1 12.60 11.62 65.30
7862 2019-05-11 00:35:35 ESP12E-S1 12.80 11.72 60.60
7861 2019-05-11 00:07:16 ESP12E-S1 13.00 12.01 63.30
7860 2019-05-10 23:39:02 ESP12E-S1 13.40 12.18 53.00
7859 2019-05-10 23:10:48 ESP12E-S1 13.40 12.13 51.10
7858 2019-05-10 22:42:32 ESP12E-S1 13.70 12.45 50.90
7857 2019-05-10 22:14:15 ESP12E-S1 13.70 12.47 51.50
7856 2019-05-10 21:46:00 ESP12E-S1 14.00 12.76 49.90
7855 2019-05-10 21:18:07 ESP12E-S1 14.60 13.43 50.20
7854 2019-05-10 20:49:58 ESP12E-S1 15.40 14.20 46.30
7853 2019-05-10 20:21:42 ESP12E-S1 16.00 14.82 44.60
7852 2019-05-10 19:53:28 ESP12E-S1 16.60 15.39 41.10
7851 2019-05-10 19:25:32 ESP12E-S1 17.10 15.89 39.20
7850 2019-05-10 18:57:10 ESP12E-S1 17.60 16.45 39.50
7849 2019-05-10 18:28:54 ESP12E-S1 18.00 16.82 37.00
7848 2019-05-10 18:00:40 ESP12E-S1 18.20 17.00 35.60
7847 2019-05-10 17:32:27 ESP12E-S1 18.80 17.72 37.70
7846 2019-05-10 17:04:25 ESP12E-S1 19.30 18.25 37.00
7845 2019-05-10 16:36:08 ESP12E-S1 19.50 18.53 39.40
7844 2019-05-10 16:07:51 ESP12E-S1 19.80 18.82 37.70
7843 2019-05-10 15:39:58 ESP12E-S1 21.30 20.48 38.10
7842 2019-05-10 15:11:37 ESP12E-S1 20.80 19.94 38.40
7841 2019-05-10 14:43:32 ESP12E-S1 23.10 22.42 36.60
7840 2019-05-10 14:15:32 ESP12E-S1 23.60 23.03 38.70
7839 2019-05-10 13:47:26 ESP12E-S1 23.30 22.69 38.60
7838 2019-05-10 13:18:50 ESP12E-S1 22.10 21.45 41.50
7837 2019-05-10 12:50:17 ESP12E-S1 19.90 19.10 44.40
7836 2019-05-10 12:22:25 ESP12E-S1 18.60 17.83 50.30
7835 2019-05-10 11:53:53 ESP12E-S1 18.00 17.30 55.50
7834 2019-05-10 11:25:55 ESP12E-S1 17.50 16.95 62.80
7833 2019-05-10 10:57:17 ESP12E-S1 15.80 15.45 77.30
7832 2019-05-10 10:28:46 ESP12E-S1 13.80 13.46 85.20
7831 2019-05-10 10:00:18 ESP12E-S1 12.30 11.96 90.80
7830 2019-05-10 09:31:55 ESP12E-S1 11.40 11.08 95.30
7829 2019-05-10 09:03:44 ESP12E-S1 10.60 10.26 97.60
7828 2019-05-10 08:35:15 ESP12E-S1 9.50 9.11 99.90
7827 2019-05-10 08:06:57 ESP12E-S1 9.00 8.56 99.90
7826 2019-05-10 07:38:52 ESP12E-S1 8.50 8.01 99.90
7825 2019-05-10 07:10:57 ESP12E-S1 8.40 7.90 99.90
7824 2019-05-10 06:42:27 ESP12E-S1 8.40 7.90 99.90
7823 2019-05-10 06:14:11 ESP12E-S1 8.10 7.57 99.90
7822 2019-05-10 05:45:56 ESP12E-S1 8.30 7.79 99.90
7821 2019-05-10 05:18:03 ESP12E-S1 8.40 7.90 99.90
7820 2019-05-10 04:49:41 ESP12E-S1 8.80 8.34 99.90
7819 2019-05-10 04:21:46 ESP12E-S1 9.00 8.56 99.90
7818 2019-05-10 03:53:23 ESP12E-S1 9.00 8.56 99.90
7817 2019-05-10 03:25:10 ESP12E-S1 9.10 8.67 99.90
7816 2019-05-10 02:56:53 ESP12E-S1 9.10 8.67 99.90
7815 2019-05-10 02:28:38 ESP12E-S1 9.30 8.89 99.90
7814 2019-05-10 02:00:42 ESP12E-S1 9.60 9.22 99.90
7813 2019-05-10 01:32:19 ESP12E-S1 9.70 9.33 99.90
7812 2019-05-10 01:04:03 ESP12E-S1 9.80 9.44 99.90
7811 2019-05-10 00:35:48 ESP12E-S1 10.00 9.66 99.90
7810 2019-05-10 00:07:32 ESP12E-S1 10.10 9.77 99.90
7809 2019-05-09 23:39:18 ESP12E-S1 10.30 9.99 99.90
7808 2019-05-09 23:11:02 ESP12E-S1 10.50 10.21 99.90
7807 2019-05-09 22:42:46 ESP12E-S1 10.50 10.21 99.90
7806 2019-05-09 22:14:49 ESP12E-S1 10.50 10.21 99.90
7805 2019-05-09 21:46:26 ESP12E-S1 10.70 10.43 99.90
7804 2019-05-09 21:18:10 ESP12E-S1 10.80 10.54 99.90
7803 2019-05-09 20:49:56 ESP12E-S1 11.20 10.98 99.90
7802 2019-05-09 20:22:01 ESP12E-S1 11.80 11.64 99.90
7801 2019-05-09 19:53:41 ESP12E-S1 12.10 11.96 99.20
7800 2019-05-09 19:25:25 ESP12E-S1 12.40 12.29 99.50
7799 2019-05-09 18:57:36 ESP12E-S1 12.20 12.06 99.10
7798 2019-05-09 18:29:28 ESP12E-S1 12.80 12.72 98.80
7797 2019-05-09 18:01:04 ESP12E-S1 12.80 12.74 99.60
7796 2019-05-09 17:33:05 ESP12E-S1 12.60 12.52 99.90
7795 2019-05-09 17:04:50 ESP12E-S1 11.50 11.31 99.90
7794 2019-05-09 16:36:23 ESP12E-S1 10.60 10.32 99.90
7793 2019-05-09 16:08:06 ESP12E-S1 10.60 10.32 99.90
7792 2019-05-09 15:39:49 ESP12E-S1 10.50 10.21 99.90
7791 2019-05-09 15:11:33 ESP12E-S1 10.50 10.21 99.90
7790 2019-05-09 14:43:17 ESP12E-S1 10.50 10.21 99.90
7789 2019-05-09 14:15:00 ESP12E-S1 10.50 10.21 99.90
7788 2019-05-09 13:46:54 ESP12E-S1 10.30 9.99 99.90
7787 2019-05-09 13:18:53 ESP12E-S1 10.20 9.88 99.90
7786 2019-05-09 12:50:28 ESP12E-S1 10.20 9.88 99.90
7785 2019-05-09 12:22:24 ESP12E-S1 10.20 9.88 99.90
7784 2019-05-09 11:54:15 ESP12E-S1 10.10 9.77 99.90
7783 2019-05-09 11:25:55 ESP12E-S1 9.90 9.55 99.90
7782 2019-05-09 10:57:38 ESP12E-S1 10.00 9.66 99.70
7781 2019-05-09 10:29:27 ESP12E-S1 9.90 9.55 99.90
7780 2019-05-09 10:01:07 ESP12E-S1 9.60 9.22 99.90
7779 2019-05-09 09:32:49 ESP12E-S1 9.10 8.67 99.90
7778 2019-05-09 09:04:35 ESP12E-S1 9.10 8.67 99.80
7777 2019-05-09 08:36:18 ESP12E-S1 9.10 8.66 99.20
7776 2019-05-09 08:08:01 ESP12E-S1 8.90 8.45 99.90
7775 2019-05-09 07:40:03 ESP12E-S1 8.70 8.21 99.10
7774 2019-05-09 07:11:38 ESP12E-S1 8.70 8.23 99.90
7773 2019-05-09 06:43:42 ESP12E-S1 8.50 8.01 99.90
7772 2019-05-09 06:15:36 ESP12E-S1 8.40 7.90 99.90
7771 2019-05-09 05:47:32 ESP12E-S1 8.40 7.90 99.90
7770 2019-05-09 05:19:26 ESP12E-S1 8.30 7.79 99.90
7769 2019-05-09 04:51:03 ESP12E-S1 8.40 7.90 99.90
7768 2019-05-09 04:22:47 ESP12E-S1 8.50 8.00 99.50
7767 2019-05-09 03:54:43 ESP12E-S1 8.80 8.33 99.40
7766 2019-05-09 03:26:36 ESP12E-S1 8.90 8.45 99.80
7765 2019-05-09 02:58:16 ESP12E-S1 8.90 8.45 99.60
7764 2019-05-09 02:30:00 ESP12E-S1 9.00 8.56 99.90
7763 2019-05-09 02:01:54 ESP12E-S1 9.20 8.78 99.90
7762 2019-05-09 01:33:54 ESP12E-S1 9.30 8.89 99.90
7761 2019-05-09 01:05:32 ESP12E-S1 9.50 9.11 99.90
7760 2019-05-09 00:37:17 ESP12E-S1 9.60 9.22 99.90
7759 2019-05-09 00:09:13 ESP12E-S1 9.90 9.55 99.90
7758 2019-05-08 23:40:53 ESP12E-S1 10.10 9.77 99.90
7757 2019-05-08 23:12:57 ESP12E-S1 10.20 9.88 99.90
7756 2019-05-08 22:44:54 ESP12E-S1 10.30 9.99 99.90
7755 2019-05-08 22:16:50 ESP12E-S1 10.50 10.21 99.90
7754 2019-05-08 21:48:37 ESP12E-S1 10.50 10.21 99.90
7753 2019-05-08 21:20:16 ESP12E-S1 10.60 10.32 99.90
7752 2019-05-08 20:52:00 ESP12E-S1 10.80 10.54 99.90
7751 2019-05-08 20:23:44 ESP12E-S1 11.00 10.76 99.90
7750 2019-05-08 19:55:40 ESP12E-S1 11.10 10.87 99.90
7749 2019-05-08 19:27:19 ESP12E-S1 11.00 10.76 99.90
7748 2019-05-08 18:59:15 ESP12E-S1 11.00 10.76 99.90
7747 2019-05-08 18:31:14 ESP12E-S1 11.00 10.76 99.90
7746 2019-05-08 18:02:50 ESP12E-S1 11.00 10.76 99.90
7745 2019-05-08 17:34:52 ESP12E-S1 11.00 10.76 99.90
7744 2019-05-08 17:06:29 ESP12E-S1 10.90 10.65 99.90
7743 2019-05-08 16:38:31 ESP12E-S1 10.90 10.64 99.50
7742 2019-05-08 16:10:07 ESP12E-S1 10.90 10.62 98.50
7741 2019-05-08 15:42:11 ESP12E-S1 11.00 10.70 97.50
7740 2019-05-08 15:13:48 ESP12E-S1 11.10 10.78 96.40
7739 2019-05-08 14:45:32 ESP12E-S1 11.20 10.85 94.90
7738 2019-05-08 14:17:18 ESP12E-S1 11.40 11.05 93.90
7737 2019-05-08 13:48:55 ESP12E-S1 10.80 10.41 94.60
7736 2019-05-08 13:20:36 ESP12E-S1 9.90 9.43 95.20
7735 2019-05-08 12:52:17 ESP12E-S1 9.60 9.10 95.20
7734 2019-05-08 12:24:00 ESP12E-S1 9.40 8.83 93.30
7733 2019-05-08 11:56:04 ESP12E-S1 9.30 8.69 92.00
7732 2019-05-08 11:28:01 ESP12E-S1 9.30 8.61 89.10
7731 2019-05-08 10:59:58 ESP12E-S1 9.50 8.65 82.30
7730 2019-05-08 10:31:36 ESP12E-S1 9.80 8.75 73.20
7729 2019-05-08 10:03:21 ESP12E-S1 10.00 8.77 65.50
7728 2019-05-08 09:35:26 ESP12E-S1 10.30 8.96 60.40
7727 2019-05-08 09:07:19 ESP12E-S1 10.00 8.61 59.60
7726 2019-05-08 08:38:53 ESP12E-S1 10.00 8.51 55.70
7725 2019-05-08 08:10:55 ESP12E-S1 9.60 8.10 57.00
7724 2019-05-08 07:42:55 ESP12E-S1 9.20 7.71 58.90
7723 2019-05-08 07:14:28 ESP12E-S1 9.00 7.42 56.20
7722 2019-05-08 06:46:32 ESP12E-S1 8.90 7.27 54.60
7721 2019-05-08 06:18:20 ESP12E-S1 8.90 7.26 54.30
7720 2019-05-08 05:50:00 ESP12E-S1 9.00 7.37 54.20
7719 2019-05-08 05:22:04 ESP12E-S1 9.00 7.34 53.10
7718 2019-05-08 04:54:00 ESP12E-S1 9.00 7.33 52.60
7717 2019-05-08 04:25:48 ESP12E-S1 9.10 7.41 51.50
7716 2019-05-08 03:57:28 ESP12E-S1 9.00 7.35 53.30
7715 2019-05-08 03:29:14 ESP12E-S1 9.10 7.46 53.30
7714 2019-05-08 03:00:59 ESP12E-S1 9.20 7.57 53.30
7713 2019-05-08 02:33:11 ESP12E-S1 9.30 7.67 53.00
7712 2019-05-08 02:04:55 ESP12E-S1 9.40 7.80 53.60
7711 2019-05-08 01:37:00 ESP12E-S1 9.40 7.81 54.20
7710 2019-05-08 01:08:55 ESP12E-S1 9.50 7.91 53.60
7709 2019-05-08 00:40:43 ESP12E-S1 9.60 8.01 53.40
7708 2019-05-08 00:12:25 ESP12E-S1 9.70 8.09 52.40
7707 2019-05-07 23:44:28 ESP12E-S1 9.80 8.22 53.00
7706 2019-05-07 23:16:06 ESP12E-S1 10.00 8.40 51.40
7705 2019-05-07 22:47:53 ESP12E-S1 10.30 8.74 51.90
7704 2019-05-07 22:19:38 ESP12E-S1 10.50 8.94 51.10
7703 2019-05-07 21:51:25 ESP12E-S1 10.70 9.14 50.50
7702 2019-05-07 21:23:32 ESP12E-S1 11.00 9.46 49.80
7701 2019-05-07 20:55:13 ESP12E-S1 11.50 9.97 48.50
7700 2019-05-07 20:27:02 ESP12E-S1 12.30 10.82 47.30
7699 2019-05-07 19:58:51 ESP12E-S1 13.10 11.61 43.80
7698 2019-05-07 19:31:07 ESP12E-S1 14.10 12.65 41.40
7697 2019-05-07 19:03:23 ESP12E-S1 18.40 17.70 53.80
7696 2019-05-05 21:27:34 ESP12E-S1 8.00 7.44 99.10
7695 2019-05-05 20:59:03 ESP12E-S1 8.20 7.59 96.20
7694 2019-05-05 20:30:29 ESP12E-S1 8.70 7.42 68.60
7693 2019-05-05 20:01:54 ESP12E-S1 9.60 8.86 85.80
7692 2019-05-05 19:33:04 ESP12E-S1 10.40 8.83 51.30
7691 2019-05-05 19:04:13 ESP12E-S1 10.80 9.24 50.00
7690 2019-05-05 18:35:11 ESP12E-S1 11.20 9.57 45.90
7689 2019-05-05 18:06:40 ESP12E-S1 11.20 9.63 47.90
7688 2019-05-05 17:38:03 ESP12E-S1 11.90 10.35 46.00
7687 2019-05-05 17:09:34 ESP12E-S1 12.00 10.64 52.90
7686 2019-05-05 16:41:01 ESP12E-S1 12.30 10.78 45.80
7685 2019-05-05 16:12:27 ESP12E-S1 11.50 9.93 46.90
7684 2019-05-05 15:44:08 ESP12E-S1 12.80 11.36 47.00
7683 2019-05-05 15:15:09 ESP12E-S1 12.70 11.22 45.80
7682 2019-05-05 14:46:49 ESP12E-S1 13.40 11.98 45.40
7681 2019-05-05 14:18:06 ESP12E-S1 12.40 11.17 56.40
7680 2019-05-05 13:49:14 ESP12E-S1 10.80 9.15 46.60
7679 2019-05-05 13:20:33 ESP12E-S1 10.90 9.33 49.30
7678 2019-05-05 12:51:57 ESP12E-S1 11.50 10.02 50.30
7677 2019-05-05 12:23:11 ESP12E-S1 10.40 8.86 52.30
7676 2019-05-05 11:54:21 ESP12E-S1 10.20 8.94 63.70
7675 2019-05-05 11:25:57 ESP12E-S1 9.80 8.80 75.20
7674 2019-05-05 10:57:35 ESP12E-S1 10.70 9.50 64.00
7673 2019-05-05 10:28:31 ESP12E-S1 8.30 6.78 61.10
7672 2019-05-05 09:59:26 ESP12E-S1 7.10 5.49 62.30
7671 2019-05-05 09:30:44 ESP12E-S1 6.80 5.11 60.30
7670 2019-05-05 09:02:00 ESP12E-S1 5.90 4.20 63.40
7669 2019-05-05 08:33:17 ESP12E-S1 4.90 3.28 70.30
7668 2019-05-05 08:04:50 ESP12E-S1 3.90 2.73 91.30
7667 2019-05-05 07:36:12 ESP12E-S1 3.30 1.76 79.30
7666 2019-05-05 07:07:45 ESP12E-S1 3.00 1.41 78.60
7665 2019-05-05 06:39:16 ESP12E-S1 2.70 1.04 77.00
7664 2019-05-05 06:10:48 ESP12E-S1 2.90 1.22 75.60
7663 2019-05-05 05:42:21 ESP12E-S1 3.00 1.33 75.50
7662 2019-05-05 05:13:55 ESP12E-S1 3.20 1.54 75.10
7661 2019-05-05 04:45:29 ESP12E-S1 3.70 2.04 73.30
7660 2019-05-05 04:17:04 ESP12E-S1 3.90 2.24 72.70
7659 2019-05-05 03:48:38 ESP12E-S1 4.20 2.51 70.20
7658 2019-05-05 03:20:13 ESP12E-S1 4.70 3.04 69.40
7657 2019-05-05 02:51:47 ESP12E-S1 4.80 3.12 68.40
7656 2019-05-05 02:23:21 ESP12E-S1 5.00 3.34 68.50
7655 2019-05-05 01:54:55 ESP12E-S1 5.00 3.37 69.60
7654 2019-05-05 01:26:29 ESP12E-S1 5.10 3.48 69.60
7653 2019-05-05 00:58:05 ESP12E-S1 5.40 3.79 68.70
7652 2019-05-05 00:29:40 ESP12E-S1 5.60 3.98 67.50
7651 2019-05-05 00:01:14 ESP12E-S1 5.60 3.96 66.70
7650 2019-05-04 23:32:49 ESP12E-S1 5.50 3.87 67.70
7649 2019-05-04 23:04:27 ESP12E-S1 5.90 4.31 67.50
7648 2019-05-04 22:36:02 ESP12E-S1 6.10 4.53 67.60
7647 2019-05-04 22:07:39 ESP12E-S1 6.50 4.90 64.90
7646 2019-05-04 21:39:16 ESP12E-S1 6.80 5.18 63.10
7645 2019-05-04 21:10:55 ESP12E-S1 7.20 5.60 62.20
7644 2019-05-04 20:42:32 ESP12E-S1 7.70 6.12 60.90
7643 2019-05-04 20:14:08 ESP12E-S1 8.10 6.45 57.00
7642 2019-05-04 19:45:47 ESP12E-S1 8.40 6.84 59.10
7641 2019-05-04 19:17:27 ESP12E-S1 8.70 7.19 59.90
7640 2019-05-04 18:49:09 ESP12E-S1 9.90 8.43 56.70
7639 2019-05-04 18:20:51 ESP12E-S1 11.10 9.49 46.90
7638 2019-05-04 17:52:28 ESP12E-S1 11.50 10.01 49.80
7637 2019-05-04 17:24:04 ESP12E-S1 11.40 9.92 50.90
7636 2019-05-04 16:55:38 ESP12E-S1 11.40 10.05 55.70
7635 2019-05-04 16:27:12 ESP12E-S1 11.00 9.74 60.60
7634 2019-05-04 15:58:43 ESP12E-S1 9.80 8.37 58.80
7633 2019-05-04 15:30:25 ESP12E-S1 11.30 9.79 49.90
7632 2019-05-04 15:01:56 ESP12E-S1 10.70 9.11 49.30
7631 2019-05-04 14:33:31 ESP12E-S1 11.00 9.57 54.30
7630 2019-05-04 14:05:02 ESP12E-S1 9.70 8.25 58.50
7629 2019-05-04 13:36:31 ESP12E-S1 8.30 6.74 59.40
7628 2019-05-04 13:08:05 ESP12E-S1 8.60 7.10 60.70
7627 2019-05-04 12:39:41 ESP12E-S1 8.50 7.04 62.70
7626 2019-05-04 12:11:14 ESP12E-S1 8.20 6.73 63.20
7625 2019-05-04 11:42:48 ESP12E-S1 8.00 6.52 63.60
7624 2019-05-04 11:14:22 ESP12E-S1 7.60 6.14 66.00
7623 2019-05-04 10:45:54 ESP12E-S1 7.00 5.47 65.70
7622 2019-05-04 10:17:30 ESP12E-S1 7.00 5.60 70.60
7621 2019-05-04 09:49:02 ESP12E-S1 6.60 5.14 69.80
7620 2019-05-04 09:20:38 ESP12E-S1 6.70 5.21 68.20
7619 2019-05-04 08:52:15 ESP12E-S1 6.80 5.38 70.70
7618 2019-05-04 08:23:52 ESP12E-S1 7.10 5.78 73.30
7617 2019-05-04 07:55:30 ESP12E-S1 7.30 6.02 74.10
7616 2019-05-04 07:27:09 ESP12E-S1 7.80 6.53 72.60
7615 2019-05-04 06:58:48 ESP12E-S1 8.30 7.24 78.70
7614 2019-05-04 06:30:24 ESP12E-S1 8.60 7.69 83.20
7613 2019-05-04 06:02:01 ESP12E-S1 8.70 7.80 83.40
7612 2019-05-04 05:33:39 ESP12E-S1 8.80 7.80 78.90
7611 2019-05-04 05:05:17 ESP12E-S1 8.90 7.87 77.50
7610 2019-05-04 04:36:54 ESP12E-S1 8.90 7.74 72.70
7609 2019-05-04 04:08:31 ESP12E-S1 9.20 7.95 67.80
7608 2019-05-04 03:40:08 ESP12E-S1 9.50 8.09 60.60
7607 2019-05-04 03:11:45 ESP12E-S1 9.50 7.99 56.90
7606 2019-05-04 02:43:23 ESP12E-S1 9.60 8.09 56.40
7605 2019-05-04 02:15:01 ESP12E-S1 9.80 8.29 55.70
7604 2019-05-04 01:46:39 ESP12E-S1 9.90 8.36 54.30
7603 2019-05-04 01:18:17 ESP12E-S1 10.10 8.54 52.80
7602 2019-05-04 00:49:55 ESP12E-S1 10.40 8.85 51.90
7601 2019-05-04 00:21:33 ESP12E-S1 10.60 9.05 51.00
7600 2019-05-03 23:53:12 ESP12E-S1 10.80 9.24 49.90
7599 2019-05-03 23:24:51 ESP12E-S1 11.00 9.43 49.00
7598 2019-05-03 22:56:29 ESP12E-S1 11.20 9.64 48.30
7597 2019-05-03 22:28:15 ESP12E-S1 11.50 9.94 47.20
7596 2019-05-03 21:59:51 ESP12E-S1 11.70 10.12 45.90
7595 2019-05-03 21:31:30 ESP12E-S1 11.90 10.30 44.30
7594 2019-05-03 21:03:10 ESP12E-S1 12.30 10.70 42.80
7593 2019-05-03 20:34:55 ESP12E-S1 13.00 11.42 40.90
7592 2019-05-03 20:06:34 ESP12E-S1 13.50 11.95 40.00
7591 2019-05-03 19:38:14 ESP12E-S1 13.90 12.40 40.20
7590 2019-05-03 19:09:56 ESP12E-S1 14.60 13.10 37.80
7589 2019-05-03 18:41:43 ESP12E-S1 15.20 13.79 38.90
7588 2019-05-03 18:13:22 ESP12E-S1 15.70 14.29 36.80
7587 2019-05-03 17:45:01 ESP12E-S1 16.30 14.97 37.70
7586 2019-05-03 17:16:40 ESP12E-S1 16.60 15.28 36.80
7585 2019-05-03 16:48:19 ESP12E-S1 16.80 15.44 34.60
7584 2019-05-03 16:19:57 ESP12E-S1 16.80 15.49 36.50
7583 2019-05-03 15:51:38 ESP12E-S1 17.80 16.61 37.20
7582 2019-05-03 15:23:10 ESP12E-S1 17.40 16.22 39.30
7581 2019-05-03 14:55:02 ESP12E-S1 18.80 17.70 37.10
7580 2019-05-03 14:26:39 ESP12E-S1 19.30 18.29 38.50
7579 2019-05-03 13:58:05 ESP12E-S1 18.60 17.53 39.00
7578 2019-05-03 13:29:23 ESP12E-S1 15.80 14.52 41.70
7577 2019-05-03 13:00:50 ESP12E-S1 14.70 13.40 44.80
7576 2019-05-03 12:32:37 ESP12E-S1 16.20 15.06 45.20
7575 2019-05-03 12:04:26 ESP12E-S1 16.10 14.97 46.00
7574 2019-05-03 11:36:13 ESP12E-S1 16.00 14.86 46.20
7573 2019-05-03 11:07:40 ESP12E-S1 14.60 13.42 50.10
7572 2019-05-03 10:38:56 ESP12E-S1 12.40 11.12 54.60
7571 2019-05-03 10:10:25 ESP12E-S1 11.70 10.46 58.60
7570 2019-05-03 09:42:01 ESP12E-S1 11.40 10.20 61.60
7569 2019-05-03 09:13:36 ESP12E-S1 11.20 10.03 63.40
7568 2019-05-03 08:45:21 ESP12E-S1 10.70 9.57 67.00
7567 2019-05-03 08:16:56 ESP12E-S1 10.60 9.54 69.90
7566 2019-05-03 07:48:33 ESP12E-S1 10.60 9.56 70.60
7565 2019-05-03 07:20:09 ESP12E-S1 10.30 9.28 72.50
7564 2019-05-03 06:51:45 ESP12E-S1 10.10 9.08 73.20
7563 2019-05-03 06:23:24 ESP12E-S1 10.00 8.92 71.40
7562 2019-05-03 05:55:01 ESP12E-S1 9.90 8.76 69.60
7561 2019-05-03 05:26:39 ESP12E-S1 10.20 8.97 64.80
7560 2019-05-03 04:58:20 ESP12E-S1 10.60 9.36 62.90
7559 2019-05-03 04:29:59 ESP12E-S1 10.90 9.66 61.90
7558 2019-05-03 04:01:40 ESP12E-S1 11.30 10.12 62.70
7557 2019-05-03 03:33:21 ESP12E-S1 11.70 10.67 67.00
7556 2019-05-03 03:05:01 ESP12E-S1 12.00 11.07 69.50
7555 2019-05-03 02:36:41 ESP12E-S1 12.20 11.34 71.60
7554 2019-05-03 02:08:20 ESP12E-S1 12.40 11.43 66.60
7553 2019-05-03 01:39:57 ESP12E-S1 12.60 11.59 64.30
7552 2019-05-03 01:11:35 ESP12E-S1 12.70 11.66 62.60
7551 2019-05-03 00:43:15 ESP12E-S1 12.90 11.85 61.30
7550 2019-05-03 00:14:54 ESP12E-S1 13.20 12.14 59.90
7549 2019-05-02 23:46:34 ESP12E-S1 13.40 12.29 57.40
7548 2019-05-02 23:18:12 ESP12E-S1 13.80 12.70 56.20
7547 2019-05-02 22:49:51 ESP12E-S1 14.10 12.97 53.70
7546 2019-05-02 22:21:32 ESP12E-S1 14.50 13.41 53.90
7545 2019-05-02 21:53:21 ESP12E-S1 15.10 14.00 51.30
7544 2019-05-02 21:25:02 ESP12E-S1 15.90 14.82 48.70
7543 2019-05-02 20:56:44 ESP12E-S1 16.60 15.37 40.40
7542 2019-05-02 20:28:26 ESP12E-S1 17.20 15.98 38.60
7541 2019-05-02 20:00:09 ESP12E-S1 17.70 16.50 37.20
7540 2019-05-02 19:31:49 ESP12E-S1 18.30 17.12 35.90
7539 2019-05-02 19:03:29 ESP12E-S1 19.00 17.91 36.70
7538 2019-05-02 18:35:12 ESP12E-S1 19.70 18.74 38.70
7537 2019-05-02 18:06:53 ESP12E-S1 20.40 19.53 39.70
7536 2019-05-02 17:38:34 ESP12E-S1 20.90 20.08 39.60
7535 2019-05-02 17:10:14 ESP12E-S1 21.30 20.50 38.90
7534 2019-05-02 16:41:54 ESP12E-S1 21.90 21.16 38.80
7533 2019-05-02 16:13:32 ESP12E-S1 21.70 20.98 40.30
7532 2019-05-02 15:45:16 ESP12E-S1 22.40 21.68 37.90
7531 2019-05-02 15:16:48 ESP12E-S1 22.20 21.53 40.40
7530 2019-05-02 14:48:29 ESP12E-S1 22.80 22.18 40.00
7529 2019-05-02 14:20:16 ESP12E-S1 24.20 23.68 38.60
7528 2019-05-02 13:51:55 ESP12E-S1 23.90 23.38 39.60
7527 2019-05-02 13:23:37 ESP12E-S1 23.80 23.27 39.60
7526 2019-05-02 12:55:06 ESP12E-S1 22.80 22.23 41.90
7525 2019-05-02 12:26:33 ESP12E-S1 20.90 20.18 43.30
7524 2019-05-02 11:58:02 ESP12E-S1 19.30 18.56 48.90
7523 2019-05-02 11:29:40 ESP12E-S1 18.40 17.60 49.90
7522 2019-05-02 11:01:11 ESP12E-S1 17.00 16.16 53.90
7521 2019-05-02 10:32:28 ESP12E-S1 15.10 14.17 57.80
7520 2019-05-02 10:04:01 ESP12E-S1 14.20 13.24 59.90
7519 2019-05-02 09:35:36 ESP12E-S1 13.60 12.63 61.70
7518 2019-05-02 09:07:12 ESP12E-S1 13.20 12.29 65.70
7517 2019-05-02 08:38:44 ESP12E-S1 12.60 11.66 66.70
7516 2019-05-02 08:10:21 ESP12E-S1 12.10 11.25 72.20
7515 2019-05-02 07:41:55 ESP12E-S1 11.60 10.71 72.70
7514 2019-05-02 07:13:31 ESP12E-S1 11.10 10.11 70.50
7513 2019-05-02 06:45:10 ESP12E-S1 11.10 9.99 66.20
7512 2019-05-02 06:16:49 ESP12E-S1 11.40 10.25 63.50
7511 2019-05-02 05:48:30 ESP12E-S1 11.70 10.54 61.80
7510 2019-05-02 05:20:10 ESP12E-S1 12.20 11.03 59.40
7509 2019-05-02 04:51:51 ESP12E-S1 12.60 11.40 56.80
7508 2019-05-02 04:23:29 ESP12E-S1 12.90 11.70 55.60
7507 2019-05-02 03:55:09 ESP12E-S1 13.30 12.10 54.10
7506 2019-05-02 03:26:49 ESP12E-S1 13.50 12.29 52.90
7505 2019-05-02 02:58:26 ESP12E-S1 13.70 12.44 50.40
7504 2019-05-02 02:30:06 ESP12E-S1 13.80 12.53 49.40
7503 2019-05-02 02:01:44 ESP12E-S1 14.00 12.75 49.70
7502 2019-05-02 01:33:23 ESP12E-S1 14.10 12.87 49.80
7501 2019-05-02 01:05:02 ESP12E-S1 14.00 12.79 51.10
7500 2019-05-02 00:36:42 ESP12E-S1 14.30 13.11 50.90
7499 2019-05-02 00:08:21 ESP12E-S1 14.60 13.47 52.00
7498 2019-05-01 23:40:01 ESP12E-S1 14.70 13.61 53.10
7497 2019-05-01 23:11:42 ESP12E-S1 15.00 13.88 50.80
7496 2019-05-01 22:43:22 ESP12E-S1 15.30 14.11 46.90
7495 2019-05-01 22:15:02 ESP12E-S1 15.80 14.62 45.30
7494 2019-05-01 21:46:44 ESP12E-S1 16.30 15.16 45.00
7493 2019-05-01 21:18:26 ESP12E-S1 16.90 15.84 45.60
7492 2019-05-01 20:50:09 ESP12E-S1 17.70 16.72 45.90
7491 2019-05-01 20:21:51 ESP12E-S1 18.60 17.66 43.70
7490 2019-05-01 19:53:34 ESP12E-S1 19.30 18.41 43.00
7489 2019-05-01 19:25:18 ESP12E-S1 20.30 19.45 40.60
7488 2019-05-01 18:56:58 ESP12E-S1 20.80 19.92 37.60
7487 2019-05-01 18:28:36 ESP12E-S1 20.90 20.03 37.60
7486 2019-05-01 18:00:15 ESP12E-S1 20.90 19.98 35.90
7485 2019-05-01 17:31:57 ESP12E-S1 21.60 20.76 36.10
7484 2019-05-01 17:03:42 ESP12E-S1 22.80 22.05 35.20
7483 2019-05-01 16:35:23 ESP12E-S1 23.80 23.13 34.10
7482 2019-05-01 16:07:02 ESP12E-S1 24.20 23.58 34.80
7481 2019-05-01 15:38:45 ESP12E-S1 24.80 24.26 35.60
7480 2019-05-01 15:10:24 ESP12E-S1 25.30 24.77 33.80
7479 2019-05-01 14:42:09 ESP12E-S1 26.40 25.97 33.60
7478 2019-05-01 14:13:53 ESP12E-S1 26.20 25.79 35.10
7477 2019-05-01 13:45:30 ESP12E-S1 26.00 25.63 37.20
7476 2019-05-01 13:17:19 ESP12E-S1 25.30 24.91 39.20
7475 2019-05-01 12:48:21 ESP12E-S1 20.90 20.23 45.40
7474 2019-05-01 12:19:59 ESP12E-S1 19.20 18.39 46.60
7473 2019-05-01 11:51:44 ESP12E-S1 20.20 19.54 48.30
7472 2019-05-01 11:23:20 ESP12E-S1 20.10 19.46 49.40
7471 2019-05-01 10:54:45 ESP12E-S1 18.20 17.52 55.30
7470 2019-05-01 10:26:03 ESP12E-S1 16.00 15.24 60.50
7469 2019-05-01 09:57:33 ESP12E-S1 14.80 14.01 64.00
7468 2019-05-01 09:29:06 ESP12E-S1 13.70 12.81 64.60
7467 2019-05-01 09:00:40 ESP12E-S1 12.90 12.08 70.20
7466 2019-05-01 08:32:10 ESP12E-S1 11.90 11.09 74.30
7465 2019-05-01 08:03:44 ESP12E-S1 11.20 10.39 77.20
7464 2019-05-01 07:35:18 ESP12E-S1 10.50 9.66 78.70
7463 2019-05-01 07:06:54 ESP12E-S1 10.00 9.04 75.90
7462 2019-05-01 06:38:34 ESP12E-S1 10.10 9.10 74.00
7461 2019-05-01 06:10:13 ESP12E-S1 10.30 9.30 73.30
7460 2019-05-01 05:41:53 ESP12E-S1 10.60 9.60 72.30
7459 2019-05-01 05:13:34 ESP12E-S1 11.10 10.09 69.90
7458 2019-05-01 04:45:14 ESP12E-S1 11.40 10.37 67.90
7457 2019-05-01 04:16:54 ESP12E-S1 12.00 10.96 65.20
7456 2019-05-01 03:48:34 ESP12E-S1 12.50 11.43 62.20
7455 2019-05-01 03:20:12 ESP12E-S1 12.70 11.59 59.80
7454 2019-05-01 02:51:51 ESP12E-S1 12.80 11.65 57.90
7453 2019-05-01 02:23:30 ESP12E-S1 13.00 11.83 56.40
7452 2019-05-01 01:55:09 ESP12E-S1 13.10 11.92 55.70
7451 2019-05-01 01:26:49 ESP12E-S1 13.30 12.10 54.20
7450 2019-05-01 00:58:28 ESP12E-S1 13.50 12.29 52.90
7449 2019-05-01 00:30:06 ESP12E-S1 13.60 12.38 52.10
7448 2019-05-01 00:01:45 ESP12E-S1 13.80 12.57 51.20
7447 2019-04-30 23:33:23 ESP12E-S1 13.80 12.57 51.10
7446 2019-04-30 23:05:06 ESP12E-S1 14.00 12.76 50.00
7445 2019-04-30 22:36:46 ESP12E-S1 14.10 12.87 50.00
7444 2019-04-30 22:08:28 ESP12E-S1 14.60 13.37 48.20
7443 2019-04-30 21:40:08 ESP12E-S1 14.80 13.61 48.80
7442 2019-04-30 21:11:50 ESP12E-S1 15.60 14.44 47.00
7441 2019-04-30 20:43:34 ESP12E-S1 16.50 15.38 44.80
7440 2019-04-30 20:15:16 ESP12E-S1 17.30 16.21 43.20
7439 2019-04-30 19:46:57 ESP12E-S1 17.90 16.86 42.70
7438 2019-04-30 19:18:40 ESP12E-S1 18.50 17.49 41.60
7437 2019-04-30 18:50:22 ESP12E-S1 19.00 18.04 41.60
7436 2019-04-30 18:22:04 ESP12E-S1 19.90 19.03 41.40
7435 2019-04-30 17:53:46 ESP12E-S1 20.80 19.97 39.80
7434 2019-04-30 17:25:27 ESP12E-S1 21.30 20.54 40.50
7433 2019-04-30 16:57:06 ESP12E-S1 21.80 21.06 39.20
7432 2019-04-30 16:28:49 ESP12E-S1 22.20 21.49 39.00
7431 2019-04-30 16:00:30 ESP12E-S1 22.80 22.15 39.00
7430 2019-04-30 15:32:11 ESP12E-S1 23.60 22.99 37.30
7429 2019-04-30 15:03:51 ESP12E-S1 24.00 23.35 34.40
7428 2019-04-30 14:35:34 ESP12E-S1 25.40 24.86 33.20
7427 2019-04-30 14:07:11 ESP12E-S1 25.10 24.57 34.60
7426 2019-04-30 13:38:52 ESP12E-S1 25.10 24.59 35.30
7425 2019-04-30 13:10:21 ESP12E-S1 24.60 24.02 34.60
7424 2019-04-30 12:41:31 ESP12E-S1 21.50 20.73 39.40
7423 2019-04-30 12:13:10 ESP12E-S1 20.10 19.20 39.60
7422 2019-04-30 11:44:50 ESP12E-S1 19.30 18.46 45.00
7421 2019-04-30 11:16:17 ESP12E-S1 17.80 16.84 46.10
7420 2019-04-30 10:47:36 ESP12E-S1 15.60 14.57 51.90
7419 2019-04-30 10:18:59 ESP12E-S1 13.50 12.35 55.40
7418 2019-04-30 09:50:30 ESP12E-S1 12.40 11.17 56.50
7417 2019-04-30 09:22:04 ESP12E-S1 11.70 10.59 63.90
7416 2019-04-30 08:53:37 ESP12E-S1 10.90 9.95 72.90
7415 2019-04-30 08:25:14 ESP12E-S1 10.00 9.17 81.10
7414 2019-04-30 07:56:47 ESP12E-S1 9.50 8.74 85.50
7413 2019-04-30 07:28:24 ESP12E-S1 9.30 8.56 87.10
7412 2019-04-30 07:00:02 ESP12E-S1 9.20 8.47 87.70
7411 2019-04-30 06:31:43 ESP12E-S1 9.10 8.40 89.30
7410 2019-04-30 06:03:20 ESP12E-S1 8.90 8.17 89.00
7409 2019-04-30 05:35:00 ESP12E-S1 9.30 8.60 88.50
7408 2019-04-30 05:06:40 ESP12E-S1 9.50 8.82 88.80
7407 2019-04-30 04:38:19 ESP12E-S1 9.80 9.19 90.20
7406 2019-04-30 04:09:57 ESP12E-S1 9.90 9.33 91.40
7405 2019-04-30 03:41:35 ESP12E-S1 10.00 9.44 91.50
7404 2019-04-30 03:13:13 ESP12E-S1 10.00 9.43 91.00
7403 2019-04-30 02:44:51 ESP12E-S1 10.10 9.54 90.90
7402 2019-04-30 02:16:30 ESP12E-S1 10.10 9.57 91.90
7401 2019-04-30 01:48:08 ESP12E-S1 10.30 9.79 91.90
7400 2019-04-30 01:19:47 ESP12E-S1 10.40 9.92 93.00
7399 2019-04-30 00:51:26 ESP12E-S1 10.40 9.93 93.10
7398 2019-04-30 00:23:05 ESP12E-S1 10.60 10.14 92.80
7397 2019-04-29 23:54:42 ESP12E-S1 10.60 10.14 92.90
7396 2019-04-29 23:26:22 ESP12E-S1 10.60 10.15 93.20
7395 2019-04-29 22:58:00 ESP12E-S1 10.70 10.22 91.80
7394 2019-04-29 22:29:38 ESP12E-S1 10.70 10.20 90.90
7393 2019-04-29 22:01:17 ESP12E-S1 10.90 10.37 89.20
7392 2019-04-29 21:33:00 ESP12E-S1 11.00 10.40 86.10
7391 2019-04-29 21:04:38 ESP12E-S1 11.10 10.38 80.90
7390 2019-04-29 20:36:17 ESP12E-S1 11.20 10.47 80.20
7389 2019-04-29 20:08:00 ESP12E-S1 11.50 10.73 77.50
7388 2019-04-29 19:39:40 ESP12E-S1 11.70 10.93 76.90
7387 2019-04-29 19:11:19 ESP12E-S1 12.00 11.17 73.20
7386 2019-04-29 18:43:00 ESP12E-S1 12.40 11.60 73.00
7385 2019-04-29 18:14:41 ESP12E-S1 13.00 12.03 64.30
7384 2019-04-29 17:46:20 ESP12E-S1 13.30 12.21 58.50
7383 2019-04-29 17:18:04 ESP12E-S1 13.30 12.29 61.40
7382 2019-04-29 16:49:41 ESP12E-S1 13.50 12.60 64.80
7381 2019-04-29 16:21:20 ESP12E-S1 13.90 13.01 63.80
7380 2019-04-29 15:53:03 ESP12E-S1 14.50 13.58 60.40
7379 2019-04-29 15:24:44 ESP12E-S1 15.40 14.36 52.40
7378 2019-04-29 14:56:32 ESP12E-S1 15.70 14.67 51.50
7377 2019-04-29 14:28:13 ESP12E-S1 16.40 15.38 49.10
7376 2019-04-29 13:59:58 ESP12E-S1 17.10 16.18 50.20
7375 2019-04-29 13:31:14 ESP12E-S1 15.30 14.34 55.70
7374 2019-04-29 13:02:48 ESP12E-S1 14.10 13.05 56.70
7373 2019-04-29 12:34:28 ESP12E-S1 14.00 12.94 57.00
7372 2019-04-29 12:06:01 ESP12E-S1 13.50 12.50 60.90
7371 2019-04-29 11:37:41 ESP12E-S1 13.40 12.46 63.70
7370 2019-04-29 11:09:11 ESP12E-S1 12.70 11.75 66.00
7369 2019-04-29 10:40:43 ESP12E-S1 12.20 11.31 70.40
7368 2019-04-29 10:12:10 ESP12E-S1 10.90 10.04 76.20
7367 2019-04-29 09:43:41 ESP12E-S1 9.70 8.96 85.70
7366 2019-04-29 09:15:14 ESP12E-S1 8.80 8.06 89.20
7365 2019-04-29 08:46:46 ESP12E-S1 7.90 7.13 91.30
7364 2019-04-29 08:18:21 ESP12E-S1 7.20 6.37 91.60
7363 2019-04-29 07:49:56 ESP12E-S1 6.80 5.95 92.50
7362 2019-04-29 07:21:33 ESP12E-S1 6.30 5.36 91.10
7361 2019-04-29 06:53:12 ESP12E-S1 6.10 5.09 89.00
7360 2019-04-29 06:24:50 ESP12E-S1 6.00 4.93 87.10
7359 2019-04-29 05:56:31 ESP12E-S1 6.20 5.12 85.90
7358 2019-04-29 05:28:09 ESP12E-S1 6.20 5.11 85.60
7357 2019-04-29 04:59:47 ESP12E-S1 6.20 5.11 85.60
7356 2019-04-29 04:31:25 ESP12E-S1 6.20 5.14 86.60
7355 2019-04-29 04:03:05 ESP12E-S1 6.10 5.00 85.70
7354 2019-04-29 03:34:45 ESP12E-S1 6.40 5.31 84.80
7353 2019-04-29 03:06:26 ESP12E-S1 6.60 5.50 83.80
7352 2019-04-29 02:38:06 ESP12E-S1 6.90 5.82 83.20
7351 2019-04-29 02:09:45 ESP12E-S1 7.10 6.03 83.00
7350 2019-04-29 01:41:25 ESP12E-S1 7.20 6.15 83.30
7349 2019-04-29 01:13:04 ESP12E-S1 7.40 6.35 82.70
7348 2019-04-29 00:44:43 ESP12E-S1 7.60 6.55 81.70
7347 2019-04-29 00:16:22 ESP12E-S1 7.70 6.66 81.90
7346 2019-04-28 23:48:02 ESP12E-S1 7.80 6.74 80.60
7345 2019-04-28 23:19:45 ESP12E-S1 8.00 6.97 80.80
7344 2019-04-28 22:51:26 ESP12E-S1 8.40 7.38 79.70
7343 2019-04-28 22:23:06 ESP12E-S1 8.50 7.48 79.40
7342 2019-04-28 21:54:48 ESP12E-S1 9.00 8.01 78.50
7341 2019-04-28 21:26:32 ESP12E-S1 9.40 8.38 75.90
7340 2019-04-28 20:58:14 ESP12E-S1 9.90 8.88 74.00
7339 2019-04-28 20:29:56 ESP12E-S1 10.50 9.44 70.10
7338 2019-04-28 20:01:37 ESP12E-S1 11.00 9.81 63.20
7337 2019-04-28 19:33:16 ESP12E-S1 11.40 10.04 55.50
7336 2019-04-28 19:04:55 ESP12E-S1 11.50 10.37 63.60
7335 2019-04-28 18:36:34 ESP12E-S1 11.90 10.59 55.20
7334 2019-04-28 18:08:15 ESP12E-S1 12.10 10.81 55.30
7333 2019-04-28 17:39:51 ESP12E-S1 12.10 10.79 54.50
7332 2019-04-28 17:11:31 ESP12E-S1 12.10 10.78 54.00
7331 2019-04-28 16:43:12 ESP12E-S1 12.40 11.14 55.20
7330 2019-04-28 16:14:52 ESP12E-S1 12.80 11.58 55.50
7329 2019-04-28 15:46:30 ESP12E-S1 13.00 11.81 55.70
7328 2019-04-28 15:18:09 ESP12E-S1 13.00 11.82 56.10
7327 2019-04-28 14:49:41 ESP12E-S1 12.20 11.03 59.40
7326 2019-04-28 14:21:15 ESP12E-S1 11.80 10.59 59.40
7325 2019-04-28 13:52:51 ESP12E-S1 11.10 10.03 67.50
7324 2019-04-28 13:24:34 ESP12E-S1 11.30 10.18 65.00
7323 2019-04-28 12:56:19 ESP12E-S1 12.30 11.03 55.30
7322 2019-04-28 12:28:04 ESP12E-S1 13.80 12.74 57.50
7321 2019-04-28 11:59:44 ESP12E-S1 12.50 11.41 61.60
7320 2019-04-28 11:30:58 ESP12E-S1 10.30 9.24 71.10
7319 2019-04-28 11:02:34 ESP12E-S1 9.10 8.15 79.90
7318 2019-04-28 10:34:09 ESP12E-S1 8.60 7.63 81.00
7317 2019-04-28 10:05:46 ESP12E-S1 8.40 7.43 81.80
7316 2019-04-28 09:37:22 ESP12E-S1 8.10 7.18 85.00
7315 2019-04-28 09:08:56 ESP12E-S1 7.60 6.72 88.20
7314 2019-04-28 08:40:30 ESP12E-S1 7.00 6.14 91.40
7313 2019-04-28 08:12:03 ESP12E-S1 6.40 5.49 91.70
7312 2019-04-28 07:43:41 ESP12E-S1 6.10 5.18 92.30
7311 2019-04-28 07:15:18 ESP12E-S1 5.90 4.95 92.20
7310 2019-04-28 06:46:57 ESP12E-S1 5.60 4.64 92.70
7309 2019-04-28 06:18:35 ESP12E-S1 5.70 4.72 91.70
7308 2019-04-28 05:50:16 ESP12E-S1 5.80 4.84 92.00
7307 2019-04-28 05:21:58 ESP12E-S1 6.10 5.17 92.20
7306 2019-04-28 04:53:38 ESP12E-S1 6.60 5.72 92.00
7305 2019-04-28 04:25:19 ESP12E-S1 6.90 6.03 91.50
7304 2019-04-28 03:56:59 ESP12E-S1 6.90 6.05 92.10
7303 2019-04-28 03:28:38 ESP12E-S1 7.10 6.26 91.80
7302 2019-04-28 03:00:21 ESP12E-S1 7.50 6.68 91.10
7301 2019-04-28 02:32:00 ESP12E-S1 7.60 6.82 92.10
7300 2019-04-28 02:03:40 ESP12E-S1 7.70 6.91 91.40
7299 2019-04-28 01:35:19 ESP12E-S1 7.70 6.92 91.70
7298 2019-04-28 01:07:01 ESP12E-S1 7.90 7.15 91.90
7297 2019-04-28 00:38:41 ESP12E-S1 7.90 7.14 91.80
7296 2019-04-28 00:10:21 ESP12E-S1 8.10 7.37 92.20
7295 2019-04-27 23:42:00 ESP12E-S1 8.20 7.50 92.70
7294 2019-04-27 23:13:39 ESP12E-S1 8.20 7.49 92.30
7293 2019-04-27 22:45:18 ESP12E-S1 8.30 7.61 92.80
7292 2019-04-27 22:16:57 ESP12E-S1 8.40 7.66 90.70
7291 2019-04-27 21:48:39 ESP12E-S1 8.60 7.85 89.50
7290 2019-04-27 21:20:19 ESP12E-S1 8.80 8.09 90.30
7289 2019-04-27 20:51:59 ESP12E-S1 9.00 8.33 90.90
7288 2019-04-27 20:23:38 ESP12E-S1 9.20 8.47 88.00
7287 2019-04-27 19:55:18 ESP12E-S1 9.50 8.75 85.90
7286 2019-04-27 19:26:59 ESP12E-S1 10.00 9.22 82.90
7285 2019-04-27 18:58:43 ESP12E-S1 10.20 9.45 83.10
7284 2019-04-27 18:30:22 ESP12E-S1 10.60 10.09 90.80
7283 2019-04-27 18:01:59 ESP12E-S1 10.60 10.08 90.60
7282 2019-04-27 17:33:39 ESP12E-S1 10.90 10.38 89.30
7281 2019-04-27 17:05:17 ESP12E-S1 10.80 10.26 89.10
7280 2019-04-27 16:36:50 ESP12E-S1 9.70 9.13 91.90
7279 2019-04-27 16:08:31 ESP12E-S1 10.10 9.39 85.20
7278 2019-04-27 15:40:12 ESP12E-S1 10.50 9.91 88.10
7277 2019-04-27 15:11:59 ESP12E-S1 12.10 11.83 94.30
7276 2019-04-27 14:43:31 ESP12E-S1 11.90 11.58 93.40
7275 2019-04-27 14:15:04 ESP12E-S1 11.20 10.89 96.30
7274 2019-04-27 13:46:43 ESP12E-S1 11.30 10.97 95.30
7273 2019-04-27 13:18:21 ESP12E-S1 11.10 10.74 94.60
7272 2019-04-27 12:50:01 ESP12E-S1 11.10 10.63 90.50
7271 2019-04-27 12:21:40 ESP12E-S1 11.30 10.90 92.40
7270 2019-04-27 11:53:17 ESP12E-S1 11.20 10.85 94.70
7269 2019-04-27 11:24:50 ESP12E-S1 10.30 9.88 95.60
7268 2019-04-27 10:56:29 ESP12E-S1 10.30 9.86 94.90
7267 2019-04-27 10:28:08 ESP12E-S1 10.40 9.94 93.60
7266 2019-04-27 09:59:47 ESP12E-S1 10.40 9.91 92.50
7265 2019-04-27 09:31:26 ESP12E-S1 10.50 10.02 92.30
7264 2019-04-27 09:03:06 ESP12E-S1 10.50 10.02 92.60
7263 2019-04-27 08:34:40 ESP12E-S1 11.30 10.95 94.20
7262 2019-04-27 08:06:14 ESP12E-S1 9.20 8.64 94.50
7261 2019-04-27 07:37:49 ESP12E-S1 8.60 7.99 94.90
7260 2019-04-27 07:09:27 ESP12E-S1 8.30 7.62 93.30
7259 2019-04-27 06:41:06 ESP12E-S1 8.20 7.49 92.50
7258 2019-04-27 06:12:46 ESP12E-S1 8.30 7.61 92.90
7257 2019-04-27 05:44:25 ESP12E-S1 8.30 7.58 91.60
7256 2019-04-27 05:16:04 ESP12E-S1 8.60 7.91 91.60
7255 2019-04-27 04:47:45 ESP12E-S1 8.80 8.13 91.60
7254 2019-04-27 04:19:25 ESP12E-S1 9.10 8.47 91.90
7253 2019-04-27 03:51:06 ESP12E-S1 9.40 8.81 92.40
7252 2019-04-27 03:22:47 ESP12E-S1 9.60 9.03 92.30
7251 2019-04-27 02:54:27 ESP12E-S1 10.00 9.47 92.40
7250 2019-04-27 02:26:08 ESP12E-S1 10.30 9.81 92.90
7249 2019-04-27 01:57:51 ESP12E-S1 10.50 10.00 91.70
7248 2019-04-27 01:29:29 ESP12E-S1 10.50 9.98 91.00
7247 2019-04-27 01:01:09 ESP12E-S1 10.60 10.00 87.40
7246 2019-04-27 00:32:46 ESP12E-S1 10.50 9.89 87.40
7245 2019-04-27 00:04:25 ESP12E-S1 10.50 9.91 88.40
7244 2019-04-26 23:36:06 ESP12E-S1 10.90 10.43 91.20
7243 2019-04-26 23:07:46 ESP12E-S1 11.10 10.64 90.80
7242 2019-04-26 22:39:24 ESP12E-S1 11.30 10.83 89.80
7241 2019-04-26 22:11:03 ESP12E-S1 11.40 10.94 89.80
7240 2019-04-26 21:42:44 ESP12E-S1 11.60 11.16 89.80
7239 2019-04-26 21:14:23 ESP12E-S1 11.80 11.35 88.80
7238 2019-04-26 20:46:04 ESP12E-S1 12.10 11.65 87.40
7237 2019-04-26 20:17:45 ESP12E-S1 11.30 10.72 85.50
7236 2019-04-26 19:49:25 ESP12E-S1 12.80 12.23 80.10
7235 2019-04-26 19:21:05 ESP12E-S1 13.10 12.46 76.20
7234 2019-04-26 18:52:45 ESP12E-S1 13.40 12.72 73.80
7233 2019-04-26 18:24:24 ESP12E-S1 13.30 12.68 76.20
7232 2019-04-26 17:56:02 ESP12E-S1 13.10 12.54 79.60
7231 2019-04-26 17:27:43 ESP12E-S1 13.30 12.64 74.90
7230 2019-04-26 16:59:24 ESP12E-S1 13.50 12.91 76.70
7229 2019-04-26 16:31:03 ESP12E-S1 13.50 13.02 81.00
7228 2019-04-26 16:02:40 ESP12E-S1 13.20 12.80 85.10
7227 2019-04-26 15:34:12 ESP12E-S1 12.20 11.74 86.80
7226 2019-04-26 15:05:56 ESP12E-S1 12.40 11.92 85.10
7225 2019-04-26 14:37:37 ESP12E-S1 12.70 12.24 84.80
7224 2019-04-26 14:09:15 ESP12E-S1 12.70 12.31 87.40
7223 2019-04-26 13:40:51 ESP12E-S1 12.30 11.90 88.60
7222 2019-04-26 13:12:29 ESP12E-S1 12.10 11.72 90.30
7221 2019-04-26 12:44:08 ESP12E-S1 12.00 11.53 87.10
7220 2019-04-26 12:15:47 ESP12E-S1 12.10 11.66 87.90
7219 2019-04-26 11:47:31 ESP12E-S1 11.90 11.41 86.70
7218 2019-04-26 11:19:07 ESP12E-S1 11.80 11.35 88.50
7217 2019-04-26 10:50:47 ESP12E-S1 11.70 11.19 86.60
7216 2019-04-26 10:22:25 ESP12E-S1 12.10 11.56 84.10
7215 2019-04-26 09:54:02 ESP12E-S1 11.40 10.75 82.70
7214 2019-04-26 09:25:41 ESP12E-S1 11.20 10.54 82.90
7213 2019-04-26 08:57:20 ESP12E-S1 11.20 10.49 81.00
7212 2019-04-26 08:29:01 ESP12E-S1 11.40 10.63 77.90
7211 2019-04-26 08:00:41 ESP12E-S1 11.60 10.74 73.80
7210 2019-04-26 07:32:21 ESP12E-S1 11.60 10.64 70.00
7209 2019-04-26 07:04:01 ESP12E-S1 11.80 10.73 64.80
7208 2019-04-26 06:35:41 ESP12E-S1 11.90 10.73 60.50
7207 2019-04-26 06:07:21 ESP12E-S1 12.00 10.81 59.50
7206 2019-04-26 05:38:59 ESP12E-S1 12.10 10.89 58.50
7205 2019-04-26 05:10:39 ESP12E-S1 12.20 10.97 57.40
7204 2019-04-26 04:42:18 ESP12E-S1 12.20 10.95 56.50
7203 2019-04-26 04:13:58 ESP12E-S1 12.10 10.83 55.90
7202 2019-04-26 03:45:38 ESP12E-S1 11.90 10.62 56.60
7201 2019-04-26 03:17:20 ESP12E-S1 12.30 11.02 54.90
7200 2019-04-26 02:49:02 ESP12E-S1 12.80 11.52 53.20
7199 2019-04-26 02:20:45 ESP12E-S1 13.40 12.13 51.30
7198 2019-04-26 01:52:28 ESP12E-S1 14.00 12.69 47.10
7197 2019-04-26 01:24:07 ESP12E-S1 14.20 12.90 47.00
7196 2019-04-26 00:55:48 ESP12E-S1 14.40 13.11 46.60
7195 2019-04-26 00:27:30 ESP12E-S1 14.80 13.55 46.40
7194 2019-04-25 23:59:10 ESP12E-S1 15.10 13.92 47.90
7193 2019-04-25 23:30:52 ESP12E-S1 15.60 14.45 47.30
7192 2019-04-25 23:02:34 ESP12E-S1 16.10 14.98 46.40
7191 2019-04-25 22:34:13 ESP12E-S1 16.40 15.31 46.70
7190 2019-04-25 22:05:56 ESP12E-S1 16.80 15.74 46.00
7189 2019-04-25 21:37:40 ESP12E-S1 17.80 16.81 45.00
7188 2019-04-25 21:09:24 ESP12E-S1 18.70 17.78 44.10
7187 2019-04-25 20:41:11 ESP12E-S1 20.00 19.18 42.90
7186 2019-04-25 20:13:09 ESP12E-S1 21.50 20.80 42.00
7185 2019-04-25 19:44:49 ESP12E-S1 22.50 21.79 37.90
7184 2019-04-25 19:16:31 ESP12E-S1 22.90 22.16 35.20
7183 2019-04-25 18:48:11 ESP12E-S1 23.30 22.58 34.30
7182 2019-04-25 18:19:52 ESP12E-S1 23.50 22.85 36.20
7181 2019-04-25 17:51:34 ESP12E-S1 23.70 23.06 35.90
7180 2019-04-25 17:23:13 ESP12E-S1 23.80 23.22 37.80
7179 2019-04-25 16:54:54 ESP12E-S1 24.10 23.55 37.60
7178 2019-04-25 16:26:38 ESP12E-S1 24.70 24.25 39.40
7177 2019-04-25 15:58:19 ESP12E-S1 24.60 24.13 38.80
7176 2019-04-25 15:30:00 ESP12E-S1 24.90 24.41 37.10
7175 2019-04-25 15:01:39 ESP12E-S1 25.40 24.95 36.60
7174 2019-04-25 14:33:13 ESP12E-S1 26.50 26.39 37.10
7173 2019-04-25 14:04:43 ESP12E-S1 25.40 25.01 38.90
7172 2019-04-25 13:36:09 ESP12E-S1 22.60 21.99 41.10
7171 2019-04-25 13:07:43 ESP12E-S1 21.90 21.27 43.10
7170 2019-04-25 12:39:20 ESP12E-S1 20.70 19.99 44.70
7169 2019-04-25 12:10:50 ESP12E-S1 18.80 17.99 48.10
7168 2019-04-25 11:42:27 ESP12E-S1 18.40 17.50 46.30
7167 2019-04-25 11:14:03 ESP12E-S1 17.60 16.66 47.70
7166 2019-04-25 10:45:37 ESP12E-S1 17.00 16.04 49.30
7165 2019-04-25 10:17:06 ESP12E-S1 15.40 14.33 51.00
7164 2019-04-25 09:48:38 ESP12E-S1 14.50 13.39 53.20
7163 2019-04-25 09:20:12 ESP12E-S1 13.60 12.54 58.40
7162 2019-04-25 08:51:46 ESP12E-S1 12.80 11.73 61.00
7161 2019-04-25 08:23:20 ESP12E-S1 11.90 10.80 63.50
7160 2019-04-25 07:54:57 ESP12E-S1 11.40 10.32 66.00
7159 2019-04-25 07:26:37 ESP12E-S1 11.10 9.97 65.10
7158 2019-04-25 06:58:20 ESP12E-S1 10.70 9.58 67.20
7157 2019-04-25 06:29:58 ESP12E-S1 10.60 9.47 67.10
7156 2019-04-25 06:01:35 ESP12E-S1 10.40 9.26 67.50
7155 2019-04-25 05:33:16 ESP12E-S1 10.40 9.27 67.90
7154 2019-04-25 05:04:57 ESP12E-S1 10.50 9.38 68.00
7153 2019-04-25 04:36:38 ESP12E-S1 10.70 9.59 67.50
7152 2019-04-25 04:08:17 ESP12E-S1 10.80 9.71 67.90
7151 2019-04-25 03:39:57 ESP12E-S1 10.90 9.82 68.10
7150 2019-04-25 03:11:36 ESP12E-S1 11.20 10.15 67.90
7149 2019-04-25 02:43:16 ESP12E-S1 11.40 10.35 67.10
7148 2019-04-25 02:14:56 ESP12E-S1 11.40 10.37 67.80
7147 2019-04-25 01:46:36 ESP12E-S1 11.70 10.70 67.90
7146 2019-04-25 01:18:17 ESP12E-S1 11.90 10.89 66.70
7145 2019-04-25 00:49:59 ESP12E-S1 12.40 11.36 63.70
7144 2019-04-25 00:21:38 ESP12E-S1 12.50 11.43 62.20
7143 2019-04-24 23:53:20 ESP12E-S1 12.50 11.43 62.40
7142 2019-04-24 23:25:01 ESP12E-S1 12.90 11.85 61.60
7141 2019-04-24 22:56:43 ESP12E-S1 13.30 12.27 60.60
7140 2019-04-24 22:28:25 ESP12E-S1 13.60 12.55 58.60
7139 2019-04-24 22:00:10 ESP12E-S1 14.10 13.00 55.10
7138 2019-04-24 21:31:52 ESP12E-S1 14.40 13.27 52.60
7137 2019-04-24 21:03:37 ESP12E-S1 15.40 14.29 49.40
7136 2019-04-24 20:35:24 ESP12E-S1 16.50 15.50 49.40
7135 2019-04-24 20:07:12 ESP12E-S1 17.90 16.98 47.30
7134 2019-04-24 19:39:09 ESP12E-S1 21.40 20.69 42.10
7133 2019-04-24 19:11:00 ESP12E-S1 23.40 22.81 39.00
7132 2019-04-24 18:42:49 ESP12E-S1 25.00 24.52 36.90
7131 2019-04-24 18:14:31 ESP12E-S1 25.80 25.37 35.90
7130 2019-04-24 17:46:15 ESP12E-S1 26.50 26.10 34.10
7129 2019-04-24 17:17:56 ESP12E-S1 27.50 26.93 34.00
7128 2019-04-24 16:49:36 ESP12E-S1 27.70 27.15 35.50
7127 2019-04-24 16:21:19 ESP12E-S1 28.00 27.36 35.10
7126 2019-04-24 15:53:00 ESP12E-S1 28.40 27.70 35.40
7125 2019-04-24 15:24:56 ESP12E-S1 28.60 27.95 36.50
7124 2019-04-24 14:56:38 ESP12E-S1 29.60 28.75 34.80
7123 2019-04-24 14:28:16 ESP12E-S1 30.70 29.95 35.30
7122 2019-04-24 14:00:02 ESP12E-S1 30.90 30.00 33.70
7121 2019-04-24 13:31:48 ESP12E-S1 31.30 30.40 33.30
7120 2019-04-24 13:03:12 ESP12E-S1 29.80 29.01 35.50
7119 2019-04-24 12:34:09 ESP12E-S1 24.70 24.32 42.00
7118 2019-04-24 12:05:51 ESP12E-S1 24.40 24.01 42.50
7117 2019-04-24 11:37:24 ESP12E-S1 23.00 22.51 44.10
7116 2019-04-24 11:08:50 ESP12E-S1 21.50 20.91 46.00
7115 2019-04-24 10:40:09 ESP12E-S1 19.50 18.78 48.80
7114 2019-04-24 10:11:38 ESP12E-S1 18.40 17.60 50.00
7113 2019-04-24 09:43:11 ESP12E-S1 17.30 16.43 51.60
7112 2019-04-24 09:14:45 ESP12E-S1 16.50 15.56 51.70
7111 2019-04-24 08:46:21 ESP12E-S1 16.00 14.99 51.10
7110 2019-04-24 08:17:53 ESP12E-S1 15.00 13.95 53.40
7109 2019-04-24 07:49:31 ESP12E-S1 14.80 13.76 54.60
7108 2019-04-24 07:21:10 ESP12E-S1 14.30 13.24 55.70
7107 2019-04-24 06:52:50 ESP12E-S1 14.30 13.22 54.80
7106 2019-04-24 06:24:30 ESP12E-S1 14.60 13.51 53.30
7105 2019-04-24 05:56:10 ESP12E-S1 14.80 13.71 52.50
7104 2019-04-24 05:27:50 ESP12E-S1 14.90 13.81 52.40
7103 2019-04-24 04:59:30 ESP12E-S1 15.20 14.13 51.70
7102 2019-04-24 04:31:11 ESP12E-S1 15.50 14.43 50.60
7101 2019-04-24 04:02:52 ESP12E-S1 15.90 14.85 49.90
7100 2019-04-24 03:34:32 ESP12E-S1 16.30 15.26 48.90
7099 2019-04-24 03:06:13 ESP12E-S1 16.60 15.58 48.50
7098 2019-04-24 02:37:55 ESP12E-S1 16.90 15.89 47.70
7097 2019-04-24 02:09:37 ESP12E-S1 17.20 16.20 47.00
7096 2019-04-24 01:41:20 ESP12E-S1 17.70 16.73 46.00
7095 2019-04-24 01:13:00 ESP12E-S1 17.80 16.82 45.30
7094 2019-04-24 00:44:39 ESP12E-S1 18.00 17.04 45.30
7093 2019-04-24 00:16:20 ESP12E-S1 18.00 17.02 44.70
7092 2019-04-23 23:48:00 ESP12E-S1 18.00 17.03 45.00
7091 2019-04-23 23:19:42 ESP12E-S1 18.20 17.25 45.00
7090 2019-04-23 22:51:21 ESP12E-S1 18.50 17.56 44.30
7089 2019-04-23 22:23:02 ESP12E-S1 18.60 17.66 43.90
7088 2019-04-23 21:54:43 ESP12E-S1 18.90 18.00 44.40
7087 2019-04-23 21:26:25 ESP12E-S1 19.30 18.44 44.40
7086 2019-04-23 20:58:08 ESP12E-S1 19.80 18.96 43.10
7085 2019-04-23 20:29:49 ESP12E-S1 20.40 19.61 42.50
7084 2019-04-23 20:01:30 ESP12E-S1 20.90 20.12 41.00
7083 2019-04-23 19:33:12 ESP12E-S1 21.50 20.74 39.50
7082 2019-04-23 19:04:55 ESP12E-S1 22.00 21.27 39.00
7081 2019-04-23 18:36:39 ESP12E-S1 22.70 21.96 35.90
7080 2019-04-23 18:08:22 ESP12E-S1 23.40 22.69 34.10
7079 2019-04-23 17:40:04 ESP12E-S1 24.00 23.38 35.30
7078 2019-04-23 17:11:50 ESP12E-S1 24.90 24.33 33.70
7077 2019-04-23 16:43:33 ESP12E-S1 25.50 24.94 31.80
7076 2019-04-23 16:15:13 ESP12E-S1 25.80 25.27 32.00
7075 2019-04-23 15:46:52 ESP12E-S1 26.00 25.50 32.40
7074 2019-04-23 15:18:35 ESP12E-S1 26.60 26.29 32.90
7073 2019-04-23 14:50:21 ESP12E-S1 27.00 26.47 31.30
7072 2019-04-23 14:21:51 ESP12E-S1 26.50 26.06 32.80
7071 2019-04-23 13:53:27 ESP12E-S1 25.10 24.55 33.90
7070 2019-04-23 13:25:02 ESP12E-S1 24.50 23.93 35.60
7069 2019-04-23 12:56:33 ESP12E-S1 23.60 22.93 35.20
7068 2019-04-23 12:28:00 ESP12E-S1 21.40 20.58 37.60
7067 2019-04-23 11:59:33 ESP12E-S1 20.40 19.48 37.90
7066 2019-04-23 11:31:04 ESP12E-S1 19.00 18.00 39.90
7065 2019-04-23 11:02:34 ESP12E-S1 17.80 16.70 40.90
7064 2019-04-23 10:34:08 ESP12E-S1 16.80 15.60 40.70
7063 2019-04-23 10:05:44 ESP12E-S1 16.10 14.83 40.80
7062 2019-04-23 09:37:19 ESP12E-S1 15.60 14.29 41.30
7061 2019-04-23 09:08:55 ESP12E-S1 15.20 13.85 41.20
7060 2019-04-23 08:40:32 ESP12E-S1 14.80 13.41 41.20
7059 2019-04-23 08:12:09 ESP12E-S1 14.40 12.97 41.20
7058 2019-04-23 07:43:52 ESP12E-S1 14.10 12.64 41.10
7057 2019-04-23 07:15:31 ESP12E-S1 14.10 12.62 40.20
7056 2019-04-23 06:47:10 ESP12E-S1 14.00 12.49 39.70
7055 2019-04-23 06:18:50 ESP12E-S1 14.20 12.69 38.80
7054 2019-04-23 05:50:31 ESP12E-S1 14.30 12.76 37.40
7053 2019-04-23 05:22:12 ESP12E-S1 14.50 12.97 36.80
7052 2019-04-23 04:53:53 ESP12E-S1 14.70 13.17 36.10
7051 2019-04-23 04:25:34 ESP12E-S1 14.90 13.38 35.90
7050 2019-04-23 03:57:14 ESP12E-S1 15.00 13.47 35.10
7049 2019-04-23 03:28:55 ESP12E-S1 15.30 13.78 34.30
7048 2019-04-23 03:00:36 ESP12E-S1 15.50 13.97 33.20
7047 2019-04-23 02:32:18 ESP12E-S1 15.80 14.29 32.70
7046 2019-04-23 02:03:59 ESP12E-S1 16.20 14.71 32.00
7045 2019-04-23 01:35:41 ESP12E-S1 16.50 15.04 31.80
7044 2019-04-23 01:07:23 ESP12E-S1 16.80 15.36 31.60
7043 2019-04-23 00:39:05 ESP12E-S1 17.10 15.68 31.30
7042 2019-04-23 00:10:48 ESP12E-S1 17.50 16.10 30.50
7041 2019-04-22 23:42:31 ESP12E-S1 18.00 16.64 30.10
7040 2019-04-22 23:14:14 ESP12E-S1 18.50 17.19 30.00
7039 2019-04-22 22:45:57 ESP12E-S1 19.00 17.73 29.80
7038 2019-04-22 22:17:40 ESP12E-S1 19.50 18.29 29.90
7037 2019-04-22 21:49:25 ESP12E-S1 20.10 18.94 29.60
7036 2019-04-22 21:21:08 ESP12E-S1 20.80 19.71 29.60
7035 2019-04-22 20:52:53 ESP12E-S1 21.70 20.69 29.10
7034 2019-04-22 20:24:41 ESP12E-S1 22.70 21.77 28.70
7033 2019-04-22 19:56:24 ESP12E-S1 23.80 22.94 27.00
7032 2019-04-22 19:28:09 ESP12E-S1 24.40 23.55 25.10
7031 2019-04-22 18:59:55 ESP12E-S1 25.30 24.55 25.50
7030 2019-04-22 18:31:41 ESP12E-S1 26.30 25.61 24.00
7029 2019-04-22 18:03:26 ESP12E-S1 27.10 26.24 23.10
7028 2019-04-22 17:35:09 ESP12E-S1 27.60 26.54 22.40
7027 2019-04-22 17:06:49 ESP12E-S1 27.90 26.75 22.70
7026 2019-04-22 16:38:30 ESP12E-S1 28.20 26.93 22.00
7025 2019-04-22 16:10:15 ESP12E-S1 28.70 27.29 21.90
7024 2019-04-22 15:41:59 ESP12E-S1 29.50 27.90 21.80
7023 2019-04-22 15:13:44 ESP12E-S1 30.20 28.49 22.50
7022 2019-04-22 14:45:37 ESP12E-S1 31.90 30.03 22.50
7021 2019-04-22 14:17:08 ESP12E-S1 31.70 29.82 22.10
7020 2019-04-22 13:48:56 ESP12E-S1 31.40 29.58 22.80
7019 2019-04-22 13:20:46 ESP12E-S1 32.70 30.92 23.60
7018 2019-04-22 12:51:50 ESP12E-S1 30.00 28.43 24.80
7017 2019-04-22 12:23:10 ESP12E-S1 25.30 24.60 27.30
7016 2019-04-22 11:54:43 ESP12E-S1 24.50 23.79 29.90
7015 2019-04-22 11:26:13 ESP12E-S1 22.90 22.05 31.00
7014 2019-04-22 10:57:35 ESP12E-S1 20.80 19.78 32.40
7013 2019-04-22 10:29:04 ESP12E-S1 19.40 18.23 31.90
7012 2019-04-22 10:00:35 ESP12E-S1 18.10 16.82 32.90
7011 2019-04-22 09:32:07 ESP12E-S1 17.20 15.86 33.70
7010 2019-04-22 09:03:42 ESP12E-S1 16.50 15.10 34.20
7009 2019-04-22 08:35:14 ESP12E-S1 15.80 14.35 35.00
7008 2019-04-22 08:06:51 ESP12E-S1 15.40 13.90 34.80
7007 2019-04-22 07:38:27 ESP12E-S1 15.10 13.59 35.50
7006 2019-04-22 07:10:06 ESP12E-S1 15.00 13.50 36.00
7005 2019-04-22 06:41:45 ESP12E-S1 15.10 13.58 35.00
7004 2019-04-22 06:13:27 ESP12E-S1 15.10 13.58 35.10
7003 2019-04-22 05:45:05 ESP12E-S1 15.20 13.68 34.60
7002 2019-04-22 05:16:43 ESP12E-S1 15.30 13.79 34.70
7001 2019-04-22 04:48:24 ESP12E-S1 15.50 14.00 34.40
7000 2019-04-22 04:20:04 ESP12E-S1 15.80 14.32 34.00
6999 2019-04-22 03:51:45 ESP12E-S1 16.00 14.55 34.20
6998 2019-04-22 03:23:24 ESP12E-S1 16.40 14.97 33.50
6997 2019-04-22 02:55:04 ESP12E-S1 16.70 15.29 33.20
6996 2019-04-22 02:26:43 ESP12E-S1 16.90 15.52 33.50
6995 2019-04-22 01:58:24 ESP12E-S1 17.20 15.85 33.40
6994 2019-04-22 01:30:03 ESP12E-S1 17.40 16.06 33.00
6993 2019-04-22 01:01:44 ESP12E-S1 17.60 16.27 32.70
6992 2019-04-22 00:33:24 ESP12E-S1 17.60 16.25 32.00
6991 2019-04-22 00:05:08 ESP12E-S1 17.80 16.44 31.00
6990 2019-04-21 23:36:47 ESP12E-S1 18.10 16.75 30.00
6989 2019-04-21 23:08:27 ESP12E-S1 18.40 17.09 30.40
6988 2019-04-21 22:40:09 ESP12E-S1 18.90 17.66 31.20
6987 2019-04-21 22:11:51 ESP12E-S1 19.40 18.20 30.70
6986 2019-04-21 21:43:33 ESP12E-S1 20.10 18.95 30.10
6985 2019-04-21 21:15:17 ESP12E-S1 20.70 19.63 30.70
6984 2019-04-21 20:47:03 ESP12E-S1 21.60 20.60 30.00
6983 2019-04-21 20:18:46 ESP12E-S1 22.50 21.53 27.90
6982 2019-04-21 19:50:29 ESP12E-S1 23.30 22.41 27.70
6981 2019-04-21 19:22:12 ESP12E-S1 24.20 23.34 25.60
6980 2019-04-21 18:53:56 ESP12E-S1 24.90 24.06 23.50
6979 2019-04-21 18:25:40 ESP12E-S1 25.80 25.06 23.80
6978 2019-04-21 17:57:23 ESP12E-S1 26.40 25.75 24.90
6977 2019-04-21 17:29:20 ESP12E-S1 28.30 27.09 24.60
6976 2019-04-21 17:00:52 ESP12E-S1 28.30 27.07 24.00
6975 2019-04-21 16:32:29 ESP12E-S1 28.20 26.94 22.10
6974 2019-04-21 16:04:08 ESP12E-S1 28.40 27.15 24.30
6973 2019-04-21 15:35:49 ESP12E-S1 28.20 27.05 25.40
6972 2019-04-21 15:07:30 ESP12E-S1 28.10 26.92 23.80
6971 2019-04-21 14:39:27 ESP12E-S1 29.60 28.02 22.90
6970 2019-04-21 14:11:03 ESP12E-S1 31.90 30.00 22.00
6969 2019-04-21 13:42:59 ESP12E-S1 32.40 30.61 23.60
6968 2019-04-21 13:14:42 ESP12E-S1 32.80 31.16 25.00
6967 2019-04-21 12:45:44 ESP12E-S1 29.50 28.10 26.60
6966 2019-04-21 12:17:13 ESP12E-S1 25.60 24.95 28.30
6965 2019-04-21 11:48:46 ESP12E-S1 24.70 23.91 26.30
6964 2019-04-21 11:20:19 ESP12E-S1 23.10 22.23 29.20
6963 2019-04-21 10:51:42 ESP12E-S1 21.20 20.16 30.20
6962 2019-04-21 10:23:12 ESP12E-S1 19.80 18.68 32.30
6961 2019-04-21 09:54:44 ESP12E-S1 18.70 17.49 33.00
6960 2019-04-21 09:26:17 ESP12E-S1 17.70 16.41 33.80
6959 2019-04-21 08:57:52 ESP12E-S1 17.00 15.64 33.70
6958 2019-04-21 08:29:25 ESP12E-S1 16.20 14.76 33.90
6957 2019-04-21 08:01:01 ESP12E-S1 15.60 14.13 35.10
6956 2019-04-21 07:32:39 ESP12E-S1 15.30 13.82 35.80
6955 2019-04-21 07:04:18 ESP12E-S1 15.30 13.81 35.30
6954 2019-04-21 06:36:05 ESP12E-S1 15.30 13.77 33.80
6953 2019-04-21 06:07:42 ESP12E-S1 15.30 13.79 34.50
6952 2019-04-21 05:39:23 ESP12E-S1 15.50 14.00 34.20
6951 2019-04-21 05:11:06 ESP12E-S1 16.00 14.56 34.80
6950 2019-04-21 04:42:47 ESP12E-S1 16.20 14.75 33.60
6949 2019-04-21 04:14:29 ESP12E-S1 16.50 15.07 33.00
6948 2019-04-21 03:46:08 ESP12E-S1 16.80 15.36 31.70
6947 2019-04-21 03:17:48 ESP12E-S1 17.00 15.59 32.10
6946 2019-04-21 02:49:29 ESP12E-S1 17.30 15.93 32.30
6945 2019-04-21 02:21:09 ESP12E-S1 17.50 16.14 32.10
6944 2019-04-21 01:52:50 ESP12E-S1 17.70 16.38 32.60
6943 2019-04-21 01:24:31 ESP12E-S1 18.10 16.79 31.60
6942 2019-04-21 00:56:12 ESP12E-S1 18.30 17.02 32.10
6941 2019-04-21 00:27:53 ESP12E-S1 18.70 17.43 30.80
6940 2019-04-20 23:59:33 ESP12E-S1 18.90 17.63 30.00
6939 2019-04-20 23:31:14 ESP12E-S1 19.20 17.96 30.00
6938 2019-04-20 23:02:56 ESP12E-S1 19.60 18.39 29.60
6937 2019-04-20 22:34:37 ESP12E-S1 20.00 18.84 29.90
6936 2019-04-20 22:06:19 ESP12E-S1 20.50 19.38 29.50
6935 2019-04-20 21:38:02 ESP12E-S1 21.00 19.90 28.40
6934 2019-04-20 21:09:46 ESP12E-S1 21.50 20.45 28.50
6933 2019-04-20 20:41:35 ESP12E-S1 22.70 21.73 27.00
6932 2019-04-20 20:13:42 ESP12E-S1 28.20 27.00 24.00
6931 2019-04-20 19:45:36 ESP12E-S1 30.70 28.92 22.30
6930 2019-04-20 19:17:22 ESP12E-S1 31.30 29.42 21.70
6929 2019-04-20 18:48:55 ESP12E-S1 30.50 28.71 21.60
6928 2019-04-20 18:20:44 ESP12E-S1 30.50 28.70 21.30
6927 2019-04-20 17:52:24 ESP12E-S1 30.90 29.04 21.20
6926 2019-04-20 17:24:04 ESP12E-S1 31.10 29.22 21.20
6925 2019-04-20 16:55:42 ESP12E-S1 31.10 29.19 20.50
6924 2019-04-20 16:27:21 ESP12E-S1 31.30 29.38 20.90
6923 2019-04-20 15:58:59 ESP12E-S1 30.80 28.93 20.70
6922 2019-04-20 15:30:38 ESP12E-S1 31.30 29.45 22.20
6921 2019-04-20 15:02:16 ESP12E-S1 31.30 29.51 23.20
6920 2019-04-20 14:33:50 ESP12E-S1 30.50 28.80 23.50
6919 2019-04-20 14:05:29 ESP12E-S1 30.10 28.49 24.30
6918 2019-04-20 13:37:25 ESP12E-S1 30.40 28.74 24.00
6917 2019-04-20 13:08:55 ESP12E-S1 31.40 29.87 26.90
6916 2019-04-20 12:39:53 ESP12E-S1 26.40 26.43 39.40
6915 2019-04-20 12:11:30 ESP12E-S1 25.30 24.79 34.50
6914 2019-04-20 11:43:05 ESP12E-S1 24.00 23.41 36.70
6913 2019-04-20 11:14:38 ESP12E-S1 22.70 21.80 29.80
6912 2019-04-20 10:46:09 ESP12E-S1 21.40 20.36 29.30
6911 2019-04-20 10:17:41 ESP12E-S1 20.10 19.00 31.90
6910 2019-04-20 09:49:13 ESP12E-S1 18.80 17.61 33.50
6909 2019-04-20 09:20:45 ESP12E-S1 17.70 16.40 33.40
6908 2019-04-20 08:52:18 ESP12E-S1 16.70 15.33 34.60
6907 2019-04-20 08:23:50 ESP12E-S1 15.60 14.14 35.30
6906 2019-04-20 07:55:26 ESP12E-S1 14.90 13.38 35.70
6905 2019-04-20 07:27:05 ESP12E-S1 14.60 13.05 35.80
6904 2019-04-20 06:58:43 ESP12E-S1 14.40 12.82 35.30
6903 2019-04-20 06:30:23 ESP12E-S1 14.40 12.83 35.90
6902 2019-04-20 06:02:05 ESP12E-S1 14.60 13.06 36.30
6901 2019-04-20 05:33:46 ESP12E-S1 14.80 13.25 35.20
6900 2019-04-20 05:05:27 ESP12E-S1 15.10 13.58 34.90
6899 2019-04-20 04:37:08 ESP12E-S1 15.30 13.78 34.30
6898 2019-04-20 04:08:49 ESP12E-S1 15.50 14.00 34.20
6897 2019-04-20 03:40:28 ESP12E-S1 15.60 14.11 34.20
6896 2019-04-20 03:12:09 ESP12E-S1 15.80 14.34 34.80
6895 2019-04-20 02:43:50 ESP12E-S1 15.90 14.44 34.40
6894 2019-04-20 02:15:31 ESP12E-S1 16.00 14.55 34.40
6893 2019-04-20 01:47:13 ESP12E-S1 16.20 14.79 35.10
6892 2019-04-20 01:18:53 ESP12E-S1 16.30 14.91 35.40
6891 2019-04-20 00:50:33 ESP12E-S1 16.50 15.13 35.60
6890 2019-04-20 00:22:14 ESP12E-S1 16.50 15.15 36.00
6889 2019-04-19 23:53:55 ESP12E-S1 16.70 15.36 35.80
6888 2019-04-19 23:25:37 ESP12E-S1 16.70 15.38 36.50
6887 2019-04-19 22:57:19 ESP12E-S1 17.30 16.02 35.90
6886 2019-04-19 22:29:03 ESP12E-S1 17.70 16.41 33.80
6885 2019-04-19 22:00:46 ESP12E-S1 18.20 16.92 32.40
6884 2019-04-19 21:32:30 ESP12E-S1 18.80 17.54 30.80
6883 2019-04-19 21:04:14 ESP12E-S1 19.70 18.54 31.10
6882 2019-04-19 20:36:00 ESP12E-S1 20.90 19.82 29.70
6881 2019-04-19 20:07:48 ESP12E-S1 22.20 21.17 26.60
6880 2019-04-19 19:39:34 ESP12E-S1 23.60 22.70 26.20
6879 2019-04-19 19:11:19 ESP12E-S1 24.70 23.87 24.80
6878 2019-04-19 18:43:07 ESP12E-S1 25.80 25.06 24.00
6877 2019-04-19 18:15:04 ESP12E-S1 27.20 26.28 22.40
6876 2019-04-19 17:46:44 ESP12E-S1 28.00 26.77 21.20
6875 2019-04-19 17:19:23 ESP12E-S1 31.00 29.54 27.80
6874 2019-04-19 17:19:07 ESP12E-S1 31.20 29.69 27.10
6873 2019-04-19 17:06:08 ESP12E-S1 33.10 31.09 20.70
6872 2019-04-19 16:37:25 ESP12E-S1 30.90 29.09 22.30
6871 2019-04-19 16:09:13 ESP12E-S1 32.70 30.79 22.10
6870 2019-04-19 15:40:28 ESP12E-S1 31.20 29.48 24.20
6869 2019-04-19 15:12:39 ESP12E-S1 32.00 30.05 21.30
6868 2019-04-19 14:44:10 ESP12E-S1 31.70 29.90 23.40
6867 2019-04-19 14:15:26 ESP12E-S1 30.40 28.84 25.80
6866 2019-04-19 13:47:25 ESP12E-S1 30.00 28.45 25.20
6865 2019-04-19 13:18:59 ESP12E-S1 30.30 28.71 25.10
6864 2019-04-19 12:50:04 ESP12E-S1 27.40 26.65 29.40
6863 2019-04-19 12:21:32 ESP12E-S1 24.00 23.29 31.90
6862 2019-04-19 11:53:12 ESP12E-S1 23.30 22.51 31.70
6861 2019-04-19 11:24:36 ESP12E-S1 21.90 21.05 34.70
6860 2019-04-19 10:56:02 ESP12E-S1 20.10 19.17 38.50
6859 2019-04-19 10:27:30 ESP12E-S1 18.00 16.88 39.20
6858 2019-04-19 09:59:01 ESP12E-S1 16.80 15.58 39.90
6857 2019-04-19 09:30:37 ESP12E-S1 15.90 14.61 40.80
6856 2019-04-19 09:02:16 ESP12E-S1 15.10 13.73 40.60
6855 2019-04-19 08:33:49 ESP12E-S1 14.00 12.54 41.70
6854 2019-04-19 08:05:24 ESP12E-S1 13.20 11.69 42.60
6853 2019-04-19 07:37:02 ESP12E-S1 12.90 11.37 43.00
6852 2019-04-19 07:08:42 ESP12E-S1 12.80 11.24 42.20
6851 2019-04-19 06:40:20 ESP12E-S1 12.80 11.23 42.10
6850 2019-04-19 06:12:01 ESP12E-S1 13.00 11.45 42.10
6849 2019-04-19 05:43:41 ESP12E-S1 13.10 11.55 41.60
6848 2019-04-19 05:15:22 ESP12E-S1 13.20 11.65 41.30
6847 2019-04-19 04:47:03 ESP12E-S1 13.50 11.97 40.90
6846 2019-04-19 04:18:43 ESP12E-S1 13.50 11.97 40.80
6845 2019-04-19 03:50:25 ESP12E-S1 13.80 12.27 39.50
6844 2019-04-19 03:22:05 ESP12E-S1 14.10 12.59 39.30
6843 2019-04-19 02:53:47 ESP12E-S1 14.30 12.78 38.00
6842 2019-04-19 02:25:28 ESP12E-S1 14.50 12.98 37.40
6841 2019-04-19 01:57:09 ESP12E-S1 14.90 13.42 37.50
6840 2019-04-19 01:28:49 ESP12E-S1 15.10 13.62 36.40
6839 2019-04-19 01:00:29 ESP12E-S1 15.50 14.03 35.40
6838 2019-04-19 00:32:10 ESP12E-S1 15.80 14.34 34.70
6837 2019-04-19 00:03:50 ESP12E-S1 16.20 14.78 34.70
6836 2019-04-18 23:35:31 ESP12E-S1 16.60 15.21 34.40
6835 2019-04-18 23:07:13 ESP12E-S1 16.90 15.52 33.60
6834 2019-04-18 22:38:53 ESP12E-S1 17.20 15.85 33.40
6833 2019-04-18 22:10:34 ESP12E-S1 17.60 16.30 33.70
6832 2019-04-18 21:42:17 ESP12E-S1 18.00 16.72 33.20
6831 2019-04-18 21:13:59 ESP12E-S1 18.60 17.36 32.50
6830 2019-04-18 20:45:45 ESP12E-S1 19.60 18.44 31.60
6829 2019-04-18 20:17:32 ESP12E-S1 21.00 19.96 30.90
6828 2019-04-18 19:49:20 ESP12E-S1 22.50 21.59 29.90
6827 2019-04-18 19:20:54 ESP12E-S1 22.40 21.50 30.70
6826 2019-04-18 18:52:41 ESP12E-S1 23.40 22.55 28.90
6825 2019-04-18 18:24:31 ESP12E-S1 25.00 24.28 27.80
6824 2019-04-18 17:56:23 ESP12E-S1 27.00 26.30 26.80
6823 2019-04-18 17:27:41 ESP12E-S1 28.70 27.48 27.00
6822 2019-04-18 16:59:36 ESP12E-S1 30.50 28.97 26.50
6821 2019-04-18 16:31:10 ESP12E-S1 28.90 27.63 26.80
6820 2019-04-18 16:02:47 ESP12E-S1 30.00 28.52 26.50
6819 2019-04-18 15:34:01 ESP12E-S1 28.60 27.44 27.70
6818 2019-04-18 15:06:04 ESP12E-S1 30.00 28.52 26.50
6817 2019-04-18 14:37:29 ESP12E-S1 28.70 27.68 30.90
6816 2019-04-18 14:08:38 ESP12E-S1 25.80 25.34 34.60
6815 2019-04-18 13:40:17 ESP12E-S1 25.60 25.07 32.60
6814 2019-04-18 13:11:53 ESP12E-S1 25.20 24.69 35.10
6813 2019-04-18 12:43:12 ESP12E-S1 22.90 22.19 36.00
6812 2019-04-18 12:14:49 ESP12E-S1 21.50 20.75 40.00
6811 2019-04-18 11:46:25 ESP12E-S1 20.90 20.13 41.50
6810 2019-04-18 11:17:44 ESP12E-S1 19.30 18.39 42.30
6809 2019-04-18 10:49:14 ESP12E-S1 17.70 16.71 45.20
6808 2019-04-18 10:20:51 ESP12E-S1 16.10 15.03 48.30
6807 2019-04-18 09:52:21 ESP12E-S1 14.90 13.72 48.80
6806 2019-04-18 09:23:54 ESP12E-S1 13.80 12.54 49.80
6805 2019-04-18 08:55:28 ESP12E-S1 13.00 11.67 50.30
6804 2019-04-18 08:27:01 ESP12E-S1 11.80 10.40 52.40
6803 2019-04-18 07:58:42 ESP12E-S1 11.30 9.87 52.90
6802 2019-04-18 07:30:21 ESP12E-S1 11.30 9.85 52.20
6801 2019-04-18 07:02:02 ESP12E-S1 11.40 9.94 51.60
6800 2019-04-18 06:33:42 ESP12E-S1 11.40 9.92 50.80
6799 2019-04-18 06:05:25 ESP12E-S1 12.70 11.37 51.40
6798 2019-04-18 05:37:06 ESP12E-S1 11.70 10.23 50.00
6797 2019-04-18 05:08:46 ESP12E-S1 11.90 10.43 49.20
6796 2019-04-18 04:40:26 ESP12E-S1 12.10 10.63 48.30
6795 2019-04-18 04:12:07 ESP12E-S1 12.20 10.71 47.20
6794 2019-04-18 03:43:48 ESP12E-S1 12.30 10.80 46.40
6793 2019-04-18 03:15:32 ESP12E-S1 12.30 10.76 45.00
6792 2019-04-18 02:47:11 ESP12E-S1 12.30 10.73 43.90
6791 2019-04-18 02:18:53 ESP12E-S1 12.40 10.84 43.70
6790 2019-04-18 01:50:34 ESP12E-S1 12.80 11.26 43.00
6789 2019-04-18 01:22:15 ESP12E-S1 13.10 11.59 43.10
6788 2019-04-18 00:54:03 ESP12E-S1 13.40 11.91 42.80
6787 2019-04-18 00:25:43 ESP12E-S1 13.70 12.23 42.30
6786 2019-04-17 23:57:25 ESP12E-S1 13.90 12.44 42.00
6785 2019-04-17 23:29:06 ESP12E-S1 14.10 12.65 41.60
6784 2019-04-17 23:00:49 ESP12E-S1 14.30 12.88 42.10
6783 2019-04-17 22:32:30 ESP12E-S1 14.60 13.22 42.40
6782 2019-04-17 22:04:11 ESP12E-S1 14.80 13.45 42.80
6781 2019-04-17 21:35:54 ESP12E-S1 15.00 13.68 43.00
6780 2019-04-17 21:07:38 ESP12E-S1 15.60 14.33 42.70
6779 2019-04-17 20:39:20 ESP12E-S1 16.30 15.11 43.00
6778 2019-04-17 20:11:03 ESP12E-S1 16.90 15.73 41.70
6777 2019-04-17 19:42:47 ESP12E-S1 17.60 16.48 40.60
6776 2019-04-17 19:14:32 ESP12E-S1 18.70 17.68 40.30
6775 2019-04-17 18:46:18 ESP12E-S1 19.90 18.95 38.60
6774 2019-04-17 18:18:07 ESP12E-S1 21.20 20.34 36.80
6773 2019-04-17 17:50:09 ESP12E-S1 23.80 23.18 36.00
6772 2019-04-17 17:21:32 ESP12E-S1 23.80 23.21 37.50
6771 2019-04-17 16:53:09 ESP12E-S1 24.70 24.21 37.80
6770 2019-04-17 16:24:46 ESP12E-S1 23.20 22.65 41.00
6769 2019-04-17 15:56:21 ESP12E-S1 22.60 22.02 42.20
6768 2019-04-17 15:27:43 ESP12E-S1 21.30 20.73 47.60
6767 2019-04-17 14:59:03 ESP12E-S1 19.10 18.45 53.20
6766 2019-04-17 14:30:36 ESP12E-S1 17.90 17.27 58.30
6765 2019-04-17 14:02:11 ESP12E-S1 17.50 17.00 64.90
6764 2019-04-17 13:33:48 ESP12E-S1 16.80 16.22 64.50
6763 2019-04-17 13:05:31 ESP12E-S1 17.50 17.01 65.40
6762 2019-04-17 12:37:00 ESP12E-S1 16.00 15.56 72.90
6761 2019-04-17 12:08:40 ESP12E-S1 15.90 15.42 71.90
6760 2019-04-17 11:40:17 ESP12E-S1 15.80 15.42 75.90
6759 2019-04-17 11:11:57 ESP12E-S1 14.30 14.08 87.70
6758 2019-04-17 10:43:27 ESP12E-S1 13.60 13.40 91.50
6757 2019-04-17 10:15:03 ESP12E-S1 12.80 12.58 93.70
6756 2019-04-17 09:46:41 ESP12E-S1 12.30 12.04 93.90
6755 2019-04-17 09:18:18 ESP12E-S1 12.00 11.69 93.20
6754 2019-04-17 08:49:54 ESP12E-S1 11.70 11.37 93.70
6753 2019-04-17 08:21:30 ESP12E-S1 11.20 10.81 93.30
6752 2019-04-17 07:53:11 ESP12E-S1 10.80 10.42 95.30
6751 2019-04-17 07:24:50 ESP12E-S1 10.90 10.49 93.60
6750 2019-04-17 06:56:29 ESP12E-S1 10.80 10.38 93.70
6749 2019-04-17 06:28:08 ESP12E-S1 12.00 11.69 93.20
6748 2019-04-17 05:59:49 ESP12E-S1 11.00 10.51 90.00
6747 2019-04-17 05:31:30 ESP12E-S1 11.00 10.54 91.20
6746 2019-04-17 05:03:09 ESP12E-S1 11.30 10.74 86.50
6745 2019-04-17 04:34:49 ESP12E-S1 11.30 10.79 88.10
6744 2019-04-17 04:06:29 ESP12E-S1 11.40 10.69 80.20
6743 2019-04-17 03:38:09 ESP12E-S1 11.60 10.84 77.50
6742 2019-04-17 03:09:49 ESP12E-S1 11.70 10.91 76.10
6741 2019-04-17 02:41:31 ESP12E-S1 12.00 11.11 71.20
6740 2019-04-17 02:13:11 ESP12E-S1 12.20 11.21 66.40
6739 2019-04-17 01:44:51 ESP12E-S1 12.40 11.36 63.70
6738 2019-04-17 01:16:31 ESP12E-S1 12.50 11.37 60.10
6737 2019-04-17 00:48:12 ESP12E-S1 12.70 11.57 59.00
6736 2019-04-17 00:19:54 ESP12E-S1 12.90 11.77 58.50
6735 2019-04-16 23:51:36 ESP12E-S1 13.10 12.02 59.40
6734 2019-04-16 23:23:17 ESP12E-S1 13.40 12.26 55.90
6733 2019-04-16 22:54:58 ESP12E-S1 14.10 12.87 49.90
6732 2019-04-16 22:26:39 ESP12E-S1 14.30 13.06 48.70
6731 2019-04-16 21:58:20 ESP12E-S1 14.50 13.25 47.70
6730 2019-04-16 21:30:03 ESP12E-S1 14.90 13.67 46.80
6729 2019-04-16 21:01:54 ESP12E-S1 15.20 13.97 45.90
6728 2019-04-16 20:33:37 ESP12E-S1 15.80 14.58 44.00
6727 2019-04-16 20:05:28 ESP12E-S1 16.40 15.19 42.10
6726 2019-04-16 19:37:07 ESP12E-S1 17.10 15.91 40.10
6725 2019-04-16 19:08:51 ESP12E-S1 17.80 16.65 39.00
6724 2019-04-16 18:40:34 ESP12E-S1 18.50 17.40 38.10
6723 2019-04-16 18:12:19 ESP12E-S1 19.10 18.03 36.80
6722 2019-04-16 17:44:23 ESP12E-S1 21.60 20.66 32.20
6721 2019-04-16 17:16:01 ESP12E-S1 22.20 21.30 31.70
6720 2019-04-16 16:47:16 ESP12E-S1 20.00 18.93 33.50
6719 2019-04-16 16:19:12 ESP12E-S1 21.70 20.76 31.90
6718 2019-04-16 15:50:59 ESP12E-S1 23.00 22.13 29.60
6717 2019-04-16 15:22:36 ESP12E-S1 22.90 22.03 30.00
6716 2019-04-16 14:54:13 ESP12E-S1 23.20 22.35 29.70
6715 2019-04-16 14:25:56 ESP12E-S1 24.00 23.21 28.90
6714 2019-04-16 13:57:35 ESP12E-S1 23.20 22.35 29.60
6713 2019-04-16 13:29:19 ESP12E-S1 23.30 22.49 31.00
6712 2019-04-16 13:00:51 ESP12E-S1 22.60 21.75 32.00
6711 2019-04-16 12:32:02 ESP12E-S1 19.10 17.96 34.40
6710 2019-04-16 12:03:47 ESP12E-S1 18.90 17.69 32.40
6709 2019-04-16 11:35:19 ESP12E-S1 17.80 16.58 36.10
6708 2019-04-16 11:06:39 ESP12E-S1 14.30 12.72 35.90
6707 2019-04-16 10:38:10 ESP12E-S1 14.50 12.93 35.60
6706 2019-04-16 10:09:41 ESP12E-S1 12.80 11.08 36.30
6705 2019-04-16 09:41:17 ESP12E-S1 12.20 10.47 38.10
6704 2019-04-16 09:12:49 ESP12E-S1 11.00 9.17 38.90
6703 2019-04-16 08:44:23 ESP12E-S1 10.20 8.32 40.00
6702 2019-04-16 08:15:56 ESP12E-S1 9.00 7.05 42.00
6701 2019-04-16 07:47:33 ESP12E-S1 8.50 6.49 41.40
6700 2019-04-16 07:19:12 ESP12E-S1 8.40 6.38 41.70
6699 2019-04-16 06:50:53 ESP12E-S1 8.50 6.50 41.80
6698 2019-04-16 06:22:35 ESP12E-S1 8.60 6.61 41.90
6697 2019-04-16 05:54:15 ESP12E-S1 8.80 6.82 41.60
6696 2019-04-16 05:25:57 ESP12E-S1 9.00 7.04 41.50
6695 2019-04-16 04:57:38 ESP12E-S1 9.20 7.26 41.60
6694 2019-04-16 04:29:19 ESP12E-S1 9.40 7.47 41.30
6693 2019-04-16 04:01:00 ESP12E-S1 9.60 7.70 41.70
6692 2019-04-16 03:32:41 ESP12E-S1 9.70 7.82 41.90
6691 2019-04-16 03:04:23 ESP12E-S1 9.30 7.36 41.20
6690 2019-04-16 02:36:03 ESP12E-S1 10.20 8.36 41.50
6689 2019-04-16 02:07:45 ESP12E-S1 10.40 8.58 41.40
6688 2019-04-16 01:39:26 ESP12E-S1 10.80 9.01 41.10
6687 2019-04-16 01:11:06 ESP12E-S1 11.00 9.22 40.80
6686 2019-04-16 00:42:47 ESP12E-S1 12.80 11.21 41.30
6685 2019-04-16 00:14:29 ESP12E-S1 11.70 9.94 39.00
6684 2019-04-15 23:46:10 ESP12E-S1 12.20 10.48 38.50
6683 2019-04-15 23:17:53 ESP12E-S1 12.50 10.81 38.40
6682 2019-04-15 22:49:34 ESP12E-S1 12.90 11.25 38.30
6681 2019-04-15 22:21:16 ESP12E-S1 13.30 11.68 38.00
6680 2019-04-15 21:52:59 ESP12E-S1 13.70 12.10 37.20
6679 2019-04-15 21:24:42 ESP12E-S1 14.30 12.75 36.80
6678 2019-04-15 20:56:27 ESP12E-S1 15.10 13.63 36.80
6677 2019-04-15 20:28:11 ESP12E-S1 16.00 14.61 36.70
6676 2019-04-15 19:59:56 ESP12E-S1 16.90 15.56 35.20
6675 2019-04-15 19:31:41 ESP12E-S1 17.80 16.53 34.20
6674 2019-04-15 19:03:27 ESP12E-S1 18.80 17.60 33.20
6673 2019-04-15 18:35:21 ESP12E-S1 20.10 18.98 31.10
6672 2019-04-15 18:07:16 ESP12E-S1 21.80 20.82 30.00
6671 2019-04-15 17:39:26 ESP12E-S1 26.50 25.95 28.40
6670 2019-04-15 17:11:06 ESP12E-S1 25.00 24.31 29.00
6669 2019-04-15 16:42:21 ESP12E-S1 24.90 24.25 30.70
6668 2019-04-15 16:14:13 ESP12E-S1 24.70 24.03 30.80
6667 2019-04-15 15:45:52 ESP12E-S1 24.60 23.93 31.10
6666 2019-04-15 15:17:32 ESP12E-S1 23.90 23.21 33.10
6665 2019-04-15 14:49:25 ESP12E-S1 25.50 24.99 33.70
6664 2019-04-15 14:20:49 ESP12E-S1 24.80 24.23 34.40
6663 2019-04-15 13:52:32 ESP12E-S1 23.50 22.86 36.40
6662 2019-04-15 13:24:04 ESP12E-S1 23.50 22.89 37.70
6661 2019-04-15 12:55:23 ESP12E-S1 21.50 20.77 40.70
6660 2019-04-15 12:26:42 ESP12E-S1 18.00 17.03 45.00
6659 2019-04-15 11:58:27 ESP12E-S1 17.20 16.21 47.20
6658 2019-04-15 11:29:54 ESP12E-S1 15.90 14.84 49.60
6657 2019-04-15 11:01:16 ESP12E-S1 14.10 12.89 50.80
6656 2019-04-15 10:32:55 ESP12E-S1 12.40 11.14 55.40
6655 2019-04-15 10:04:22 ESP12E-S1 13.70 12.75 62.30
6654 2019-04-15 09:36:00 ESP12E-S1 9.60 8.32 65.30
6653 2019-04-15 09:07:32 ESP12E-S1 8.60 7.29 68.10
6652 2019-04-15 08:39:04 ESP12E-S1 7.50 6.19 72.00
6651 2019-04-15 08:10:39 ESP12E-S1 6.50 5.22 77.10
6650 2019-04-15 07:42:14 ESP12E-S1 6.00 4.74 79.70
6649 2019-04-15 07:13:51 ESP12E-S1 5.60 4.33 81.00
6648 2019-04-15 06:45:37 ESP12E-S1 5.30 4.01 81.40
6647 2019-04-15 06:17:15 ESP12E-S1 5.10 3.83 82.80
6646 2019-04-15 05:48:55 ESP12E-S1 5.40 4.13 81.80
6645 2019-04-15 05:20:36 ESP12E-S1 5.50 4.17 79.00
6644 2019-04-15 04:52:17 ESP12E-S1 5.70 4.30 75.60
6643 2019-04-15 04:24:00 ESP12E-S1 6.10 4.64 71.60
6642 2019-04-15 03:55:38 ESP12E-S1 6.10 4.67 72.90
6641 2019-04-15 03:27:15 ESP12E-S1 5.90 4.39 70.50
6640 2019-04-15 02:58:55 ESP12E-S1 5.90 4.34 68.60
6639 2019-04-15 02:30:34 ESP12E-S1 5.90 4.31 67.70
6638 2019-04-15 02:02:14 ESP12E-S1 6.10 4.47 65.10
6637 2019-04-15 01:33:54 ESP12E-S1 6.30 4.66 64.00
6636 2019-04-15 01:05:33 ESP12E-S1 6.50 4.84 62.60
6635 2019-04-15 00:37:13 ESP12E-S1 6.50 4.81 61.30
6634 2019-04-15 00:08:52 ESP12E-S1 6.70 4.99 60.00
6633 2019-04-14 23:40:35 ESP12E-S1 6.80 5.07 58.70
6632 2019-04-14 23:12:16 ESP12E-S1 7.20 5.45 56.60
6631 2019-04-14 22:43:57 ESP12E-S1 7.30 5.55 56.20
6630 2019-04-14 22:15:42 ESP12E-S1 7.50 5.77 55.90
6629 2019-04-14 21:47:22 ESP12E-S1 7.80 6.07 54.80
6628 2019-04-14 21:19:08 ESP12E-S1 8.10 6.36 53.50
6627 2019-04-14 20:50:49 ESP12E-S1 8.40 6.64 51.60
6626 2019-04-14 20:22:29 ESP12E-S1 8.70 6.94 50.50
6625 2019-04-14 19:54:11 ESP12E-S1 9.10 7.33 48.30
6624 2019-04-14 19:25:53 ESP12E-S1 9.70 7.96 47.20
6623 2019-04-14 18:57:36 ESP12E-S1 10.40 8.68 45.30
6622 2019-04-14 18:29:21 ESP12E-S1 11.40 9.71 42.50
6621 2019-04-14 18:01:15 ESP12E-S1 13.30 11.69 38.60
6620 2019-04-14 17:33:06 ESP12E-S1 15.20 13.73 36.60
6619 2019-04-14 17:04:51 ESP12E-S1 14.90 13.38 35.90
6618 2019-04-14 16:36:23 ESP12E-S1 15.70 14.23 34.50
6617 2019-04-14 16:08:11 ESP12E-S1 16.20 14.76 33.70
6616 2019-04-14 15:39:54 ESP12E-S1 17.00 15.60 32.50
6615 2019-04-14 15:11:48 ESP12E-S1 18.30 17.03 32.20
6614 2019-04-14 14:43:08 ESP12E-S1 17.50 16.20 34.30
6613 2019-04-14 14:14:34 ESP12E-S1 17.30 15.98 34.20
6612 2019-04-14 13:46:28 ESP12E-S1 17.60 16.36 36.30
6611 2019-04-14 13:18:09 ESP12E-S1 19.00 17.87 35.10
6610 2019-04-14 12:49:24 ESP12E-S1 16.60 15.27 36.40
6609 2019-04-14 12:20:51 ESP12E-S1 14.20 12.71 39.60
6608 2019-04-14 11:52:26 ESP12E-S1 12.90 11.41 44.60
6607 2019-04-14 11:23:55 ESP12E-S1 11.40 9.84 47.60
6606 2019-04-14 10:55:21 ESP12E-S1 9.70 8.13 53.90
6605 2019-04-14 10:26:52 ESP12E-S1 8.10 6.42 55.60
6604 2019-04-14 09:58:24 ESP12E-S1 6.80 5.11 60.20
6603 2019-04-14 09:29:55 ESP12E-S1 5.80 4.12 64.50
6602 2019-04-14 09:01:30 ESP12E-S1 4.80 3.07 66.30
6601 2019-04-14 08:33:05 ESP12E-S1 4.10 2.39 69.80
6600 2019-04-14 08:04:45 ESP12E-S1 3.80 2.11 71.90
6599 2019-04-14 07:36:24 ESP12E-S1 3.70 2.01 72.20
6598 2019-04-14 07:08:02 ESP12E-S1 3.70 2.09 75.10
6597 2019-04-14 06:39:42 ESP12E-S1 3.60 2.04 77.50
6596 2019-04-14 06:11:21 ESP12E-S1 3.60 2.09 79.30
6595 2019-04-14 05:43:02 ESP12E-S1 3.50 2.02 81.10
6594 2019-04-14 05:14:42 ESP12E-S1 3.50 2.01 80.60
6593 2019-04-14 04:46:22 ESP12E-S1 3.60 2.19 83.20
6592 2019-04-14 04:18:03 ESP12E-S1 3.50 2.07 83.00
6591 2019-04-14 03:49:42 ESP12E-S1 3.50 2.06 82.50
6590 2019-04-14 03:21:24 ESP12E-S1 3.50 2.06 82.40
6589 2019-04-14 02:53:05 ESP12E-S1 3.80 2.22 75.90
6588 2019-04-14 02:24:45 ESP12E-S1 3.70 2.12 76.30
6587 2019-04-14 01:56:26 ESP12E-S1 3.70 2.15 77.70
6586 2019-04-14 01:28:05 ESP12E-S1 3.80 2.19 74.90
6585 2019-04-14 00:59:45 ESP12E-S1 3.60 2.05 77.80
6584 2019-04-14 00:31:26 ESP12E-S1 3.90 2.26 73.50
6583 2019-04-14 00:03:09 ESP12E-S1 4.30 2.64 71.00
6582 2019-04-13 23:34:52 ESP12E-S1 4.80 2.97 62.70
6581 2019-04-13 23:06:32 ESP12E-S1 5.00 3.03 56.40
6580 2019-04-13 22:38:10 ESP12E-S1 5.00 2.99 54.90
6579 2019-04-13 22:09:55 ESP12E-S1 4.90 2.89 55.40
6578 2019-04-13 21:41:35 ESP12E-S1 5.10 3.08 54.10
6577 2019-04-13 21:13:16 ESP12E-S1 5.20 3.17 53.40
6576 2019-04-13 20:44:58 ESP12E-S1 5.50 3.52 54.00
6575 2019-04-13 20:16:41 ESP12E-S1 6.20 4.27 53.30
6574 2019-04-13 19:48:25 ESP12E-S1 7.20 5.27 49.50
6573 2019-04-13 19:20:07 ESP12E-S1 7.70 5.69 44.60
6572 2019-04-13 18:51:49 ESP12E-S1 7.80 5.80 44.60
6571 2019-04-13 18:23:29 ESP12E-S1 7.80 5.78 43.70
6570 2019-04-13 17:55:10 ESP12E-S1 8.00 5.96 42.30
6569 2019-04-13 17:26:56 ESP12E-S1 8.70 6.74 42.50
6568 2019-04-13 16:58:47 ESP12E-S1 10.20 8.23 36.40
6567 2019-04-13 16:30:21 ESP12E-S1 10.60 8.66 36.10
6566 2019-04-13 16:01:56 ESP12E-S1 9.40 7.39 37.90
6565 2019-04-13 15:33:38 ESP12E-S1 9.70 7.71 37.60
6564 2019-04-13 15:05:21 ESP12E-S1 10.20 8.20 35.50
6563 2019-04-13 14:37:04 ESP12E-S1 10.60 8.61 34.20
6562 2019-04-13 14:08:42 ESP12E-S1 10.70 8.69 33.10
6561 2019-04-13 13:40:22 ESP12E-S1 10.80 8.84 34.70
6560 2019-04-13 13:12:10 ESP12E-S1 12.20 10.40 35.40
6559 2019-04-13 12:43:43 ESP12E-S1 10.80 8.87 35.60
6558 2019-04-13 12:15:19 ESP12E-S1 10.00 8.05 38.10
6557 2019-04-13 11:46:58 ESP12E-S1 9.80 7.73 34.20
6556 2019-04-13 11:18:29 ESP12E-S1 9.20 7.30 42.90
6555 2019-04-13 10:49:58 ESP12E-S1 7.60 5.62 46.30
6554 2019-04-13 10:21:33 ESP12E-S1 6.70 4.72 49.50
6553 2019-04-13 09:53:08 ESP12E-S1 5.90 3.92 52.70
6552 2019-04-13 09:24:47 ESP12E-S1 5.30 3.31 54.60
6551 2019-04-13 08:56:21 ESP12E-S1 4.50 2.55 59.10
6550 2019-04-13 08:27:56 ESP12E-S1 3.90 1.96 61.90
6549 2019-04-13 07:59:33 ESP12E-S1 3.30 1.31 62.10
6548 2019-04-13 07:31:10 ESP12E-S1 3.00 1.01 63.30
6547 2019-04-13 07:02:51 ESP12E-S1 3.00 0.96 61.30
6546 2019-04-13 06:34:31 ESP12E-S1 3.00 0.94 60.80
6545 2019-04-13 06:06:12 ESP12E-S1 3.10 1.00 58.70
6544 2019-04-13 05:37:52 ESP12E-S1 3.10 0.96 57.20
6543 2019-04-13 05:09:35 ESP12E-S1 3.20 1.07 57.20
6542 2019-04-13 04:41:14 ESP12E-S1 3.30 1.14 55.70
6541 2019-04-13 04:12:55 ESP12E-S1 3.40 1.26 56.00
6540 2019-04-13 03:44:36 ESP12E-S1 3.50 1.34 54.80
6539 2019-04-13 03:16:17 ESP12E-S1 3.60 1.45 54.90
6538 2019-04-13 02:47:58 ESP12E-S1 3.60 1.42 53.90
6537 2019-04-13 02:19:38 ESP12E-S1 3.70 1.51 52.90
6536 2019-04-13 01:51:19 ESP12E-S1 3.80 1.60 52.40
6535 2019-04-13 01:23:01 ESP12E-S1 3.90 1.71 52.10
6534 2019-04-13 00:54:42 ESP12E-S1 4.00 1.80 51.50
6533 2019-04-13 00:26:24 ESP12E-S1 4.30 2.11 50.70
6532 2019-04-12 23:58:05 ESP12E-S1 4.40 2.20 50.10
6531 2019-04-12 23:29:53 ESP12E-S1 4.60 2.40 49.20
6530 2019-04-12 23:01:33 ESP12E-S1 5.00 2.78 47.00
6529 2019-04-12 22:33:18 ESP12E-S1 5.20 2.97 45.70
6528 2019-04-12 22:04:57 ESP12E-S1 5.30 3.07 45.30
6527 2019-04-12 21:36:40 ESP12E-S1 5.50 3.28 44.90
6526 2019-04-12 21:08:20 ESP12E-S1 5.80 3.58 43.70
6525 2019-04-12 20:40:02 ESP12E-S1 5.90 3.70 44.10
6524 2019-04-12 20:11:45 ESP12E-S1 6.30 4.12 43.50
6523 2019-04-12 19:43:30 ESP12E-S1 6.80 4.64 42.40
6522 2019-04-12 19:15:11 ESP12E-S1 7.20 5.07 42.00
6521 2019-04-12 18:46:57 ESP12E-S1 7.60 5.48 40.70
6520 2019-04-12 18:18:39 ESP12E-S1 7.90 5.79 40.00
6519 2019-04-12 17:50:21 ESP12E-S1 8.30 6.24 40.20
6518 2019-04-12 17:22:03 ESP12E-S1 8.40 6.35 40.30
6517 2019-04-12 16:53:42 ESP12E-S1 8.60 6.54 39.40
6516 2019-04-12 16:25:22 ESP12E-S1 8.80 6.73 38.20
6515 2019-04-12 15:57:03 ESP12E-S1 8.90 6.85 38.50
6514 2019-04-12 15:28:45 ESP12E-S1 9.00 6.93 37.50
6513 2019-04-12 15:00:29 ESP12E-S1 9.40 7.38 37.60
6512 2019-04-12 14:32:13 ESP12E-S1 10.00 7.99 35.80
6511 2019-04-12 14:03:59 ESP12E-S1 10.80 8.87 35.90
6510 2019-04-12 13:35:37 ESP12E-S1 10.80 8.86 35.30
6509 2019-04-12 13:07:27 ESP12E-S1 10.30 8.32 35.80
6508 2019-04-12 12:39:06 ESP12E-S1 10.40 8.41 34.90
6507 2019-04-12 12:10:46 ESP12E-S1 10.10 8.08 35.00
6506 2019-04-12 11:42:20 ESP12E-S1 9.60 7.58 36.90
6505 2019-04-12 11:13:55 ESP12E-S1 9.20 7.15 37.30
6504 2019-04-12 10:45:33 ESP12E-S1 8.70 6.63 38.50
6503 2019-04-12 10:17:01 ESP12E-S1 7.30 5.15 40.70
6502 2019-04-12 09:48:36 ESP12E-S1 6.10 3.86 41.90
6501 2019-04-12 09:20:11 ESP12E-S1 5.50 3.20 42.10
6500 2019-04-12 08:51:47 ESP12E-S1 4.80 2.47 43.40
6499 2019-04-12 08:23:25 ESP12E-S1 4.40 2.04 43.80
6498 2019-04-12 07:55:04 ESP12E-S1 4.10 1.71 43.80
6497 2019-04-12 07:26:42 ESP12E-S1 3.80 1.38 44.00
6496 2019-04-12 06:58:21 ESP12E-S1 3.60 1.17 44.20
6495 2019-04-12 06:30:02 ESP12E-S1 3.30 0.83 44.00
6494 2019-04-12 06:01:42 ESP12E-S1 3.30 0.83 43.90
6493 2019-04-12 05:33:25 ESP12E-S1 3.50 1.03 42.90
6492 2019-04-12 05:05:06 ESP12E-S1 3.60 1.14 42.90
6491 2019-04-12 04:36:49 ESP12E-S1 3.90 1.45 42.30
6490 2019-04-12 04:08:33 ESP12E-S1 4.10 1.65 41.60
6489 2019-04-12 03:40:14 ESP12E-S1 4.30 1.87 41.40
6488 2019-04-12 03:11:55 ESP12E-S1 4.40 1.98 41.40
6487 2019-04-12 02:43:38 ESP12E-S1 4.70 2.30 41.30
6486 2019-04-12 02:15:20 ESP12E-S1 4.90 2.50 40.30
6485 2019-04-12 01:47:01 ESP12E-S1 5.20 2.80 39.40
6484 2019-04-12 01:18:43 ESP12E-S1 5.50 3.13 39.20
6483 2019-04-12 00:50:24 ESP12E-S1 5.70 3.35 39.20
6482 2019-04-12 00:22:09 ESP12E-S1 6.00 3.67 38.70
6481 2019-04-11 23:53:51 ESP12E-S1 6.30 3.98 37.90
6480 2019-04-11 23:25:33 ESP12E-S1 6.60 4.31 37.90
6479 2019-04-11 22:57:16 ESP12E-S1 7.10 4.84 37.20
6478 2019-04-11 22:29:01 ESP12E-S1 7.60 5.36 36.30
6477 2019-04-11 22:00:45 ESP12E-S1 8.20 6.03 36.50
6476 2019-04-11 21:32:30 ESP12E-S1 8.80 6.64 34.60
6475 2019-04-11 21:04:17 ESP12E-S1 9.40 7.27 33.50
6474 2019-04-11 20:35:59 ESP12E-S1 10.00 7.87 31.20
6473 2019-04-11 20:07:44 ESP12E-S1 9.80 7.65 31.10
6472 2019-04-11 19:39:29 ESP12E-S1 11.70 9.70 29.50
6471 2019-04-11 19:11:17 ESP12E-S1 12.80 10.87 28.30
6470 2019-04-11 18:43:10 ESP12E-S1 14.60 12.83 27.40
6469 2019-04-11 18:15:02 ESP12E-S1 16.30 14.66 25.80
6468 2019-04-11 17:47:38 ESP12E-S1 22.60 21.52 23.20
6467 2019-04-11 17:18:33 ESP12E-S1 20.40 19.13 24.40
6466 2019-04-11 16:50:28 ESP12E-S1 21.60 20.47 24.90
6465 2019-04-11 16:22:02 ESP12E-S1 19.90 18.60 25.20
6464 2019-04-11 15:53:43 ESP12E-S1 21.50 20.37 25.50
6463 2019-04-11 15:25:01 ESP12E-S1 20.20 18.92 24.60
6462 2019-04-11 14:57:03 ESP12E-S1 22.00 20.93 26.00
6461 2019-04-11 14:28:35 ESP12E-S1 21.50 20.35 24.50
6460 2019-04-11 13:59:53 ESP12E-S1 19.90 18.62 26.00
6459 2019-04-11 13:31:40 ESP12E-S1 20.30 19.09 27.00
6458 2019-04-11 13:03:06 ESP12E-S1 19.30 18.03 28.50
6457 2019-04-11 12:34:10 ESP12E-S1 15.50 13.87 29.10
6456 2019-04-11 12:05:56 ESP12E-S1 14.40 12.70 30.70
6455 2019-04-11 11:37:33 ESP12E-S1 13.50 11.72 31.10
6454 2019-04-11 11:08:52 ESP12E-S1 11.90 9.99 32.40
6453 2019-04-11 10:40:25 ESP12E-S1 10.60 8.66 36.00
6452 2019-04-11 10:11:57 ESP12E-S1 8.90 6.86 39.00
6451 2019-04-11 09:43:32 ESP12E-S1 8.00 5.86 38.50
6450 2019-04-11 09:15:10 ESP12E-S1 7.30 5.14 40.40
6449 2019-04-11 08:46:46 ESP12E-S1 6.60 4.45 43.40
6448 2019-04-11 08:18:20 ESP12E-S1 5.60 3.40 45.40
6447 2019-04-11 07:49:58 ESP12E-S1 5.10 2.88 46.40
6446 2019-04-11 07:21:38 ESP12E-S1 4.90 2.67 47.00
6445 2019-04-11 06:53:22 ESP12E-S1 5.00 2.77 46.60
6444 2019-04-11 06:25:05 ESP12E-S1 5.20 2.97 45.60
6443 2019-04-11 05:56:48 ESP12E-S1 5.40 3.19 45.80
6442 2019-04-11 05:28:30 ESP12E-S1 5.50 3.31 46.30
6441 2019-04-11 05:00:12 ESP12E-S1 5.70 3.52 45.80
6440 2019-04-11 04:32:03 ESP12E-S1 5.90 3.73 45.30
6439 2019-04-11 04:03:43 ESP12E-S1 6.20 4.06 45.50
6438 2019-04-11 03:35:24 ESP12E-S1 6.40 4.28 45.30
6437 2019-04-11 03:07:07 ESP12E-S1 6.70 4.60 44.80
6436 2019-04-11 02:38:52 ESP12E-S1 6.90 4.82 45.10
6435 2019-04-11 02:10:34 ESP12E-S1 7.20 5.15 44.80
6434 2019-04-11 01:42:18 ESP12E-S1 7.40 5.38 45.40
6433 2019-04-11 01:14:02 ESP12E-S1 7.60 5.59 45.00
6432 2019-04-11 00:45:44 ESP12E-S1 8.00 6.01 44.30
6431 2019-04-11 00:17:28 ESP12E-S1 8.30 6.33 44.00
6430 2019-04-10 23:49:10 ESP12E-S1 8.60 6.67 44.30
6429 2019-04-10 23:20:53 ESP12E-S1 8.90 6.97 43.20
6428 2019-04-10 22:52:39 ESP12E-S1 9.30 7.38 42.00
6427 2019-04-10 22:24:21 ESP12E-S1 9.70 7.79 40.90
6426 2019-04-10 21:56:04 ESP12E-S1 10.10 8.18 39.00
6425 2019-04-10 21:27:48 ESP12E-S1 10.60 8.73 38.80
6424 2019-04-10 20:59:32 ESP12E-S1 11.10 9.28 38.70
6423 2019-04-10 20:31:17 ESP12E-S1 11.80 10.02 37.60
6422 2019-04-10 20:03:02 ESP12E-S1 12.70 10.98 36.70
6421 2019-04-10 19:34:48 ESP12E-S1 13.60 11.94 35.40
6420 2019-04-10 19:06:37 ESP12E-S1 14.90 13.36 35.10
6419 2019-04-10 18:38:27 ESP12E-S1 16.50 15.10 34.20
6418 2019-04-10 18:10:22 ESP12E-S1 18.90 17.67 31.60
6417 2019-04-10 17:42:34 ESP12E-S1 24.50 23.75 28.60
6416 2019-04-10 17:13:35 ESP12E-S1 22.10 21.13 29.40
6415 2019-04-10 16:45:33 ESP12E-S1 23.70 22.97 32.30
6414 2019-04-10 16:17:17 ESP12E-S1 23.20 22.41 31.90
6413 2019-04-10 15:48:51 ESP12E-S1 23.90 23.21 33.30
6412 2019-04-10 15:20:21 ESP12E-S1 23.10 22.39 35.40
6411 2019-04-10 14:52:08 ESP12E-S1 24.10 23.51 36.10
6410 2019-04-10 14:23:37 ESP12E-S1 22.60 21.83 35.10
6409 2019-04-10 13:55:09 ESP12E-S1 21.70 20.88 36.40
6408 2019-04-10 13:26:47 ESP12E-S1 21.40 20.60 38.40
6407 2019-04-10 12:58:10 ESP12E-S1 19.90 19.04 41.80
6406 2019-04-10 12:29:31 ESP12E-S1 17.40 16.45 48.10
6405 2019-04-10 12:01:07 ESP12E-S1 15.30 14.29 53.80
6404 2019-04-10 11:32:39 ESP12E-S1 13.90 12.77 54.50
6403 2019-04-10 11:03:58 ESP12E-S1 11.60 10.61 68.60
6402 2019-04-10 10:35:30 ESP12E-S1 9.80 8.91 79.30
6401 2019-04-10 10:07:07 ESP12E-S1 9.50 8.64 81.80
6400 2019-04-10 09:38:46 ESP12E-S1 9.30 8.42 81.60
6399 2019-04-10 09:10:27 ESP12E-S1 9.40 8.42 77.70
6398 2019-04-10 08:42:10 ESP12E-S1 10.50 9.56 74.90
6397 2019-04-10 08:13:51 ESP12E-S1 9.80 8.63 68.80
6396 2019-04-10 07:45:31 ESP12E-S1 9.80 8.64 69.00
6395 2019-04-10 07:17:12 ESP12E-S1 9.70 8.57 70.50
6394 2019-04-10 06:48:51 ESP12E-S1 9.60 8.48 71.40
6393 2019-04-10 06:20:32 ESP12E-S1 9.80 8.67 70.40
6392 2019-04-10 05:52:12 ESP12E-S1 9.70 8.61 72.10
6391 2019-04-10 05:23:54 ESP12E-S1 9.90 8.79 70.60
6390 2019-04-10 04:55:35 ESP12E-S1 10.00 8.86 69.20
6389 2019-04-10 04:27:16 ESP12E-S1 10.10 9.01 70.50
6388 2019-04-10 03:58:56 ESP12E-S1 10.10 9.02 71.00
6387 2019-04-10 03:30:37 ESP12E-S1 10.10 9.05 72.10
6386 2019-04-10 03:02:18 ESP12E-S1 10.20 9.15 71.90
6385 2019-04-10 02:33:59 ESP12E-S1 10.30 9.25 71.40
6384 2019-04-10 02:05:40 ESP12E-S1 10.40 9.35 71.20
6383 2019-04-10 01:37:25 ESP12E-S1 10.60 9.56 70.50
6382 2019-04-10 01:09:06 ESP12E-S1 10.70 9.68 70.90
6381 2019-04-10 00:40:48 ESP12E-S1 10.90 9.88 70.10
6380 2019-04-10 00:12:30 ESP12E-S1 11.20 10.19 69.50
6379 2019-04-09 23:44:10 ESP12E-S1 11.50 10.50 68.60
6378 2019-04-09 23:15:50 ESP12E-S1 11.60 10.63 69.50
6377 2019-04-09 22:47:31 ESP12E-S1 11.90 10.96 69.60
6376 2019-04-09 22:19:11 ESP12E-S1 12.20 11.34 71.60
6375 2019-04-09 21:50:54 ESP12E-S1 12.30 11.48 72.60
6374 2019-04-09 21:22:35 ESP12E-S1 12.60 11.88 75.40
6373 2019-04-09 20:54:18 ESP12E-S1 12.90 12.48 85.70
6372 2019-04-09 20:26:00 ESP12E-S1 13.20 12.96 91.20
6371 2019-04-09 19:57:42 ESP12E-S1 13.60 13.16 82.00
6370 2019-04-09 19:29:25 ESP12E-S1 14.10 13.64 79.40
6369 2019-04-09 19:01:09 ESP12E-S1 14.80 14.29 74.80
6368 2019-04-09 18:32:54 ESP12E-S1 15.50 15.00 72.40
6367 2019-04-09 18:04:38 ESP12E-S1 16.00 15.39 66.60
6366 2019-04-09 17:36:23 ESP12E-S1 17.00 16.17 54.30
6365 2019-04-09 17:08:11 ESP12E-S1 18.50 17.81 53.70
6364 2019-04-09 16:39:51 ESP12E-S1 18.80 18.25 57.90
6363 2019-04-09 16:11:31 ESP12E-S1 18.70 18.07 55.30
6362 2019-04-09 15:43:03 ESP12E-S1 18.00 17.62 67.70
6361 2019-04-09 15:14:42 ESP12E-S1 17.80 17.41 68.10
6360 2019-04-09 14:46:15 ESP12E-S1 16.80 16.38 70.50
6359 2019-04-09 14:17:50 ESP12E-S1 16.20 15.80 73.60
6358 2019-04-09 13:49:25 ESP12E-S1 15.70 15.46 81.90
6357 2019-04-09 13:21:12 ESP12E-S1 16.00 15.81 82.40
6356 2019-04-09 12:52:50 ESP12E-S1 15.80 15.65 84.80
6355 2019-04-09 12:24:31 ESP12E-S1 15.80 15.75 88.80
6354 2019-04-09 11:56:07 ESP12E-S1 15.20 15.13 90.30
6353 2019-04-09 11:27:41 ESP12E-S1 14.60 14.53 92.50
6352 2019-04-09 10:59:18 ESP12E-S1 14.20 14.09 92.60
6351 2019-04-09 10:30:59 ESP12E-S1 13.90 13.78 93.20
6350 2019-04-09 10:02:37 ESP12E-S1 13.60 13.50 95.30
6349 2019-04-09 09:34:10 ESP12E-S1 12.10 11.91 97.60
6348 2019-04-09 09:05:44 ESP12E-S1 11.30 11.06 98.50
6347 2019-04-09 08:37:23 ESP12E-S1 10.70 10.38 97.80
6346 2019-04-09 08:09:01 ESP12E-S1 10.40 10.06 98.10
6345 2019-04-09 07:40:41 ESP12E-S1 10.10 9.73 98.20
6344 2019-04-09 07:12:23 ESP12E-S1 9.80 9.39 97.80
6343 2019-04-09 06:44:03 ESP12E-S1 9.90 9.48 97.00
6342 2019-04-09 06:15:45 ESP12E-S1 10.10 9.69 96.50
6341 2019-04-09 05:47:26 ESP12E-S1 10.10 9.68 96.40
6340 2019-04-09 05:19:07 ESP12E-S1 10.20 9.78 96.00
6339 2019-04-09 04:50:48 ESP12E-S1 10.30 9.90 96.20
6338 2019-04-09 04:22:29 ESP12E-S1 10.60 10.19 94.90
6337 2019-04-09 03:54:10 ESP12E-S1 10.70 10.32 95.50
6336 2019-04-09 03:25:53 ESP12E-S1 11.10 10.75 95.30
6335 2019-04-09 02:57:36 ESP12E-S1 11.50 11.21 95.80
6334 2019-04-09 02:29:18 ESP12E-S1 11.80 11.54 96.10
6333 2019-04-09 02:01:01 ESP12E-S1 12.10 11.84 94.90
6332 2019-04-09 01:32:42 ESP12E-S1 12.30 12.08 95.70
6331 2019-04-09 01:04:23 ESP12E-S1 12.50 12.31 95.80
6330 2019-04-09 00:36:04 ESP12E-S1 12.50 12.31 95.80
6329 2019-04-09 00:07:47 ESP12E-S1 12.70 12.49 94.40
6328 2019-04-08 23:39:30 ESP12E-S1 12.90 12.67 93.00
6327 2019-04-08 23:11:13 ESP12E-S1 13.20 12.95 90.80
6326 2019-04-08 22:42:55 ESP12E-S1 13.50 13.03 81.50
6325 2019-04-08 22:14:37 ESP12E-S1 13.70 13.26 81.70
6324 2019-04-08 21:46:20 ESP12E-S1 13.80 13.34 80.70
6323 2019-04-08 21:18:01 ESP12E-S1 14.00 13.53 79.50
6322 2019-04-08 20:49:44 ESP12E-S1 14.10 13.61 78.30
6321 2019-04-08 20:21:27 ESP12E-S1 14.40 13.91 77.00
6320 2019-04-08 19:53:11 ESP12E-S1 14.80 14.31 75.50
6319 2019-04-08 19:24:54 ESP12E-S1 15.20 14.72 74.40
6318 2019-04-08 18:56:36 ESP12E-S1 15.80 15.24 69.10
6317 2019-04-08 18:28:18 ESP12E-S1 16.20 15.62 67.00
6316 2019-04-08 18:00:03 ESP12E-S1 16.90 16.28 62.60
6315 2019-04-08 17:31:47 ESP12E-S1 17.60 16.98 59.80
6314 2019-04-08 17:03:29 ESP12E-S1 18.10 17.46 57.20
6313 2019-04-08 16:35:28 ESP12E-S1 19.40 18.78 52.90
6312 2019-04-08 16:07:31 ESP12E-S1 22.60 22.17 48.20
6311 2019-04-08 15:39:13 ESP12E-S1 22.30 21.86 48.70
6310 2019-04-08 15:10:52 ESP12E-S1 21.90 21.40 48.20
6309 2019-04-08 14:42:37 ESP12E-S1 22.40 22.05 51.70
6308 2019-04-08 14:13:47 ESP12E-S1 19.30 18.79 57.50
6307 2019-04-08 13:45:40 ESP12E-S1 20.60 20.13 54.10
6306 2019-04-08 13:17:12 ESP12E-S1 19.60 19.11 57.40
6305 2019-04-08 12:48:42 ESP12E-S1 18.30 17.78 61.20
6304 2019-04-08 12:20:21 ESP12E-S1 17.70 17.21 64.40
6303 2019-04-08 11:51:56 ESP12E-S1 17.30 16.82 66.40
6302 2019-04-08 11:23:28 ESP12E-S1 16.20 15.71 70.40
6301 2019-04-08 10:55:04 ESP12E-S1 15.30 14.68 68.80
6300 2019-04-08 10:26:34 ESP12E-S1 14.00 13.47 77.00
6299 2019-04-08 09:58:09 ESP12E-S1 12.50 12.00 84.20
6298 2019-04-08 09:29:43 ESP12E-S1 11.60 11.10 87.40
6297 2019-04-08 09:01:22 ESP12E-S1 11.30 10.82 89.40
6296 2019-04-08 08:32:59 ESP12E-S1 11.00 10.52 90.50
6295 2019-04-08 08:04:38 ESP12E-S1 10.70 10.18 90.00
6294 2019-04-08 07:36:20 ESP12E-S1 10.70 10.18 90.20
6293 2019-04-08 07:08:08 ESP12E-S1 10.80 10.24 88.40
6292 2019-04-08 06:39:47 ESP12E-S1 11.10 10.51 85.90
6291 2019-04-08 06:11:29 ESP12E-S1 11.30 10.68 84.20
6290 2019-04-08 05:43:12 ESP12E-S1 11.50 10.85 82.00
6289 2019-04-08 05:14:53 ESP12E-S1 11.50 10.82 81.10
6288 2019-04-08 04:46:36 ESP12E-S1 11.70 10.99 79.00
6287 2019-04-08 04:18:18 ESP12E-S1 12.10 11.37 76.60
6286 2019-04-08 03:50:05 ESP12E-S1 12.80 11.97 70.40
6285 2019-04-08 03:21:50 ESP12E-S1 13.30 12.39 65.20
6284 2019-04-08 02:53:32 ESP12E-S1 13.80 12.78 59.00
6283 2019-04-08 02:25:18 ESP12E-S1 14.30 13.21 54.50
6282 2019-04-08 01:56:58 ESP12E-S1 14.50 13.39 53.20
6281 2019-04-08 01:28:40 ESP12E-S1 14.70 13.60 52.70
6280 2019-04-08 01:00:21 ESP12E-S1 14.90 13.82 52.70
6279 2019-04-08 00:32:01 ESP12E-S1 15.00 13.89 51.20
6278 2019-04-08 00:03:42 ESP12E-S1 15.10 13.98 50.20
6277 2019-04-07 23:35:23 ESP12E-S1 15.00 13.86 49.90
6276 2019-04-07 23:07:03 ESP12E-S1 15.20 14.05 49.00
6275 2019-04-07 22:38:44 ESP12E-S1 15.40 14.27 48.90
6274 2019-04-07 22:10:26 ESP12E-S1 15.70 14.60 48.70
6273 2019-04-07 21:42:08 ESP12E-S1 16.00 14.91 47.90
6272 2019-04-07 21:13:51 ESP12E-S1 16.40 15.36 48.40
6271 2019-04-07 20:45:33 ESP12E-S1 17.00 15.98 47.00
6270 2019-04-07 20:17:16 ESP12E-S1 17.70 16.73 46.00
6269 2019-04-07 19:49:01 ESP12E-S1 18.50 17.53 42.90
6268 2019-04-07 19:20:45 ESP12E-S1 19.40 18.48 41.40
6267 2019-04-07 18:52:30 ESP12E-S1 20.30 19.41 39.20
6266 2019-04-07 18:24:16 ESP12E-S1 21.10 20.24 37.50
6265 2019-04-07 17:56:02 ESP12E-S1 22.40 21.61 35.20
6264 2019-04-07 17:28:15 ESP12E-S1 26.10 25.57 30.80
6263 2019-04-07 16:59:55 ESP12E-S1 26.70 26.32 32.20
6262 2019-04-07 16:31:18 ESP12E-S1 27.60 26.89 31.70
6261 2019-04-07 16:03:25 ESP12E-S1 28.00 27.19 31.90
6260 2019-04-07 15:34:49 ESP12E-S1 27.10 26.63 33.50
6259 2019-04-07 15:06:48 ESP12E-S1 27.40 26.91 35.10
6258 2019-04-07 14:38:20 ESP12E-S1 27.10 26.69 35.00
6257 2019-04-07 14:09:38 ESP12E-S1 26.10 25.73 36.90
6256 2019-04-07 13:41:43 ESP12E-S1 26.30 25.92 35.80
6255 2019-04-07 13:13:08 ESP12E-S1 25.30 24.93 40.20
6254 2019-04-07 12:44:08 ESP12E-S1 21.50 20.89 45.40
6253 2019-04-07 12:15:45 ESP12E-S1 19.80 19.10 48.30
6252 2019-04-07 11:47:24 ESP12E-S1 18.90 18.15 49.90
6251 2019-04-07 11:18:50 ESP12E-S1 17.40 16.66 56.20
6250 2019-04-07 10:50:15 ESP12E-S1 15.70 14.88 59.50
6249 2019-04-07 10:21:55 ESP12E-S1 14.10 13.24 64.10
6248 2019-04-07 09:53:26 ESP12E-S1 13.00 12.12 67.60
6247 2019-04-07 09:25:02 ESP12E-S1 12.20 11.28 69.30
6246 2019-04-07 08:56:37 ESP12E-S1 11.40 10.50 73.10
6245 2019-04-07 08:28:10 ESP12E-S1 10.50 9.64 77.80
6244 2019-04-07 07:59:47 ESP12E-S1 9.80 8.96 81.30
6243 2019-04-07 07:31:27 ESP12E-S1 9.80 9.00 82.80
6242 2019-04-07 07:03:07 ESP12E-S1 9.90 9.10 82.70
6241 2019-04-07 06:34:49 ESP12E-S1 10.10 9.29 81.40
6240 2019-04-07 06:06:31 ESP12E-S1 10.30 9.49 80.70
6239 2019-04-07 05:38:12 ESP12E-S1 10.60 9.80 79.90
6238 2019-04-07 05:09:54 ESP12E-S1 11.90 11.28 81.70
6237 2019-04-07 04:41:34 ESP12E-S1 11.00 10.26 80.70
6236 2019-04-07 04:13:24 ESP12E-S1 11.20 10.49 81.00
6235 2019-04-07 03:45:04 ESP12E-S1 11.40 10.68 79.70
6234 2019-04-07 03:16:45 ESP12E-S1 11.60 10.88 79.20
6233 2019-04-07 02:48:35 ESP12E-S1 11.80 11.12 79.80
6232 2019-04-07 02:20:14 ESP12E-S1 12.00 11.32 79.00
6231 2019-04-07 01:51:55 ESP12E-S1 12.20 11.52 78.30
6230 2019-04-07 01:23:37 ESP12E-S1 12.40 11.75 78.60
6229 2019-04-07 00:55:19 ESP12E-S1 12.60 11.95 77.80
6228 2019-04-07 00:27:01 ESP12E-S1 12.90 12.26 77.00
6227 2019-04-06 23:58:48 ESP12E-S1 13.20 12.57 76.40
6226 2019-04-06 23:30:28 ESP12E-S1 13.50 12.90 76.50
6225 2019-04-06 23:02:08 ESP12E-S1 13.60 12.96 74.50
6224 2019-04-06 22:33:49 ESP12E-S1 13.70 13.09 75.10
6223 2019-04-06 22:05:29 ESP12E-S1 13.70 13.13 76.70
6222 2019-04-06 21:37:09 ESP12E-S1 13.70 13.15 77.40
6221 2019-04-06 21:08:50 ESP12E-S1 13.70 13.13 76.70
6220 2019-04-06 20:40:31 ESP12E-S1 13.80 13.20 75.30
6219 2019-04-06 20:12:15 ESP12E-S1 14.60 14.02 72.80
6218 2019-04-06 19:44:03 ESP12E-S1 15.50 14.89 68.20
6217 2019-04-06 19:15:48 ESP12E-S1 16.40 15.78 64.60
6216 2019-04-06 18:47:36 ESP12E-S1 17.30 16.67 60.70
6215 2019-04-06 18:19:35 ESP12E-S1 18.70 18.11 56.80
6214 2019-04-06 17:51:32 ESP12E-S1 21.80 21.47 54.80
6213 2019-04-06 17:22:45 ESP12E-S1 19.00 18.55 61.00
6212 2019-04-06 16:54:17 ESP12E-S1 16.90 16.24 61.00
6211 2019-04-06 16:25:58 ESP12E-S1 17.40 16.79 61.00
6210 2019-04-06 15:57:42 ESP12E-S1 17.80 17.13 57.30
6209 2019-04-06 15:29:18 ESP12E-S1 18.20 17.69 61.90
6208 2019-04-06 15:00:56 ESP12E-S1 17.80 17.14 57.80
6207 2019-04-06 14:33:00 ESP12E-S1 19.90 19.37 54.60
6206 2019-04-06 14:04:18 ESP12E-S1 18.90 18.40 59.40
6205 2019-04-06 13:35:53 ESP12E-S1 17.60 16.99 60.30
6204 2019-04-06 13:07:16 ESP12E-S1 15.60 15.07 71.00
6203 2019-04-06 12:38:58 ESP12E-S1 16.10 15.56 68.70
6202 2019-04-06 12:10:38 ESP12E-S1 16.10 15.55 68.50
6201 2019-04-06 11:42:12 ESP12E-S1 14.80 14.23 72.50
6200 2019-04-06 11:13:37 ESP12E-S1 13.60 13.17 82.60
6199 2019-04-06 10:45:06 ESP12E-S1 11.90 11.43 87.40
6198 2019-04-06 10:16:37 ESP12E-S1 10.20 9.72 93.50
6197 2019-04-06 09:48:08 ESP12E-S1 8.80 8.33 99.40
6196 2019-04-06 09:19:45 ESP12E-S1 8.20 7.68 99.90
6195 2019-04-06 08:51:21 ESP12E-S1 7.50 6.91 99.90
6194 2019-04-06 08:22:57 ESP12E-S1 6.90 6.25 99.90
6193 2019-04-06 07:54:36 ESP12E-S1 6.70 6.03 99.90
6192 2019-04-06 07:26:15 ESP12E-S1 6.50 5.81 99.90
6191 2019-04-06 06:57:57 ESP12E-S1 6.70 6.03 99.90
6190 2019-04-06 06:29:39 ESP12E-S1 7.10 6.47 99.90
6189 2019-04-06 06:01:20 ESP12E-S1 7.30 6.69 99.90
6188 2019-04-06 05:33:02 ESP12E-S1 7.30 6.69 99.90
6187 2019-04-06 05:04:41 ESP12E-S1 7.40 6.80 99.90
6186 2019-04-06 04:36:23 ESP12E-S1 7.40 6.80 99.90
6185 2019-04-06 03:39:51 ESP12E-S1 7.40 6.80 99.90
6184 2019-04-06 03:11:32 ESP12E-S1 7.40 6.80 99.90
6183 2019-04-06 02:43:13 ESP12E-S1 7.40 6.80 99.90
6182 2019-04-06 02:14:54 ESP12E-S1 7.50 6.91 99.90
6181 2019-04-06 01:46:34 ESP12E-S1 7.50 6.91 99.90
6180 2019-04-06 01:18:16 ESP12E-S1 7.50 6.91 99.90
6179 2019-04-06 00:49:56 ESP12E-S1 7.60 7.02 99.90
6178 2019-04-06 00:21:38 ESP12E-S1 7.60 7.02 99.90
6177 2019-04-05 23:53:19 ESP12E-S1 7.60 7.02 99.90
6176 2019-04-05 23:24:59 ESP12E-S1 7.60 7.02 99.90
6175 2019-04-05 22:56:39 ESP12E-S1 7.60 7.02 99.90
6174 2019-04-05 22:28:19 ESP12E-S1 7.70 7.13 99.90
6173 2019-04-05 22:00:00 ESP12E-S1 7.70 7.13 99.90
6172 2019-04-05 21:31:42 ESP12E-S1 7.70 7.13 99.90
6171 2019-04-05 21:03:24 ESP12E-S1 7.80 7.24 99.90
6170 2019-04-05 20:35:05 ESP12E-S1 7.70 7.13 99.90
6169 2019-04-05 20:06:46 ESP12E-S1 7.70 7.13 99.90
6168 2019-04-05 19:38:27 ESP12E-S1 7.80 7.24 99.90
6167 2019-04-05 19:10:08 ESP12E-S1 8.00 7.46 99.90
6166 2019-04-05 18:41:51 ESP12E-S1 8.20 7.63 97.80
6165 2019-04-05 18:13:33 ESP12E-S1 8.30 7.72 97.00
6164 2019-04-05 17:45:14 ESP12E-S1 8.50 7.89 95.20
6163 2019-04-05 17:16:57 ESP12E-S1 8.90 8.30 94.00
6162 2019-04-05 16:48:37 ESP12E-S1 9.00 8.42 94.20
6161 2019-04-05 16:20:21 ESP12E-S1 9.30 8.72 93.40
6160 2019-04-05 15:51:59 ESP12E-S1 9.00 8.41 94.10
6159 2019-04-05 15:23:40 ESP12E-S1 9.00 8.39 93.20
6158 2019-04-05 14:55:21 ESP12E-S1 9.30 8.70 92.40
6157 2019-04-05 14:27:00 ESP12E-S1 9.30 8.73 93.60
6156 2019-04-05 13:58:38 ESP12E-S1 8.70 8.10 94.60
6155 2019-04-05 13:30:17 ESP12E-S1 8.40 7.77 94.80
6154 2019-04-05 13:01:53 ESP12E-S1 7.90 7.25 95.80
6153 2019-04-05 12:33:32 ESP12E-S1 7.50 6.82 96.30
6152 2019-04-05 12:05:09 ESP12E-S1 7.10 6.40 97.00
6151 2019-04-05 11:36:48 ESP12E-S1 6.60 5.88 98.40
6150 2019-04-05 11:08:26 ESP12E-S1 6.20 5.45 98.70
6149 2019-04-05 10:40:05 ESP12E-S1 6.00 5.25 99.20
6148 2019-04-05 10:11:44 ESP12E-S1 5.80 5.04 99.60
6147 2019-04-05 09:43:24 ESP12E-S1 5.50 4.71 99.90
6146 2019-04-05 09:15:08 ESP12E-S1 5.40 4.60 99.70
6145 2019-04-05 08:46:46 ESP12E-S1 5.10 4.26 99.50
6144 2019-04-05 08:18:26 ESP12E-S1 5.00 4.16 99.80
6143 2019-04-05 07:50:06 ESP12E-S1 4.90 4.03 99.10
6142 2019-04-05 07:21:46 ESP12E-S1 4.90 4.05 99.90
6141 2019-04-05 06:53:26 ESP12E-S1 4.80 3.94 99.90
6140 2019-04-05 06:25:06 ESP12E-S1 4.70 3.83 99.70
6139 2019-04-05 05:56:48 ESP12E-S1 4.70 3.83 99.90
6138 2019-04-05 05:28:29 ESP12E-S1 4.70 3.82 99.40
6137 2019-04-05 05:00:10 ESP12E-S1 4.80 3.94 99.70
6136 2019-04-05 04:31:51 ESP12E-S1 4.80 3.93 99.40
6135 2019-04-05 04:03:32 ESP12E-S1 4.90 4.05 99.60
6134 2019-04-05 03:35:14 ESP12E-S1 5.00 4.14 99.00
6133 2019-04-05 03:06:54 ESP12E-S1 4.90 4.05 99.90
6132 2019-04-05 02:38:37 ESP12E-S1 5.00 4.16 99.80
6131 2019-04-05 02:10:16 ESP12E-S1 5.00 4.15 99.50
6130 2019-04-05 01:42:00 ESP12E-S1 5.10 4.22 97.90
6129 2019-04-05 01:13:39 ESP12E-S1 5.10 4.23 98.20
6128 2019-04-05 00:45:21 ESP12E-S1 5.10 4.23 98.10
6127 2019-04-05 00:17:02 ESP12E-S1 5.10 4.19 96.50
6126 2019-04-04 23:48:46 ESP12E-S1 5.10 4.19 96.80
6125 2019-04-04 23:20:25 ESP12E-S1 5.10 4.19 96.60
6124 2019-04-04 22:52:06 ESP12E-S1 5.20 4.31 97.10
6123 2019-04-04 22:23:46 ESP12E-S1 5.10 4.20 97.20
6122 2019-04-04 21:55:29 ESP12E-S1 5.20 4.34 98.10
6121 2019-04-04 21:27:10 ESP12E-S1 5.20 4.32 97.40
6120 2019-04-04 20:58:51 ESP12E-S1 5.30 4.41 96.50
6119 2019-04-04 20:30:32 ESP12E-S1 5.40 4.51 96.20
6118 2019-04-04 20:02:14 ESP12E-S1 5.50 4.62 96.40
6117 2019-04-04 19:33:57 ESP12E-S1 5.80 4.93 95.50
6116 2019-04-04 19:05:37 ESP12E-S1 5.90 5.05 96.00
6115 2019-04-04 18:37:16 ESP12E-S1 5.70 4.83 95.90
6114 2019-04-04 18:08:58 ESP12E-S1 5.70 4.82 95.60
6113 2019-04-04 17:40:40 ESP12E-S1 5.80 4.96 96.60
6112 2019-04-04 17:12:22 ESP12E-S1 5.90 5.05 95.80
6111 2019-04-04 16:44:03 ESP12E-S1 5.80 4.93 95.70
6110 2019-04-04 16:15:44 ESP12E-S1 5.90 5.05 95.90
6109 2019-04-04 15:47:24 ESP12E-S1 5.90 5.08 97.10
6108 2019-04-04 15:19:03 ESP12E-S1 5.70 4.85 96.60
6107 2019-04-04 14:50:41 ESP12E-S1 5.60 4.72 95.80
6106 2019-04-04 14:22:31 ESP12E-S1 5.50 4.62 96.30
6105 2019-04-04 13:54:08 ESP12E-S1 5.50 4.61 96.00
6104 2019-04-04 13:25:47 ESP12E-S1 5.40 4.49 95.50
6103 2019-04-04 12:57:28 ESP12E-S1 5.30 4.38 95.50
6102 2019-04-04 12:29:10 ESP12E-S1 5.50 4.61 95.80
6101 2019-04-04 12:00:51 ESP12E-S1 5.30 4.40 96.40
6100 2019-04-04 11:32:33 ESP12E-S1 5.40 4.52 96.80
6099 2019-04-04 11:04:14 ESP12E-S1 5.50 4.64 97.20
6098 2019-04-04 10:35:57 ESP12E-S1 5.50 4.63 96.70
6097 2019-04-04 10:07:44 ESP12E-S1 5.50 4.63 96.60
6096 2019-04-04 09:39:23 ESP12E-S1 5.40 4.55 97.70
6095 2019-04-04 09:11:11 ESP12E-S1 5.30 4.45 98.40
6094 2019-04-04 08:42:49 ESP12E-S1 5.40 4.55 97.90
6093 2019-04-04 08:14:31 ESP12E-S1 5.30 4.43 97.60
6092 2019-04-04 07:46:13 ESP12E-S1 5.40 4.55 97.90
6091 2019-04-04 07:17:52 ESP12E-S1 5.40 4.56 98.30
6090 2019-04-04 06:49:33 ESP12E-S1 5.30 4.46 98.50
6089 2019-04-04 06:21:13 ESP12E-S1 5.20 4.34 98.40
6088 2019-04-04 05:52:54 ESP12E-S1 5.10 4.23 98.40
6087 2019-04-04 05:24:45 ESP12E-S1 5.30 4.45 98.40
6086 2019-04-04 04:56:30 ESP12E-S1 5.40 4.58 98.80
6085 2019-04-04 04:28:10 ESP12E-S1 5.40 4.55 97.70
6084 2019-04-04 03:59:50 ESP12E-S1 5.40 4.57 98.70
6083 2019-04-04 03:31:40 ESP12E-S1 5.40 4.56 98.30
6082 2019-04-04 03:03:20 ESP12E-S1 5.40 4.54 97.50
6081 2019-04-04 02:35:01 ESP12E-S1 5.40 4.55 97.70
6080 2019-04-04 02:06:43 ESP12E-S1 5.40 4.53 96.90
6079 2019-04-04 01:38:25 ESP12E-S1 5.50 4.67 98.10
6078 2019-04-04 01:10:06 ESP12E-S1 5.60 4.73 96.40
6077 2019-04-04 00:41:46 ESP12E-S1 5.60 4.74 96.70
6076 2019-04-04 00:13:28 ESP12E-S1 5.80 4.94 96.00
6075 2019-04-03 23:45:09 ESP12E-S1 5.80 4.95 96.40
6074 2019-04-03 23:16:49 ESP12E-S1 5.80 4.97 97.20
6073 2019-04-03 22:48:30 ESP12E-S1 5.90 5.07 96.60
6072 2019-04-03 22:20:12 ESP12E-S1 5.90 5.06 96.20
6071 2019-04-03 21:51:53 ESP12E-S1 6.10 5.27 96.10
6070 2019-04-03 21:23:35 ESP12E-S1 6.40 5.61 96.20
6069 2019-04-03 20:55:15 ESP12E-S1 6.50 5.69 95.30
6068 2019-04-03 20:26:56 ESP12E-S1 6.70 5.91 95.10
6067 2019-04-03 19:58:38 ESP12E-S1 6.90 6.13 95.20
6066 2019-04-03 19:30:19 ESP12E-S1 6.90 6.13 95.10
6065 2019-04-03 19:02:01 ESP12E-S1 7.10 6.33 94.40
6064 2019-04-03 18:33:44 ESP12E-S1 5.20 4.18 92.10
6063 2019-04-03 18:05:29 ESP12E-S1 7.80 7.06 92.70
6062 2019-04-03 17:37:24 ESP12E-S1 8.50 7.74 89.50
6061 2019-04-03 17:09:05 ESP12E-S1 9.10 8.29 85.20
6060 2019-04-03 16:40:49 ESP12E-S1 9.50 8.61 80.50
6059 2019-04-03 16:12:30 ESP12E-S1 9.70 9.05 89.20
6058 2019-04-03 15:44:15 ESP12E-S1 10.30 9.59 84.40
6057 2019-04-03 15:15:50 ESP12E-S1 9.50 8.75 86.00
6056 2019-04-03 14:47:27 ESP12E-S1 9.20 8.40 85.30
6055 2019-04-03 14:19:06 ESP12E-S1 9.20 8.50 88.90
6054 2019-04-03 13:50:46 ESP12E-S1 9.00 8.32 90.50
6053 2019-04-03 13:22:28 ESP12E-S1 9.10 8.40 89.40
6052 2019-04-03 12:54:07 ESP12E-S1 8.40 7.76 94.20
6051 2019-04-03 12:25:48 ESP12E-S1 8.40 7.77 94.90
6050 2019-04-03 11:57:32 ESP12E-S1 9.00 8.49 97.10
6049 2019-04-03 11:29:17 ESP12E-S1 9.10 8.61 97.30
6048 2019-04-03 11:00:59 ESP12E-S1 9.40 8.88 95.00
6047 2019-04-03 10:32:41 ESP12E-S1 9.70 9.24 96.40
6046 2019-04-03 10:04:23 ESP12E-S1 9.90 9.43 95.30
6045 2019-04-03 09:36:04 ESP12E-S1 9.80 9.32 95.30
6044 2019-04-03 09:07:46 ESP12E-S1 9.70 9.19 94.30
6043 2019-04-03 08:39:27 ESP12E-S1 9.70 9.15 92.80
6042 2019-04-03 08:11:07 ESP12E-S1 9.70 9.13 92.00
6041 2019-04-03 07:42:49 ESP12E-S1 9.60 8.99 90.80
6040 2019-04-03 07:14:31 ESP12E-S1 9.60 8.87 86.50
6039 2019-04-03 06:46:14 ESP12E-S1 9.80 9.02 83.50
6038 2019-04-03 06:17:56 ESP12E-S1 9.90 9.10 82.40
6037 2019-04-03 05:49:36 ESP12E-S1 10.00 9.02 75.30
6036 2019-04-03 05:21:17 ESP12E-S1 10.10 9.16 76.50
6035 2019-04-03 04:52:57 ESP12E-S1 10.10 9.16 76.40
6034 2019-04-03 04:24:38 ESP12E-S1 10.30 9.29 73.00
6033 2019-04-03 03:56:18 ESP12E-S1 10.40 9.46 75.40
6032 2019-04-03 03:27:59 ESP12E-S1 10.40 9.45 74.70
6031 2019-04-03 02:59:41 ESP12E-S1 10.40 9.39 72.60
6030 2019-04-03 02:31:25 ESP12E-S1 10.80 9.79 71.20
6029 2019-04-03 02:03:06 ESP12E-S1 11.00 9.98 69.70
6028 2019-04-03 01:06:39 ESP12E-S1 12.40 11.67 75.50
6027 2019-04-03 00:38:21 ESP12E-S1 11.50 10.60 72.40
6026 2019-04-03 00:10:06 ESP12E-S1 11.60 10.72 73.10
6025 2019-04-02 23:41:49 ESP12E-S1 11.90 10.94 68.80
6024 2019-04-02 23:13:31 ESP12E-S1 11.90 10.82 64.30
6023 2019-04-02 22:45:14 ESP12E-S1 12.00 10.95 64.90
6022 2019-04-02 22:16:57 ESP12E-S1 12.20 11.13 63.20
6021 2019-04-02 21:48:39 ESP12E-S1 12.30 11.16 60.40
6020 2019-04-02 21:20:22 ESP12E-S1 12.50 11.34 58.80
6019 2019-04-02 20:52:03 ESP12E-S1 12.60 11.38 56.20
6018 2019-04-02 20:23:49 ESP12E-S1 13.00 11.80 55.50
6017 2019-04-02 19:55:31 ESP12E-S1 13.10 11.91 55.20
6016 2019-04-02 19:27:13 ESP12E-S1 13.30 12.10 54.10
6015 2019-04-02 18:59:04 ESP12E-S1 14.10 12.98 54.30
6014 2019-04-02 18:30:56 ESP12E-S1 17.20 16.10 42.90
6013 2019-04-02 18:02:41 ESP12E-S1 17.90 16.84 42.00
6012 2019-04-02 17:34:33 ESP12E-S1 19.80 18.88 39.90
6011 2019-04-02 17:06:00 ESP12E-S1 19.00 18.07 42.70
6010 2019-04-02 16:37:43 ESP12E-S1 19.60 18.74 42.90
6009 2019-04-02 16:09:14 ESP12E-S1 18.80 17.92 45.20
6008 2019-04-02 15:40:48 ESP12E-S1 18.50 17.56 44.40
6007 2019-04-02 15:12:26 ESP12E-S1 18.10 17.14 44.90
6006 2019-04-02 14:44:07 ESP12E-S1 18.40 17.44 43.80
6005 2019-04-02 14:15:54 ESP12E-S1 19.40 18.50 42.20
6004 2019-04-02 13:47:41 ESP12E-S1 20.50 19.67 40.90
6003 2019-04-02 13:19:15 ESP12E-S1 20.70 19.87 40.10
6002 2019-04-02 12:50:31 ESP12E-S1 19.10 18.19 43.20
6001 2019-04-02 12:21:57 ESP12E-S1 16.90 15.83 45.30
6000 2019-04-02 11:53:38 ESP12E-S1 16.00 14.85 45.70
5999 2019-04-02 11:25:07 ESP12E-S1 14.40 13.16 48.30
5998 2019-04-02 10:56:43 ESP12E-S1 13.20 11.85 48.70
5997 2019-04-02 10:28:21 ESP12E-S1 13.10 11.74 49.00
5996 2019-04-02 09:59:59 ESP12E-S1 12.20 10.78 49.90
5995 2019-04-02 09:31:32 ESP12E-S1 11.20 9.70 50.90
5994 2019-04-02 09:03:08 ESP12E-S1 10.40 8.83 51.20
5993 2019-04-02 08:34:47 ESP12E-S1 10.00 8.41 51.90
5992 2019-04-02 08:06:24 ESP12E-S1 9.50 7.90 53.30
5991 2019-04-02 07:38:06 ESP12E-S1 9.10 7.49 54.40
5990 2019-04-02 07:09:46 ESP12E-S1 9.00 7.38 54.60
5989 2019-04-02 06:41:27 ESP12E-S1 9.10 7.50 54.80
5988 2019-04-02 06:13:08 ESP12E-S1 9.20 7.59 54.20
5987 2019-04-02 05:44:49 ESP12E-S1 9.40 7.80 53.60
5986 2019-04-02 05:16:30 ESP12E-S1 9.50 7.92 54.00
5985 2019-04-02 04:48:12 ESP12E-S1 9.50 7.90 53.50
5984 2019-04-02 04:19:55 ESP12E-S1 9.80 8.24 53.70
5983 2019-04-02 03:51:38 ESP12E-S1 10.10 8.51 51.60
5982 2019-04-02 03:23:20 ESP12E-S1 10.40 8.82 50.70
5981 2019-04-02 02:55:02 ESP12E-S1 10.40 8.81 50.30
5980 2019-04-02 02:26:45 ESP12E-S1 10.40 8.82 50.80
5979 2019-04-02 01:58:27 ESP12E-S1 10.80 9.24 49.90
5978 2019-04-02 01:30:09 ESP12E-S1 11.00 9.43 49.00
5977 2019-04-02 01:01:51 ESP12E-S1 11.40 9.85 47.90
5976 2019-04-02 00:33:33 ESP12E-S1 11.80 10.25 46.40
5975 2019-04-02 00:05:16 ESP12E-S1 12.00 10.45 45.60
5974 2019-04-01 23:36:59 ESP12E-S1 12.40 10.87 44.90
5973 2019-04-01 23:08:43 ESP12E-S1 12.70 11.18 44.10
5972 2019-04-01 22:40:26 ESP12E-S1 12.90 11.40 44.10
5971 2019-04-01 22:12:10 ESP12E-S1 13.30 11.82 43.60
5970 2019-04-01 21:43:54 ESP12E-S1 13.70 12.25 43.10
5969 2019-04-01 21:15:38 ESP12E-S1 14.20 12.81 43.50
5968 2019-04-01 20:47:24 ESP12E-S1 14.80 13.47 43.40
5967 2019-04-01 20:19:09 ESP12E-S1 15.40 14.10 42.40
5966 2019-04-01 19:50:55 ESP12E-S1 16.10 14.86 41.80
5965 2019-04-01 19:22:43 ESP12E-S1 17.40 16.23 39.80
5964 2019-04-01 18:54:39 ESP12E-S1 18.70 17.62 38.00
5963 2019-04-01 18:26:36 ESP12E-S1 20.60 19.64 35.40
5962 2019-04-01 17:58:59 ESP12E-S1 26.10 25.58 31.30
5961 2019-04-01 17:30:38 ESP12E-S1 26.80 26.30 30.00
5960 2019-04-01 17:01:31 ESP12E-S1 24.20 23.53 32.60
5959 2019-04-01 16:33:19 ESP12E-S1 25.30 24.76 33.50
5958 2019-04-01 16:05:04 ESP12E-S1 24.70 24.11 33.90
5957 2019-04-01 15:36:36 ESP12E-S1 25.20 24.68 34.50
5956 2019-04-01 15:08:15 ESP12E-S1 23.80 23.14 34.60
5955 2019-04-01 14:39:57 ESP12E-S1 24.80 24.25 35.20
5954 2019-04-01 14:11:23 ESP12E-S1 23.40 22.75 36.60
5953 2019-04-01 13:43:11 ESP12E-S1 22.70 22.01 37.70
5952 2019-04-01 13:14:40 ESP12E-S1 21.50 20.74 39.70
5951 2019-04-01 12:45:50 ESP12E-S1 18.70 17.74 42.60
5950 2019-04-01 12:17:24 ESP12E-S1 16.80 15.66 43.00
5949 2019-04-01 11:49:03 ESP12E-S1 16.00 14.84 45.20
5948 2019-04-01 11:20:33 ESP12E-S1 14.60 13.33 46.50
5947 2019-04-01 10:51:59 ESP12E-S1 12.80 11.40 48.40
5946 2019-04-01 10:23:33 ESP12E-S1 11.20 9.69 50.30
5945 2019-04-01 09:55:05 ESP12E-S1 10.00 8.42 52.30
5944 2019-04-01 09:26:41 ESP12E-S1 9.10 7.48 54.30
5943 2019-04-01 08:58:19 ESP12E-S1 8.40 6.76 55.90
5942 2019-04-01 08:29:58 ESP12E-S1 7.70 6.07 59.00
5941 2019-04-01 08:01:38 ESP12E-S1 7.20 5.57 60.90
5940 2019-04-01 07:33:20 ESP12E-S1 7.00 5.37 61.70
5939 2019-04-01 07:05:01 ESP12E-S1 7.10 5.46 61.20
5938 2019-04-01 06:36:42 ESP12E-S1 7.20 5.56 60.70
5937 2019-04-01 06:08:25 ESP12E-S1 7.30 5.69 61.60
5936 2019-04-01 05:40:08 ESP12E-S1 7.40 5.81 62.00
5935 2019-04-01 05:11:50 ESP12E-S1 7.50 5.92 61.90
5934 2019-04-01 04:43:32 ESP12E-S1 7.70 6.19 63.70
5933 2019-04-01 04:15:19 ESP12E-S1 7.80 6.29 63.30
5932 2019-04-01 03:47:01 ESP12E-S1 8.10 6.63 63.60
5931 2019-04-01 03:18:43 ESP12E-S1 8.30 6.80 62.00
5930 2019-04-01 02:50:27 ESP12E-S1 8.50 7.00 61.00
5929 2019-04-01 02:22:10 ESP12E-S1 8.70 7.19 60.00
5928 2019-04-01 01:53:52 ESP12E-S1 8.90 7.40 59.50
5927 2019-04-01 01:25:35 ESP12E-S1 9.10 7.59 58.50
5926 2019-04-01 00:57:16 ESP12E-S1 9.20 7.71 58.80
5925 2019-04-01 00:28:59 ESP12E-S1 9.40 7.93 58.60
5924 2019-04-01 00:00:43 ESP12E-S1 9.60 8.11 57.40
5923 2019-03-31 23:32:27 ESP12E-S1 9.80 8.32 56.90
5922 2019-03-31 23:04:10 ESP12E-S1 10.00 8.49 54.90
5921 2019-03-31 22:35:55 ESP12E-S1 10.50 9.04 54.80
5920 2019-03-31 22:07:38 ESP12E-S1 10.90 9.45 53.80
5919 2019-03-31 21:39:27 ESP12E-S1 11.20 9.78 53.80
5918 2019-03-31 21:11:11 ESP12E-S1 11.80 10.42 53.20
5917 2019-03-31 20:42:57 ESP12E-S1 12.40 11.09 53.30
5916 2019-03-31 20:14:42 ESP12E-S1 13.00 11.73 52.80
5915 2019-03-31 19:46:29 ESP12E-S1 14.00 12.81 51.80
5914 2019-03-31 19:18:18 ESP12E-S1 15.00 13.87 50.40
5913 2019-03-31 18:50:06 ESP12E-S1 16.30 15.25 48.30
5912 2019-03-31 18:21:56 ESP12E-S1 17.40 16.43 47.30
5911 2019-03-31 17:53:20 ESP12E-S1 16.90 15.92 49.00
5910 2019-03-31 17:25:00 ESP12E-S1 16.10 15.08 50.20
5909 2019-03-31 16:56:46 ESP12E-S1 17.10 16.08 46.60
5908 2019-03-31 16:28:30 ESP12E-S1 17.80 16.74 42.20
5907 2019-03-31 16:00:23 ESP12E-S1 18.70 17.71 41.70
5906 2019-03-31 15:32:27 ESP12E-S1 21.60 20.84 39.30
5905 2019-03-31 15:03:37 ESP12E-S1 18.90 17.99 44.00
5904 2019-03-31 14:35:22 ESP12E-S1 19.00 18.08 42.90